GFSGBSN_700_spd_000.txt.gz
Wind_Speed
25 25 28 29 29 29 28 21 25 23 26 27 25 26 23 21 23 20 19 19 18 16 14 10 10 13 15 18 21 19 14 8 4 5 10 16 19 20 23 21 24 29 31 34 36 36 36
25 27 27 28 30 30 29 30 32 29 23 28 27 25 22 23 22 22 21 20 18 18 17 13 12 13 15 17 18 19 20 21 19 18 17 14 17 19 22 24 24 25 23 29 34 37 38
30 31 31 31 30 31 30 30 31 30 30 25 27 25 22 23 24 23 22 21 19 20 19 17 15 14 15 11 17 16 17 19 18 18 19 18 20 21 22 21 24 26 28 31 32 30 32
34 35 35 34 35 33 33 33 31 30 37 23 29 25 25 22 26 24 23 22 22 22 21 20 19 18 18 15 14 15 16 16 14 15 16 19 23 25 27 27 24 18 22 27 26 27 32
38 37 36 36 36 38 37 36 34 32 34 42 27 28 27 24 27 27 25 23 23 22 23 24 21 20 21 20 20 18 17 17 17 18 18 20 23 24 26 25 26 26 26 21 16 6 16
42 41 40 38 37 39 39 38 37 35 33 37 40 23 30 27 26 27 26 25 25 24 25 22 23 19 21 13 18 22 19 21 20 20 20 21 24 26 26 24 21 24 23 22 19 13 19
46 43 41 39 38 38 37 37 36 37 35 33 43 40 32 30 29 29 32 27 27 27 27 22 10 14 19 12 20 18 17 16 17 21 22 26 28 32 28 26 28 26 19 19 18 15 22
48 49 47 42 40 35 34 35 34 36 36 34 37 45 37 34 31 34 33 32 29 26 22 23 25 25 24 22 19 17 18 22 23 23 23 27 35 31 29 28 26 27 28 32 32 26 30
50 49 45 36 38 43 45 40 34 30 30 33 34 44 43 39 32 39 33 26 26 24 25 27 25 26 23 26 30 30 25 25 24 23 25 28 27 13 21 31 30 32 33 32 33 29 32
48 47 42 42 44 45 43 36 24 22 21 21 28 43 48 38 28 40 41 30 21 20 12 16 19 26 30 31 35 27 27 26 24 21 19 22 28 31 26 25 26 34 32 30 28 21 12
43 43 42 43 44 45 38 29 23 25 21 23 22 37 45 37 32 47 34 31 19 14 2 8 16 20 20 26 21 12 16 20 22 19 19 17 17 12 27 37 28 21 16 14 14 18 22
39 39 39 43 41 43 32 21 25 23 24 24 25 32 47 37 28 43 28 27 20 10 6 8 12 13 15 20 14 11 13 15 14 18 24 26 27 27 24 18 21 28 13 13 15 14 12
39 39 39 43 40 37 27 24 19 20 17 22 20 21 38 29 30 34 35 34 19 9 7 9 12 16 15 19 15 12 15 20 17 10 20 23 29 32 31 27 23 18 18 3 6 8 7
37 37 39 41 37 36 29 29 24 28 18 15 14 18 37 34 22 41 36 35 8 9 14 9 14 17 19 14 16 17 13 20 21 22 20 14 11 22 27 34 25 26 29 9 6 3 4
36 37 36 38 35 33 27 21 26 33 34 14 11 17 34 22 23 42 42 31 18 16 23 16 13 17 18 17 11 14 22 25 24 24 16 7 11 14 13 11 23 17 29 32 14 18 6
33 33 35 36 31 33 28 25 32 39 33 6 5 12 24 26 37 49 39 27 22 16 9 15 16 14 11 15 17 11 14 7 16 23 21 15 21 25 19 17 24 30 15 9 15 5 5
34 34 34 32 29 31 26 21 33 35 25 5 8 12 29 18 35 48 37 28 23 21 14 11 15 11 11 11 16 14 10 6 6 8 12 24 22 14 16 25 30 26 32 13 9 8 4
32 32 32 29 27 28 25 26 31 23 15 11 3 10 21 21 37 41 38 30 26 21 15 13 13 13 11 7 11 18 19 12 5 9 14 21 13 22 34 28 21 26 31 34 17 9 13
33 34 32 26 27 28 23 19 23 22 15 13 9 10 14 37 36 36 30 25 24 19 23 17 14 15 14 14 10 15 13 14 13 16 7 13 12 10 9 19 24 28 34 37 35 20 24
34 35 29 25 26 25 23 17 20 21 8 8 21 13 25 49 12 33 31 29 20 21 13 15 12 18 13 11 15 10 12 7 6 8 15 22 22 23 16 13 10 20 32 39 35 26 32
33 33 27 24 26 25 19 14 20 21 6 15 11 30 40 47 28 32 27 20 22 14 15 16 16 15 11 10 14 21 24 20 22 22 17 20 28 29 35 36 32 25 19 32 41 41 24
33 31 28 26 26 27 15 11 18 18 12 15 14 22 35 29 33 29 28 16 19 12 9 14 17 9 10 19 20 9 7 13 15 14 18 26 32 27 32 32 34 42 38 29 29 40 46
34 30 28 26 25 25 14 8 8 9 20 16 11 16 31 18 35 30 31 26 14 11 7 9 9 8 8 13 11 15 16 13 11 18 24 26 27 15 15 19 15 23 40 42 37 33 34
31 30 29 24 22 21 12 3 3 4 8 19 5 22 30 27 34 30 22 20 21 14 14 7 6 10 12 13 13 13 16 22 21 21 26 29 32 14 15 13 3 8 11 18 35 33 28
29 28 27 22 18 19 11 3 3 4 7 20 7 26 25 26 28 32 19 14 14 12 13 12 12 14 16 12 14 5 9 18 19 20 22 18 28 8 5 7 10 14 10 5 25 32 30
30 27 24 22 19 16 12 1 5 9 12 13 9 14 11 32 27 28 26 18 11 10 9 14 11 13 13 12 9 4 4 5 3 4 6 9 9 14 9 4 4 13 7 10 5 7 7
32 27 24 23 17 14 11 6 8 10 13 15 11 11 20 17 25 21 28 23 16 16 13 11 11 14 14 16 12 10 6 6 3 4 4 7 7 10 10 5 3 8 6 11 7 8 6
34 26 23 23 17 15 10 8 12 13 10 15 15 16 20 23 15 24 18 14 12 16 13 11 12 8 8 12 11 10 10 9 8 8 4 5 3 4 4 4 2 4 1 2 9 8 12
37 26 22 22 20 17 13 8 13 13 15 17 20 19 18 15 12 13 15 16 16 14 13 14 10 11 6 13 9 10 7 6 9 4 8 5 9 2 5 2 2 5 4 5 4 4 8

GFSGBSN_700_spd_003.txt.gz
Wind_Speed
26 27 28 28 28 28 29 28 27 26 24 25 16 22 22 21 22 21 20 18 17 16 15 14 14 16 18 22 22 12 6 4 7 12 17 16 18 18 20 18 22 25 27 30 33 34 34
29 30 31 32 32 32 30 30 31 27 28 36 28 21 24 22 22 24 20 19 17 17 16 16 15 15 16 17 15 16 14 15 15 12 11 11 13 16 18 19 22 22 22 27 31 34 36
33 34 36 36 36 34 35 35 33 33 30 30 34 30 25 24 23 24 23 20 18 19 18 18 17 16 15 10 11 14 11 10 12 14 15 16 16 16 16 17 20 21 25 27 28 28 29
38 39 39 38 38 37 37 37 38 38 34 31 29 37 21 28 24 24 26 21 19 19 19 19 18 17 16 13 12 13 12 11 9 10 12 15 16 19 19 20 19 20 23 26 24 27 30
41 43 43 42 38 36 37 38 40 40 37 34 32 40 29 29 27 26 23 25 21 20 20 20 18 17 18 18 17 13 14 13 12 13 14 15 17 20 21 21 22 22 23 23 23 18 22
45 45 43 41 39 36 36 36 38 41 37 34 32 33 44 29 33 27 24 26 25 24 23 19 18 15 19 10 15 17 18 17 17 17 18 19 22 23 23 21 19 16 21 24 22 17 22
51 53 52 50 47 39 33 35 38 35 41 33 30 31 35 45 32 30 29 36 29 28 24 20 8 15 13 9 14 14 17 21 21 20 19 21 23 27 22 20 21 22 22 20 20 18 28
51 52 52 49 47 37 37 41 42 43 36 38 29 27 32 50 45 34 34 45 34 27 21 19 23 23 15 14 16 14 16 17 18 16 19 23 28 24 23 23 23 24 26 29 32 28 29
52 51 48 46 45 40 40 47 46 37 29 22 13 16 26 39 36 41 40 35 36 23 23 25 22 20 23 24 22 19 19 20 21 23 23 25 21 13 12 13 19 22 25 23 26 28 29
50 48 45 45 44 40 47 44 40 30 20 21 17 15 17 28 39 39 37 37 35 21 12 13 20 26 27 26 27 24 26 26 25 21 21 20 23 26 27 26 19 24 24 23 26 25 16
49 47 45 46 42 44 44 38 30 24 20 19 20 19 16 22 29 39 31 37 33 21 0 10 18 20 24 28 22 12 18 27 27 21 19 12 11 11 15 18 18 22 21 16 14 14 21
50 48 47 45 39 43 40 34 27 24 22 20 15 16 18 23 23 32 30 44 33 16 6 10 11 16 19 21 17 14 12 13 13 15 18 20 23 20 19 18 17 14 18 19 14 14 12
52 51 50 38 38 41 35 32 27 24 24 27 30 21 22 20 23 37 25 40 21 8 12 11 14 15 13 19 16 12 16 19 12 9 14 16 22 21 23 21 19 19 13 4 7 9 9
53 53 44 36 37 38 33 31 25 31 33 46 38 20 18 21 23 24 39 42 6 15 16 11 15 17 14 16 16 12 10 15 19 17 10 6 6 8 11 12 17 19 29 9 6 5 5
58 52 36 36 37 35 31 34 25 30 37 42 8 11 16 19 28 48 47 30 12 19 26 16 19 20 16 17 11 15 16 17 17 21 10 4 8 9 9 8 12 15 26 29 16 16 4
59 44 37 37 35 30 31 33 25 29 34 28 7 10 14 18 32 33 41 16 14 16 18 25 11 11 19 19 16 12 11 5 12 16 16 11 12 12 18 20 21 24 14 10 13 5 5
61 42 38 38 28 28 31 32 22 26 28 25 2 4 14 23 26 39 30 17 18 16 11 15 17 15 10 15 14 16 7 4 5 3 12 16 14 13 17 17 25 25 32 23 14 8 3
54 39 38 33 28 28 30 27 22 23 23 26 3 4 29 20 50 41 21 22 15 19 19 12 11 14 11 11 12 13 14 7 5 5 11 12 11 19 30 28 27 24 31 34 20 8 11
51 40 35 31 28 30 29 21 19 21 19 17 7 7 9 1 30 36 23 21 20 19 18 15 14 12 11 10 8 10 9 8 15 12 6 9 11 9 9 11 26 32 36 36 35 24 27
53 40 36 32 30 30 30 17 18 21 22 6 12 13 12 19 21 35 28 25 23 17 17 17 13 13 9 9 10 7 5 6 8 6 10 18 21 24 19 25 21 17 33 37 39 24 27
50 38 36 32 28 29 27 16 19 24 5 10 8 21 30 34 21 29 22 24 20 17 14 13 12 8 12 8 8 13 13 16 16 13 20 20 27 30 38 41 39 36 32 27 36 42 27
51 38 33 32 25 25 26 14 10 11 4 6 7 22 27 33 24 29 25 17 19 13 15 13 13 10 10 12 12 8 10 9 13 14 17 23 28 31 39 37 29 35 40 37 35 31 36
50 40 32 30 24 24 23 12 7 5 4 1 2 18 20 32 18 23 21 9 19 17 7 6 10 9 9 4 9 7 11 16 14 13 14 19 22 22 26 25 23 13 16 32 39 40 34
48 42 33 27 24 21 18 10 5 3 6 9 4 15 19 17 31 23 15 12 10 12 7 7 7 8 7 8 10 10 14 16 22 24 21 26 26 26 23 23 3 13 14 10 14 23 29
47 44 34 27 25 18 18 11 6 3 8 5 1 13 17 21 20 27 16 13 15 17 10 14 11 8 9 10 12 7 7 11 16 19 24 28 28 14 6 14 16 8 19 9 5 9 15
47 44 35 29 25 20 16 14 9 7 4 5 3 14 11 18 22 18 18 17 14 12 9 6 8 8 8 8 7 6 4 4 3 3 6 7 8 17 13 6 4 17 14 16 13 17 15
45 45 38 29 25 22 16 12 10 8 7 11 11 10 9 16 18 18 22 18 12 6 5 9 7 6 7 10 12 9 9 6 4 4 3 4 7 12 12 6 9 12 9 11 11 15 16
42 44 43 33 25 21 18 13 13 11 9 16 14 10 8 13 19 22 19 22 17 11 10 10 7 5 5 7 6 7 10 8 7 7 4 3 4 4 4 5 5 11 7 8 13 12 11
40 42 45 40 28 23 17 15 13 15 15 19 17 16 16 14 15 23 21 18 16 13 9 9 9 9 4 6 8 6 7 5 7 3 5 5 7 2 3 5 10 7 7 9 12 11 9

GFSGBSN_700_spd_006.txt.gz
Wind_Speed
28 28 29 31 33 34 34 31 28 28 27 25 27 27 24 21 22 21 25 24 21 20 19 18 17 17 19 23 24 10 11 16 19 21 18 18 19 21 20 21 23 25 25 29 30 32 31
32 34 35 36 36 36 36 35 34 31 29 28 27 33 35 29 24 23 25 24 23 20 19 19 18 17 19 22 22 23 14 8 13 18 17 19 20 19 19 21 22 20 21 24 28 29 31
35 36 39 39 38 38 37 36 36 35 33 31 30 31 33 35 31 25 26 25 23 21 20 19 19 18 17 19 16 22 21 20 21 17 17 14 15 16 18 18 19 18 21 23 23 25 28
39 41 41 40 40 38 36 34 34 34 34 35 34 31 32 35 38 27 27 26 24 21 20 20 20 19 19 16 17 19 17 16 16 17 16 16 18 19 20 18 15 13 17 13 17 19 22
45 47 49 48 44 41 41 39 35 33 33 35 36 32 29 32 40 30 29 25 25 23 21 22 20 19 20 19 18 16 18 17 14 14 15 16 17 19 18 17 13 15 12 13 15 17 17
48 52 54 54 50 46 41 37 32 31 34 35 36 35 27 32 38 27 30 24 25 28 24 21 19 15 17 19 22 19 19 16 17 16 16 17 17 17 17 17 9 9 10 12 14 10 21
49 52 53 53 50 49 46 34 35 41 42 35 30 38 25 30 39 25 31 27 36 30 29 22 9 20 8 22 13 17 21 19 18 19 19 19 19 22 16 17 17 20 18 16 16 21 28
50 52 52 49 48 48 45 38 39 43 39 29 24 19 12 19 33 44 27 41 36 19 21 22 21 18 12 15 13 14 16 19 21 20 20 19 21 16 20 21 22 22 21 22 21 19 22
51 52 51 49 48 43 37 40 41 37 30 23 20 14 13 13 23 38 39 29 35 30 17 20 19 21 22 18 14 13 14 17 16 19 17 17 14 12 12 14 17 19 20 19 20 20 23
52 52 52 51 47 37 37 38 38 31 24 20 20 15 17 15 18 30 51 18 41 37 19 21 25 25 24 23 22 22 19 19 19 16 18 17 21 24 22 20 19 19 16 17 16 13 10
52 55 55 52 37 35 35 36 33 28 25 22 16 12 17 12 13 20 26 45 32 28 7 13 23 23 29 25 17 23 24 24 24 21 18 11 10 9 14 14 13 13 16 11 12 15 17
55 58 59 39 33 35 35 35 29 27 27 23 20 16 16 20 18 18 20 36 30 20 6 14 22 23 26 30 26 17 19 20 20 19 24 20 20 17 15 13 13 12 10 11 13 13 10
58 61 51 35 37 36 36 31 28 27 25 27 34 35 34 26 20 29 20 30 30 8 12 16 21 23 22 28 21 21 19 19 11 9 12 10 19 19 19 14 16 14 7 3 5 8 9
60 60 39 37 38 34 28 29 29 21 25 34 40 25 18 23 18 32 25 44 8 12 16 14 21 21 14 22 15 15 14 19 18 14 5 5 4 12 7 13 6 16 18 8 7 11 15
59 57 37 38 33 28 27 31 28 19 25 31 19 11 4 18 28 33 27 30 11 20 24 23 23 20 17 18 15 17 15 17 16 20 10 7 6 10 8 7 11 9 23 21 25 25 15
58 55 36 36 31 29 30 32 24 18 23 28 15 4 11 20 31 25 30 13 11 21 22 26 15 11 13 22 13 17 13 7 15 18 14 7 7 13 17 17 22 23 10 10 14 7 17
56 54 39 37 31 31 30 27 20 19 24 30 25 6 14 17 27 32 32 10 23 21 25 15 10 13 11 20 15 16 8 6 10 8 18 12 11 6 12 16 16 19 28 24 20 15 7
55 52 39 37 30 31 29 24 18 20 25 27 24 4 13 14 19 20 24 31 23 22 17 13 9 9 11 14 17 14 13 12 10 12 15 17 9 13 22 18 19 21 24 27 18 12 12
53 51 42 35 30 27 25 20 20 22 25 30 17 14 25 21 10 22 20 25 24 18 14 11 9 8 9 11 7 13 8 13 13 12 5 11 10 7 8 6 9 20 26 36 39 29 28
51 50 44 34 27 25 22 18 19 23 28 25 9 10 23 24 13 26 19 18 18 13 12 9 9 9 10 10 12 6 8 7 9 12 14 12 14 18 16 25 22 23 26 28 34 26 32
49 49 44 35 26 22 20 17 17 16 13 7 9 13 20 19 21 21 19 16 16 15 10 9 8 9 9 9 8 12 11 11 10 12 15 13 22 25 33 35 35 37 37 36 33 38 29
47 48 45 34 26 19 20 17 15 13 12 9 13 16 10 14 22 25 18 18 14 10 7 8 5 7 7 9 9 5 8 12 10 14 25 25 23 24 36 34 26 33 36 30 34 38 39
45 47 47 37 28 17 16 15 15 10 11 15 11 15 14 11 18 20 22 14 13 9 6 9 11 9 10 5 7 11 15 17 17 12 14 17 16 19 18 18 32 14 19 12 15 22 31
43 45 47 41 28 18 13 12 13 8 7 11 7 12 13 12 17 16 13 6 11 13 4 4 11 9 6 6 9 9 11 16 17 19 19 19 18 20 24 24 4 16 22 12 11 11 15
40 42 45 44 34 20 11 9 8 4 2 3 5 12 13 20 17 15 16 10 10 14 7 5 8 6 7 9 9 7 5 6 6 12 18 23 22 13 6 13 16 8 22 14 7 11 25
37 39 42 44 39 26 13 9 8 4 3 5 6 8 11 18 19 15 18 11 12 12 11 9 12 12 8 8 7 5 4 2 1 2 7 11 18 27 9 5 3 13 18 15 8 9 19
34 35 38 42 42 33 18 11 10 9 9 11 9 12 7 8 12 16 16 17 13 9 7 7 6 4 8 9 11 7 6 4 2 4 4 4 13 20 18 8 10 10 12 10 10 13 11
32 33 35 39 43 37 27 15 13 14 14 15 13 13 11 11 12 14 17 18 15 8 5 5 6 3 4 7 5 6 7 6 6 8 4 6 7 9 6 6 5 12 8 11 13 10 6
30 31 33 37 40 39 28 21 14 16 17 16 17 16 14 12 12 19 18 20 19 16 11 8 7 6 3 4 4 5 6 5 6 4 8 7 10 4 7 6 13 9 6 9 13 7 8

GFSGBSN_700_spd_009.txt.gz
Wind_Speed
30 32 33 35 36 36 36 36 34 31 27 27 31 30 29 30 29 27 25 24 24 24 22 20 20 18 18 21 24 15 8 18 18 20 18 18 17 15 15 13 16 20 20 18 21 28 27
33 34 35 36 37 37 36 36 36 36 32 29 26 30 31 30 31 29 26 26 22 24 23 21 21 20 21 24 25 22 11 12 20 22 21 20 19 15 13 17 18 7 18 22 22 24 24
36 37 39 40 41 42 40 37 37 37 36 33 29 27 29 31 33 38 36 28 24 26 24 22 21 20 23 22 25 27 23 13 9 22 21 22 22 20 14 14 17 19 22 21 25 24 22
40 42 45 47 47 45 45 46 45 40 32 32 33 30 30 30 30 35 40 30 27 26 23 22 22 21 23 23 23 21 26 26 22 20 19 17 16 17 19 16 14 11 13 12 6 15 18
42 44 47 49 51 52 46 39 30 30 31 32 32 37 34 33 28 33 40 40 28 26 25 23 23 22 23 23 22 24 20 21 19 26 26 21 17 17 18 13 9 13 12 13 13 13 11
44 46 47 49 49 48 48 35 35 35 36 34 34 30 32 32 28 31 36 40 31 33 28 25 26 20 22 25 24 22 23 22 17 20 21 22 20 16 15 15 10 11 15 12 14 7 13
46 46 48 49 48 46 42 36 37 38 36 35 32 27 20 23 17 28 35 36 33 28 30 31 18 29 11 22 26 25 22 18 19 18 19 20 18 19 16 17 18 12 9 15 15 15 22
46 47 49 50 50 46 34 35 36 34 33 30 26 18 20 15 12 13 34 36 19 35 34 30 23 16 25 12 18 26 25 21 20 18 15 16 21 16 14 15 16 15 17 19 19 18 21
47 51 53 54 51 35 31 33 31 31 30 24 23 17 15 16 14 13 22 44 16 32 23 32 29 25 16 17 17 20 19 21 19 17 19 15 11 12 16 15 16 17 18 17 18 19 24
50 54 57 55 37 33 33 33 32 32 26 22 21 19 16 13 11 14 15 41 21 25 16 21 35 28 26 20 15 17 18 19 17 17 15 15 19 21 18 18 15 15 14 16 15 13 10
51 57 55 41 36 35 34 34 29 26 24 25 24 16 15 16 10 6 12 32 22 24 5 14 30 19 24 22 18 22 20 19 13 14 18 8 12 16 13 13 13 9 10 7 9 14 20
52 56 54 38 35 35 31 29 26 26 25 22 22 24 22 14 17 7 17 13 35 9 5 14 23 27 30 24 22 18 25 22 20 13 16 15 15 16 12 12 13 9 7 7 10 9 10
52 56 52 38 34 31 29 29 28 27 21 18 22 36 27 24 20 16 18 19 12 6 9 15 23 26 28 27 18 22 26 26 17 13 17 15 22 16 18 11 11 12 5 2 5 7 9
53 55 51 36 33 29 30 31 29 22 19 22 33 17 16 15 26 28 23 24 3 10 12 11 24 22 22 25 15 19 19 21 18 11 7 10 6 19 11 19 5 16 15 7 6 9 15
53 55 49 38 34 30 30 30 22 18 20 26 28 19 7 13 28 35 19 27 10 19 18 26 23 23 15 23 15 19 19 18 18 19 11 7 4 11 10 7 14 7 18 17 23 27 19
52 54 48 39 32 29 27 28 22 20 22 30 34 7 10 13 25 23 19 11 9 12 20 26 13 12 15 25 13 18 18 14 16 20 14 5 3 5 9 13 15 17 5 7 11 6 12
50 52 49 41 33 26 25 26 24 22 24 30 33 6 10 17 27 19 17 4 16 18 25 10 10 14 12 24 14 19 15 5 17 14 18 8 6 4 10 11 11 13 24 20 15 16 7
50 51 49 41 29 27 26 21 22 25 28 29 21 10 11 21 14 20 16 11 21 26 21 12 8 7 16 20 13 14 11 4 15 12 19 11 5 10 18 15 12 17 22 21 18 11 17
48 49 52 38 25 23 24 25 24 26 24 23 8 16 16 15 8 20 14 17 17 19 11 10 9 10 13 17 9 11 11 12 10 12 10 14 7 5 4 2 12 19 23 28 35 35 36
45 48 51 38 25 21 21 23 26 26 19 18 19 15 11 10 15 19 18 22 23 18 10 9 10 9 12 13 6 12 6 7 11 11 15 10 12 15 12 15 16 22 29 29 30 29 36
42 45 49 42 25 21 21 24 24 25 21 11 19 19 14 12 18 17 9 10 11 10 7 8 7 7 8 6 7 4 8 7 7 11 15 15 18 19 27 28 27 31 34 34 39 44 37
38 42 46 44 26 19 20 21 17 17 20 11 22 18 5 15 11 8 7 8 7 7 6 6 4 8 8 5 4 5 7 9 7 9 13 17 15 16 31 21 17 27 35 27 21 23 33
35 38 42 44 34 18 16 16 15 13 17 15 15 21 11 11 14 10 6 7 8 4 5 8 7 5 7 8 8 11 10 11 11 9 11 17 14 10 10 13 26 13 17 17 14 12 16
32 34 38 42 40 26 15 13 12 7 8 8 11 11 9 8 11 11 12 9 8 7 2 5 9 8 7 6 5 6 7 10 14 17 18 13 12 10 18 19 3 10 18 17 13 12 13
28 31 34 38 40 35 21 11 11 5 6 4 7 11 11 9 10 9 13 5 10 13 5 3 6 7 5 3 6 4 4 6 7 13 18 16 14 8 5 11 22 8 13 19 12 11 22
26 27 30 33 38 37 30 16 7 7 6 2 7 15 15 16 12 12 12 8 5 5 7 7 5 7 7 2 3 2 3 1 3 2 6 16 19 18 7 5 5 9 22 17 10 8 18
25 25 28 31 34 36 34 25 12 10 11 11 11 12 14 17 18 19 14 11 7 7 7 6 4 3 6 5 5 4 6 5 3 5 6 8 14 22 18 9 13 13 18 12 7 11 8
25 25 26 29 32 35 34 28 20 14 14 15 17 16 18 21 18 17 19 14 13 9 2 2 5 2 3 7 3 4 5 4 5 5 4 6 7 7 10 6 7 11 17 9 12 10 2
24 25 27 29 33 35 34 27 21 17 17 20 22 22 20 18 14 20 18 18 18 17 11 7 5 3 2 2 3 4 7 6 5 5 9 7 11 5 9 6 12 14 11 11 12 7 5

GFSGBSN_700_spd_012.txt.gz
Wind_Speed
33 34 34 34 34 35 35 34 33 33 34 33 30 26 24 26 27 26 28 29 28 25 25 22 20 19 18 19 21 10 5 12 15 18 18 20 22 19 16 13 16 18 20 21 17 27 31
36 36 37 38 38 40 40 41 41 40 35 35 31 29 27 26 28 27 27 33 30 27 23 22 21 21 20 22 18 20 20 13 16 20 18 16 18 19 16 18 14 10 20 22 24 21 28
38 40 40 43 44 47 48 48 43 34 34 28 22 23 26 26 27 27 29 32 37 28 25 22 21 22 24 22 22 23 16 17 13 20 22 19 21 20 23 14 19 22 22 20 24 25 30
40 42 42 42 45 47 47 44 37 35 38 35 32 27 28 28 30 29 28 34 36 33 27 20 21 24 25 26 26 21 25 16 11 15 18 22 19 20 17 18 9 15 14 18 14 11 16
41 43 44 44 46 46 45 43 34 35 37 39 38 33 30 28 29 31 28 32 39 36 29 20 22 25 23 25 24 21 19 23 26 18 17 17 15 19 20 20 10 10 11 14 11 11 10
43 44 46 47 49 48 45 32 32 36 37 36 32 31 27 26 25 23 22 29 30 32 29 24 28 22 25 23 22 19 22 19 22 20 22 21 16 16 19 17 9 9 15 12 12 10 14
45 46 49 50 53 46 34 32 32 33 31 29 29 25 22 17 19 14 13 16 25 33 35 35 18 26 11 25 22 21 20 20 15 18 17 20 22 25 18 13 17 12 11 10 13 12 18
46 49 52 53 46 36 36 35 34 32 29 29 22 19 20 17 17 13 9 18 24 31 32 32 25 26 24 9 19 23 21 23 21 20 16 19 25 19 13 13 14 15 15 19 19 15 19
46 51 53 50 40 35 36 35 33 30 26 23 21 19 19 17 12 10 11 10 28 24 22 32 25 24 26 17 17 19 25 22 21 20 20 14 7 13 18 14 16 15 15 16 19 20 26
47 52 52 48 39 36 32 32 29 27 25 24 22 22 20 16 11 6 5 8 34 17 13 29 30 23 18 21 12 18 21 23 18 19 16 14 15 10 9 14 9 9 11 15 15 13 6
48 52 51 49 36 36 32 32 30 27 26 21 20 16 22 21 12 6 8 1 39 7 6 19 32 21 21 20 17 20 23 20 17 16 21 10 13 17 13 12 9 10 12 13 13 11 19
49 52 51 46 35 35 32 34 31 26 18 15 20 20 28 22 17 8 9 4 34 5 4 18 32 26 30 19 16 22 26 22 15 13 16 12 9 11 10 7 13 11 9 10 9 10 7
48 52 52 47 39 30 30 29 24 19 20 21 28 35 23 15 16 14 13 13 14 7 20 19 30 33 31 23 18 23 28 25 16 13 17 19 18 18 15 13 10 13 6 2 3 4 7
47 52 52 49 35 30 23 22 20 19 19 24 33 23 12 8 12 17 15 25 3 4 8 18 28 28 26 24 17 20 22 23 21 9 4 11 3 18 14 20 7 15 13 5 5 3 4
46 51 53 48 32 28 24 21 18 19 22 23 22 17 12 3 22 27 22 15 5 10 18 26 28 28 21 24 15 19 19 20 18 19 8 8 3 4 8 12 15 8 17 6 9 19 11
45 48 53 45 29 27 24 26 25 24 23 21 10 11 15 16 26 29 19 6 12 14 16 30 15 15 18 27 15 18 17 11 16 19 14 6 2 6 11 10 19 14 4 6 7 3 6
43 47 52 45 29 25 27 28 25 22 24 14 13 17 14 12 23 18 9 2 12 18 15 4 10 14 13 28 12 18 10 1 17 17 19 8 7 6 15 13 16 20 23 13 7 8 3
40 46 50 46 30 25 24 23 24 22 16 13 12 17 15 13 8 13 9 17 18 16 15 15 9 10 17 26 13 14 11 2 12 11 21 12 6 10 18 9 8 16 14 18 9 8 13
37 42 47 48 31 25 23 22 29 28 11 9 14 18 18 12 7 5 5 18 21 16 11 9 12 11 9 19 8 9 11 13 20 17 18 16 8 3 2 3 14 16 17 21 30 32 31
33 38 43 46 35 25 25 25 28 24 16 18 20 16 17 1 11 10 9 14 17 15 12 12 14 13 17 15 8 13 11 13 13 17 13 9 10 11 7 5 9 17 22 24 28 21 29
30 34 38 43 42 26 22 23 26 22 15 14 21 22 9 10 12 4 9 13 13 13 12 9 10 10 10 11 7 10 8 8 12 17 18 17 13 15 20 22 23 25 23 21 30 38 35
27 29 34 38 42 32 20 20 23 23 17 11 15 15 14 16 7 14 7 9 10 9 8 6 6 10 11 8 6 9 10 7 6 9 14 15 10 12 25 9 8 19 21 23 26 24 28
23 26 30 34 37 38 23 16 14 15 13 11 7 15 11 16 10 4 4 4 5 4 3 6 8 7 9 11 10 9 11 9 8 10 9 13 9 10 8 10 20 9 8 14 22 15 20
21 22 26 30 33 35 34 16 11 5 2 6 10 8 7 9 11 7 5 4 5 4 2 5 9 8 9 7 5 4 5 9 13 15 14 12 9 7 12 13 2 1 16 19 21 10 15
20 20 22 25 29 33 33 28 10 7 3 4 11 9 6 8 8 7 7 6 8 6 2 3 7 8 6 2 1 1 3 3 5 11 17 16 13 4 4 9 16 3 10 24 19 11 19
20 19 20 22 24 28 32 33 23 11 14 10 10 12 12 11 11 8 8 8 7 5 4 2 3 4 5 1 2 3 3 0 2 1 6 13 15 11 3 4 3 0 18 22 16 7 23
19 20 20 21 22 24 25 29 33 21 16 19 16 14 17 18 17 16 13 10 10 8 7 5 2 4 8 6 3 3 3 4 3 4 6 11 14 22 19 7 13 9 11 17 6 12 18
18 19 21 21 22 23 25 25 28 31 20 22 22 21 19 21 18 22 21 16 11 8 4 4 0 3 4 6 3 3 3 3 6 8 5 9 9 7 12 7 9 3 16 12 16 16 14
18 19 21 23 24 26 27 26 27 28 27 21 26 26 24 25 20 26 24 21 16 16 10 5 3 3 3 3 2 3 4 6 6 5 10 8 9 6 9 6 5 15 18 15 15 16 9

GFSGBSN_700_spd_015.txt.gz
Wind_Speed
33 35 38 39 38 37 39 42 42 42 41 38 31 32 29 29 28 29 27 26 30 28 25 22 17 21 21 23 21 9 8 16 14 17 15 18 23 23 24 22 23 24 25 20 20 23 30
35 38 41 43 43 43 45 46 42 37 33 32 33 31 19 25 28 31 28 26 30 32 26 26 24 23 22 25 19 19 12 11 13 16 15 16 23 22 17 15 20 13 18 18 26 27 30
37 39 42 44 46 46 47 45 44 35 30 32 33 32 28 27 33 32 30 27 29 35 29 26 24 23 25 20 22 19 19 14 12 18 18 16 18 20 19 20 21 22 21 24 27 26 29
38 41 44 47 50 50 50 46 34 29 31 33 36 34 32 28 27 28 32 29 28 31 32 31 20 24 25 23 26 23 20 15 14 17 20 20 19 19 18 19 18 23 20 26 19 16 20
40 44 46 50 53 54 48 36 34 31 31 30 28 26 26 23 22 24 22 26 27 34 39 29 25 26 22 24 27 22 17 19 12 12 19 22 22 20 21 16 14 17 13 13 7 11 12
42 45 49 53 55 54 40 34 35 33 31 29 26 25 22 20 18 16 13 14 23 30 26 26 29 22 22 25 23 22 21 20 23 15 20 19 23 23 24 24 18 14 17 11 12 6 12
44 47 50 54 55 52 39 33 32 30 27 25 21 18 18 20 16 17 13 11 12 24 35 33 24 25 8 15 23 22 21 21 17 23 22 14 17 20 18 19 18 15 7 14 15 13 16
45 48 52 55 55 44 36 30 30 29 26 24 21 18 18 19 17 14 6 3 17 23 31 33 19 22 10 19 18 24 23 24 21 21 23 21 22 19 13 10 11 15 16 18 15 18 19
44 48 52 55 52 38 34 29 29 25 24 21 18 15 12 19 16 12 8 5 26 13 26 34 25 21 23 13 21 25 25 24 20 21 20 15 8 13 18 18 17 20 20 19 16 18 22
44 49 52 54 44 34 31 27 23 20 16 13 11 12 11 15 14 8 3 6 31 18 12 25 27 23 23 18 18 21 25 19 21 20 17 11 10 5 18 23 19 15 15 13 12 13 8
44 49 53 54 35 28 25 22 19 14 11 9 10 15 16 18 16 10 5 5 18 18 5 29 31 22 24 24 20 26 27 19 20 20 19 10 11 14 12 13 16 11 11 13 16 18 20
43 48 52 52 29 25 23 21 17 13 11 11 14 23 18 19 16 12 12 3 22 4 4 17 28 28 32 16 20 28 27 18 17 14 16 10 9 10 15 13 15 11 13 10 10 11 5
42 47 51 49 28 25 21 24 24 20 19 20 20 20 15 9 2 13 9 7 8 5 13 23 33 34 29 24 20 33 27 23 16 15 20 17 15 14 12 12 13 16 9 1 2 3 6
41 45 49 45 30 27 25 27 26 26 23 25 23 17 13 3 12 19 15 14 6 1 10 24 34 35 27 23 21 26 23 24 16 11 17 16 5 22 17 22 10 18 12 5 6 3 4
39 43 48 46 32 29 30 30 28 24 23 24 13 16 11 15 23 21 17 9 3 9 24 29 33 33 23 19 16 22 20 21 23 16 7 8 5 4 6 10 15 12 15 5 5 7 4
36 41 46 46 31 28 28 28 28 25 23 13 15 20 20 20 17 16 8 5 8 11 22 32 18 16 22 23 16 20 18 13 19 25 10 8 3 4 5 12 19 10 5 6 4 2 5
34 38 43 46 31 28 30 30 33 28 15 14 17 24 22 19 17 14 9 7 15 31 20 10 14 13 22 26 13 19 12 2 11 18 17 9 7 8 11 11 18 19 13 6 4 5 4
31 35 39 44 34 28 32 33 32 27 15 13 15 24 19 16 8 5 3 6 28 16 18 15 5 14 23 24 15 17 10 5 14 11 24 13 6 10 15 4 5 15 17 18 6 5 12
28 32 36 41 38 28 31 34 28 27 16 12 18 23 18 14 8 12 9 23 20 16 13 12 7 2 17 21 11 11 12 9 13 14 21 16 8 3 3 4 12 13 15 18 21 26 28
24 28 32 35 39 26 28 31 24 22 19 17 17 14 17 13 9 11 16 13 16 18 17 16 17 21 26 10 6 14 14 13 16 15 12 9 7 6 6 4 4 11 19 21 23 20 29
22 24 29 31 35 28 21 25 18 16 19 17 12 9 11 12 10 10 12 10 15 16 16 18 19 14 14 9 12 12 11 14 16 20 11 14 9 12 16 17 18 21 23 23 28 35 30
20 20 24 27 28 31 18 17 16 12 9 10 11 17 17 16 14 13 17 16 13 10 10 10 17 14 13 10 5 11 9 11 9 20 19 18 9 11 17 5 5 14 14 14 18 22 31
19 17 19 23 24 25 25 13 9 6 8 3 13 13 6 7 8 7 9 7 7 7 8 8 11 11 7 10 8 9 8 7 5 8 11 14 8 6 5 6 15 7 0 8 15 15 18
18 16 16 18 22 23 23 21 10 5 1 5 5 9 11 14 7 3 5 5 6 3 4 7 7 7 8 8 7 7 7 10 9 8 10 8 8 6 8 9 2 4 5 13 18 14 13
19 15 14 16 17 20 22 21 19 11 7 5 11 11 7 12 13 9 8 8 7 5 3 7 9 10 7 6 6 4 4 7 10 15 14 13 11 4 3 8 14 2 5 14 21 16 14
19 15 14 14 16 16 18 23 20 18 14 14 14 12 16 11 13 10 9 7 8 9 7 5 6 10 8 6 7 5 5 4 4 4 11 12 13 12 2 4 4 6 9 16 18 7 21
18 15 14 14 15 16 16 18 22 25 21 16 16 18 17 21 17 15 15 13 11 9 6 7 7 9 10 8 7 7 5 5 4 5 9 12 13 20 15 8 11 6 7 15 6 11 21
18 17 13 15 16 16 17 18 19 20 25 26 17 17 23 27 23 26 21 18 17 13 9 6 6 5 11 10 6 4 4 5 5 7 6 10 10 9 15 8 9 2 12 12 21 18 17
16 19 15 16 17 19 20 21 22 22 23 22 23 21 21 25 21 31 30 26 20 16 11 11 7 8 6 8 6 5 3 3 4 4 8 10 11 6 11 5 4 8 16 19 17 15 15

GFSGBSN_700_spd_018.txt.gz
Wind_Speed
34 35 37 41 42 42 46 46 46 45 40 30 27 29 28 29 26 27 31 28 28 28 31 30 25 24 27 27 22 9 13 18 19 21 22 24 27 27 29 31 29 35 33 32 29 28 27
35 37 39 43 46 48 49 49 47 36 32 28 27 31 30 28 27 27 30 28 28 25 29 32 26 28 28 29 17 18 12 19 17 19 20 24 25 23 24 19 26 20 27 25 28 27 30
36 38 41 44 48 51 52 45 33 35 32 31 30 30 28 27 27 25 29 33 30 26 27 31 34 19 27 20 22 23 17 17 17 18 18 19 21 23 19 17 19 22 16 20 25 27 33
37 40 42 46 50 52 46 38 34 30 29 28 26 23 21 19 20 23 22 22 25 28 28 36 28 25 28 22 23 24 25 20 15 16 18 16 19 24 21 16 14 18 17 23 24 21 23
36 41 43 47 49 49 38 35 28 24 23 23 21 19 18 15 15 18 17 16 19 26 29 36 29 27 26 26 27 22 19 19 15 17 22 22 18 18 19 21 13 14 19 21 20 21 22
38 41 44 48 49 40 33 30 23 21 21 19 17 15 13 14 15 14 14 12 14 19 29 39 26 19 19 29 25 25 23 22 18 16 24 27 27 27 23 21 17 16 22 22 19 9 19
39 42 47 49 51 34 29 24 19 18 19 16 15 12 11 11 12 12 10 4 7 16 30 43 17 21 10 18 22 27 24 26 24 20 25 27 27 23 24 21 17 15 9 9 19 17 21
39 43 46 49 50 31 25 19 16 17 17 15 12 10 8 5 11 10 6 2 9 14 28 24 15 30 12 21 29 26 26 27 25 23 22 15 18 23 16 15 16 16 20 18 19 18 23
39 43 47 51 49 29 23 19 16 18 18 16 10 7 7 9 13 8 8 4 13 13 26 30 18 21 18 21 26 31 29 26 22 19 19 19 7 16 17 14 14 12 15 17 19 21 25
39 42 47 51 47 29 24 22 24 24 19 16 11 12 14 15 13 6 4 6 17 18 10 15 24 24 22 25 23 30 25 24 24 23 19 14 10 9 21 18 17 15 17 19 20 18 11
38 43 47 51 44 31 28 25 27 28 22 19 18 18 21 17 22 11 5 6 8 18 5 17 27 23 25 24 29 30 28 21 21 20 17 10 15 11 18 20 17 15 15 13 14 18 22
37 42 46 50 43 32 28 29 30 29 27 23 20 21 18 12 13 11 9 5 12 7 3 13 23 32 27 13 33 30 24 19 18 15 17 11 11 13 14 12 14 18 15 13 15 14 5
37 41 44 49 44 33 32 32 33 35 27 25 25 16 9 5 2 12 11 13 9 2 5 30 33 32 28 24 25 33 25 23 15 16 14 14 12 9 9 13 14 16 10 3 3 1 6
35 40 44 48 43 35 35 34 35 30 24 22 20 14 7 10 18 17 16 11 1 5 4 35 33 33 28 23 29 33 24 25 19 15 17 12 7 17 13 14 6 13 14 5 5 2 4
34 38 42 46 41 36 38 38 32 25 24 20 20 17 20 22 16 15 15 6 4 5 23 37 37 30 24 21 22 27 24 22 19 16 8 14 6 7 9 11 15 11 14 11 4 4 3
32 34 39 43 38 36 39 36 28 27 27 25 22 26 25 22 19 14 8 6 12 20 26 39 20 18 21 20 22 21 22 20 24 18 8 9 6 5 7 9 17 8 10 6 4 1 4
29 32 35 39 36 34 36 33 28 29 25 26 23 32 24 20 12 6 6 13 23 32 30 13 7 16 25 24 15 21 15 5 19 22 11 11 5 6 9 10 18 18 10 7 5 6 3
25 29 31 34 35 29 29 29 25 23 22 21 23 27 20 13 15 15 16 24 21 21 16 12 3 12 25 24 15 17 13 6 9 15 24 11 6 6 11 5 3 12 20 17 6 4 7
22 26 27 29 33 24 23 25 23 18 19 18 23 19 15 19 21 25 27 27 21 17 13 8 5 11 19 22 12 11 12 5 15 13 23 15 6 4 3 9 17 15 21 24 22 20 16
17 23 24 24 26 23 18 15 18 16 15 17 16 13 15 21 19 15 20 20 18 16 12 9 10 13 23 15 8 14 15 11 13 12 17 11 7 6 6 2 6 13 14 17 19 15 19
12 18 22 20 21 24 14 12 9 10 9 8 8 11 11 14 13 12 10 14 14 15 17 17 22 24 15 10 13 17 15 15 16 15 15 13 7 13 15 16 17 19 20 20 25 31 27
11 15 18 20 17 18 18 8 6 8 6 3 7 13 14 13 14 13 17 12 11 10 11 14 14 12 7 15 3 16 15 16 13 21 18 16 8 9 15 11 14 19 18 17 20 24 33
16 11 18 15 16 14 15 14 6 4 5 1 6 8 6 8 8 8 10 7 7 7 8 14 12 11 9 7 6 6 6 12 7 10 23 17 9 4 5 3 12 14 5 9 9 14 17
22 11 17 15 13 13 12 13 12 6 5 6 8 8 6 7 6 6 4 5 6 4 5 9 9 10 8 10 8 7 5 7 7 8 11 9 11 8 8 8 2 7 4 4 9 14 13
27 18 14 16 15 11 14 12 13 12 10 8 10 13 10 9 14 11 10 8 9 7 4 9 9 9 9 9 9 6 8 7 11 12 12 12 10 5 4 7 15 8 7 6 13 12 9
27 17 15 15 15 13 12 12 14 13 13 11 9 16 18 19 18 18 15 13 11 12 9 7 12 13 9 11 9 7 6 7 7 5 14 13 13 14 4 3 4 3 4 9 14 5 20
22 17 15 16 16 14 12 13 14 14 18 18 17 16 16 24 18 19 17 17 15 13 12 11 11 12 13 12 11 7 6 8 6 7 10 15 15 18 14 6 11 6 9 10 5 9 23
19 19 13 16 18 16 14 15 15 18 18 19 26 25 23 23 20 27 24 22 21 18 15 10 11 13 15 14 9 8 7 10 7 8 8 14 11 11 13 7 10 2 4 8 15 17 19
17 18 16 17 18 18 18 19 18 20 21 24 24 29 31 34 19 32 35 31 26 26 21 16 13 11 10 12 10 6 7 7 8 4 11 10 13 5 11 5 6 10 14 14 16 19 18

GFSGBSN_700_spd_021.txt.gz
Wind_Speed
33 33 36 38 41 44 47 48 39 38 35 29 26 26 25 28 33 26 28 26 19 20 24 30 34 31 24 33 26 7 14 19 22 26 28 30 31 31 32 34 34 37 35 34 33 29 30
35 35 37 40 43 47 50 44 36 35 26 20 19 20 22 22 22 22 25 29 29 23 20 25 34 34 29 28 17 21 11 19 22 24 26 30 30 27 26 27 32 28 36 32 29 29 30
34 36 39 42 44 48 51 38 34 30 18 17 18 19 19 19 20 20 17 20 23 24 22 24 32 35 33 26 22 23 15 18 22 22 24 25 25 27 21 25 20 30 17 26 31 28 30
34 36 40 43 46 49 48 34 32 26 16 17 17 15 14 14 15 17 16 18 17 17 21 27 34 27 34 28 25 27 19 22 20 20 20 21 25 25 19 17 14 17 24 19 22 24 27
36 39 42 45 48 52 45 32 29 23 17 19 18 17 13 11 13 15 13 11 12 15 18 30 36 22 17 18 28 30 26 21 17 20 22 23 23 23 21 18 13 17 10 19 20 19 21
37 39 43 47 50 53 44 30 27 22 19 20 20 18 17 12 11 14 11 13 12 9 19 30 34 21 18 24 24 29 29 22 19 21 24 26 25 26 27 25 17 14 17 19 22 14 16
37 40 44 48 52 52 41 32 29 26 23 23 24 20 17 13 10 12 9 6 8 11 24 29 38 13 21 19 30 26 25 26 21 22 27 27 29 28 24 22 21 14 16 14 16 21 26
38 41 45 49 52 52 41 32 29 27 23 28 22 17 15 9 12 13 7 4 1 5 22 31 25 22 25 20 32 26 29 25 22 24 27 26 27 22 23 22 20 12 13 14 16 16 20
38 41 45 49 54 49 40 35 34 31 32 25 21 12 15 11 17 14 6 4 3 9 21 31 19 22 15 24 28 30 27 23 23 19 25 28 15 23 21 18 20 18 19 18 17 16 21
38 41 45 50 55 44 41 38 35 33 35 26 20 17 17 19 18 9 3 2 12 15 16 22 19 22 21 20 25 30 23 20 19 18 7 7 9 14 17 16 16 15 12 12 15 16 9
39 40 45 49 53 43 41 41 36 32 29 26 20 20 18 17 18 12 1 4 17 17 6 15 23 22 25 24 26 27 25 24 17 18 12 8 14 13 17 20 17 13 11 10 12 14 16
37 39 42 47 46 43 43 41 34 29 27 24 21 14 11 1 6 4 9 13 20 4 4 12 16 23 29 16 31 30 25 21 17 14 14 8 14 9 14 17 16 12 11 10 13 14 4
36 38 41 45 42 42 39 33 34 31 29 32 21 12 9 9 12 15 15 16 6 3 8 18 27 30 26 26 28 27 25 20 12 12 13 11 13 13 11 12 13 15 11 2 3 1 5
33 36 38 42 39 39 31 34 35 34 32 29 28 22 22 21 22 23 16 5 5 7 3 21 32 29 26 28 26 27 21 21 14 11 17 12 6 12 9 15 10 15 12 4 4 2 4
36 32 34 38 36 33 28 28 34 37 36 32 27 25 25 25 21 17 13 7 4 5 24 30 31 27 25 24 17 26 22 21 17 12 8 13 5 12 8 13 12 10 11 11 1 1 2
35 30 30 34 35 28 25 22 26 28 29 23 18 23 27 22 16 9 11 12 20 25 36 32 21 15 18 21 20 21 22 19 21 16 12 8 6 8 14 13 16 13 10 5 6 1 3
35 26 29 28 32 24 24 19 19 18 24 21 18 21 13 9 8 16 22 23 29 30 28 14 8 17 22 24 20 25 18 7 23 19 11 13 4 10 10 12 16 16 12 6 5 2 3
31 21 26 25 27 22 18 17 12 15 16 18 16 21 21 21 21 22 22 24 23 19 18 13 6 18 22 22 18 25 15 5 13 23 16 11 6 6 10 5 8 13 12 10 4 4 4
29 18 19 20 23 24 14 13 7 9 10 9 15 18 21 23 29 28 25 21 17 12 11 11 8 11 17 18 10 15 14 14 10 25 19 14 6 5 3 8 13 13 17 19 16 8 8
30 21 17 19 17 22 16 8 7 4 5 4 7 8 13 16 18 20 21 16 13 8 5 9 8 9 18 18 5 15 13 9 11 11 16 10 8 5 4 1 4 9 16 15 19 9 11
28 25 16 20 13 16 20 9 5 4 3 5 6 7 8 8 10 10 9 11 9 9 10 6 12 16 17 13 12 13 17 12 12 12 17 14 4 9 12 11 13 12 11 11 20 24 20
27 27 17 18 15 12 16 15 6 5 5 2 2 4 8 9 8 10 10 8 7 6 4 16 22 17 5 11 5 14 17 15 11 16 15 15 6 7 11 11 16 21 22 25 27 29 35
27 28 21 15 17 12 13 14 11 6 6 6 6 4 2 2 6 7 6 4 5 6 8 10 10 7 6 6 2 8 6 8 5 7 17 14 6 8 5 3 9 16 15 19 18 15 15
27 29 24 18 15 15 12 14 12 8 6 8 9 10 10 8 6 6 8 6 5 3 5 10 9 8 6 7 6 7 5 9 3 4 10 11 10 9 8 7 2 3 4 5 6 9 11
30 26 24 19 17 16 12 14 14 11 8 6 10 12 14 14 12 12 9 10 9 7 6 9 9 9 9 10 8 4 5 5 9 10 10 13 12 4 3 5 15 10 8 4 6 8 3
30 30 25 17 18 18 13 13 15 15 13 12 9 8 14 20 21 19 17 17 15 13 10 9 12 11 11 12 10 6 6 6 6 5 15 13 13 11 3 3 4 2 10 3 9 3 13
30 27 23 17 16 17 17 15 16 16 17 17 17 16 16 16 15 23 22 21 20 20 16 13 11 13 15 14 13 7 7 8 6 6 9 14 16 18 14 8 12 8 8 6 3 5 15
27 24 17 16 18 14 17 18 19 19 19 21 24 25 25 25 19 20 25 26 24 21 20 14 14 17 16 16 11 8 8 12 8 9 7 13 11 11 14 8 11 3 3 3 9 13 16
22 17 13 16 18 16 16 19 18 20 22 25 26 29 34 36 33 27 23 31 31 26 25 22 17 9 16 13 14 9 8 7 12 7 16 11 16 6 12 5 6 5 12 10 13 13 17

GFSGBSN_700_spd_024.txt.gz
Wind_Speed
33 34 35 36 40 43 47 51 51 40 34 31 20 18 18 18 19 22 22 21 23 25 19 18 27 34 38 36 24 5 16 25 28 29 31 32 34 35 35 36 36 37 35 31 29 33 34
35 37 37 38 42 47 49 53 46 36 32 25 20 17 17 19 19 19 21 20 19 21 21 20 26 36 36 39 23 20 9 23 26 28 30 31 32 31 28 31 34 28 36 33 31 33 34
37 38 39 40 45 49 52 50 40 34 30 23 19 20 17 18 17 17 17 19 20 18 16 21 24 38 32 40 24 28 16 21 24 25 28 28 28 27 26 27 25 31 22 29 34 32 29
38 39 41 43 45 50 54 41 34 34 28 24 21 21 21 18 19 16 16 17 16 14 14 17 23 38 36 29 32 28 21 21 25 23 22 22 27 25 21 19 16 18 26 22 22 27 29
40 40 42 43 47 52 54 41 33 30 30 24 27 25 25 20 18 18 15 15 12 11 12 17 24 34 28 36 26 23 21 25 27 26 23 23 26 26 20 18 14 17 12 25 25 20 20
41 41 42 45 48 54 50 43 39 33 27 25 28 28 23 19 15 16 15 13 15 11 10 17 19 23 17 22 26 28 22 28 28 27 28 28 24 28 25 22 17 15 17 14 18 17 22
41 41 43 47 51 51 49 43 39 33 28 28 29 19 19 12 11 15 14 12 7 9 11 18 26 15 21 24 27 37 26 22 17 23 33 32 26 33 31 24 16 13 13 12 13 17 25
45 43 43 47 52 48 48 44 42 35 29 28 27 12 11 10 11 14 13 8 7 5 14 15 26 19 15 18 33 32 26 21 21 23 21 29 27 22 19 22 20 16 12 12 11 16 20
45 42 43 45 48 48 47 46 40 33 32 28 26 21 14 11 13 17 6 4 4 5 20 19 18 13 19 24 32 28 28 26 21 22 22 29 19 23 19 21 19 16 12 14 17 18 19
43 40 42 44 45 46 44 43 34 35 33 30 23 21 16 8 11 6 2 4 7 20 12 22 18 13 22 25 33 21 20 18 15 22 29 18 12 19 21 26 21 18 16 14 12 10 6
44 39 38 42 41 43 40 39 35 34 32 34 21 17 13 6 6 8 6 9 20 14 5 16 15 21 17 21 27 22 12 20 10 10 7 7 15 12 16 16 17 11 9 7 8 9 12
41 36 35 39 38 40 37 35 38 38 36 34 28 22 14 8 8 11 14 21 11 3 3 8 15 23 23 12 27 25 14 11 11 12 8 7 9 7 10 13 12 8 7 6 9 10 2
38 35 33 35 36 35 33 31 33 34 36 37 33 30 31 29 23 20 22 12 5 6 14 15 17 29 21 20 23 26 17 14 8 9 11 14 12 9 8 13 13 13 7 2 3 1 4
38 35 29 32 35 30 30 27 27 29 31 32 33 27 29 28 25 20 10 8 10 7 7 16 25 24 19 19 18 21 19 14 9 6 16 9 6 12 11 13 7 14 11 3 4 1 3
37 34 30 28 31 28 28 24 22 23 26 28 25 23 20 21 18 11 7 12 5 7 14 28 26 25 21 18 13 18 19 16 10 7 3 7 5 14 11 12 11 11 10 10 1 1 2
33 30 26 28 27 27 24 19 18 18 20 18 15 11 11 8 7 13 23 20 15 24 34 27 15 12 14 17 15 17 15 13 14 9 7 5 6 10 13 13 13 9 6 5 5 1 3
30 30 27 24 24 24 20 16 14 15 17 18 14 15 13 15 15 18 25 25 28 24 20 11 9 17 18 22 12 18 14 7 14 13 11 7 5 7 12 10 12 12 12 6 5 3 3
26 27 29 23 23 20 19 15 9 9 14 18 17 11 10 9 12 18 23 20 21 16 11 8 5 11 18 22 17 18 15 11 14 16 13 10 4 4 9 5 8 11 10 13 4 4 3
29 25 28 25 21 20 18 13 10 8 6 12 11 12 12 9 17 22 20 17 13 11 9 6 3 6 11 18 10 17 18 16 4 22 12 10 2 5 2 6 9 13 19 16 12 6 8
31 27 25 25 19 19 16 14 11 9 8 9 7 2 6 6 14 17 16 10 8 4 7 9 7 7 11 14 7 15 11 12 12 11 17 10 8 4 6 1 4 11 17 18 20 9 7
31 29 24 24 22 17 16 13 12 10 9 9 6 3 3 4 4 5 7 7 4 4 5 5 7 7 14 12 10 8 11 9 9 13 19 11 5 8 11 11 12 11 8 12 22 22 13
30 29 28 26 23 17 15 13 11 11 10 7 3 2 5 3 2 2 2 4 3 2 4 4 10 13 8 8 8 5 12 12 8 12 16 13 6 5 7 10 14 18 18 20 20 19 24
30 29 30 29 22 18 14 12 10 10 8 7 6 6 2 3 1 2 2 2 3 3 7 9 13 6 6 5 3 7 9 8 2 6 15 11 8 5 3 5 9 14 10 18 22 20 17
30 28 30 29 22 18 15 13 10 8 8 8 10 10 11 9 7 5 6 5 4 3 4 7 6 4 4 3 5 8 7 9 5 5 11 9 9 7 7 8 1 1 2 2 4 5 7
30 28 29 29 24 18 17 13 14 10 8 8 9 9 13 14 11 11 11 8 8 8 6 9 9 8 5 6 8 6 5 6 7 6 7 11 11 4 3 5 13 10 6 3 0 2 5
27 28 29 27 23 17 19 12 12 13 12 10 11 10 10 13 13 15 16 16 13 12 13 11 12 10 11 12 10 6 7 6 6 6 14 13 14 12 3 2 3 1 9 4 2 8 6
26 28 27 24 17 16 19 18 11 13 14 14 14 14 14 13 12 12 14 19 20 18 16 15 14 14 15 16 14 9 8 9 7 9 10 15 14 14 10 7 10 4 9 6 2 2 10
21 23 22 18 12 14 20 23 18 17 18 16 18 19 19 20 19 23 22 21 22 21 21 16 17 19 17 18 13 11 10 12 11 10 9 11 11 10 12 8 9 4 6 4 4 9 11
23 23 18 13 11 13 19 21 22 17 20 23 24 25 27 29 28 30 29 27 25 26 24 22 21 12 17 13 16 11 11 9 13 7 16 11 13 6 10 3 5 7 5 8 7 11 10

GFSGBSN_700_spd_027.txt.gz
Wind_Speed
38 36 35 36 38 41 46 49 48 42 39 32 31 21 26 20 18 17 17 17 20 20 19 19 18 25 40 40 35 11 21 28 30 30 31 33 34 38 38 38 35 36 34 33 26 29 29
42 38 37 38 41 45 48 48 41 36 31 29 28 18 23 21 18 14 15 16 18 18 18 21 19 23 34 42 41 16 16 25 29 30 31 31 35 34 33 33 35 29 33 27 28 29 31
43 41 39 39 42 47 48 46 43 37 31 29 23 24 23 25 23 16 14 13 16 16 17 16 20 21 31 48 39 28 19 22 27 28 30 31 29 29 28 29 27 30 21 30 31 29 31
43 40 39 41 44 50 48 48 42 38 31 27 24 23 25 23 24 17 14 12 16 15 13 13 17 20 33 35 37 31 18 19 27 25 26 26 26 25 22 20 20 25 23 23 25 30 32
43 42 39 42 46 48 49 46 44 39 30 29 26 27 27 21 19 12 9 13 16 12 9 12 15 18 31 21 35 24 23 19 25 25 25 25 24 25 22 21 17 22 16 29 23 19 18
44 43 40 42 46 46 46 48 44 34 33 29 25 26 21 12 11 5 7 11 12 10 10 10 11 13 24 33 23 33 31 19 29 29 28 29 27 29 22 26 21 20 17 14 22 24 25
43 44 39 42 46 46 45 43 40 35 35 32 28 24 13 4 5 6 6 13 6 6 8 8 13 13 15 25 16 31 24 26 30 35 38 32 32 39 30 22 10 18 16 18 14 18 18
42 46 39 41 43 41 41 39 43 38 34 31 28 23 15 3 7 7 9 6 3 4 10 12 25 16 23 20 25 25 23 30 26 29 32 33 26 25 26 21 17 14 12 11 11 14 18
41 44 38 41 41 37 38 39 43 42 37 33 22 20 10 2 4 6 2 3 5 17 16 13 21 19 14 23 27 32 27 16 26 35 35 33 22 25 24 26 21 16 12 10 10 11 15
42 42 36 39 41 34 35 38 41 42 40 35 24 20 11 6 6 6 4 10 22 19 11 8 12 13 13 27 25 33 19 21 20 22 28 29 19 20 22 24 20 16 13 12 12 8 3
40 41 36 37 39 34 31 35 37 38 38 38 32 22 19 16 15 13 12 24 18 12 6 12 11 20 20 24 23 21 16 17 16 20 19 10 19 25 22 25 21 15 15 11 8 5 4
41 41 37 34 36 33 29 31 32 33 37 37 39 37 30 28 25 27 24 14 10 5 4 3 11 24 19 9 22 14 13 21 19 21 15 17 19 16 19 22 24 12 11 6 6 4 1
39 37 35 31 33 33 29 27 29 27 29 35 33 30 27 27 23 18 16 12 7 9 6 8 22 23 14 20 19 11 18 15 9 13 22 16 10 9 13 19 14 12 11 1 1 1 3
36 34 34 28 31 31 29 25 26 24 23 24 23 20 16 12 18 15 13 12 12 7 13 23 22 18 15 16 15 14 11 10 7 11 19 7 6 12 13 13 8 15 11 3 4 3 2
34 31 32 30 26 28 25 21 21 23 23 20 15 15 11 16 16 9 14 19 9 13 19 23 20 13 13 11 11 17 10 8 7 8 3 6 7 12 15 12 11 13 10 8 3 1 1
32 31 32 32 23 25 24 18 17 20 23 23 19 15 10 9 10 11 20 16 15 23 24 17 10 10 9 13 13 11 13 10 9 7 5 8 8 12 11 11 11 6 11 6 5 2 2
33 33 32 31 28 20 21 17 10 15 18 21 20 13 13 11 11 18 27 28 27 25 15 8 3 10 13 14 11 12 9 8 12 10 7 6 3 9 12 12 13 12 10 5 4 2 3
32 31 30 31 29 18 19 18 12 7 13 17 18 17 13 7 12 21 22 20 15 15 6 5 4 5 9 15 12 16 12 5 11 8 7 7 6 7 11 7 10 13 12 13 6 5 5
30 31 30 29 29 23 16 17 13 10 8 11 12 12 14 7 13 16 13 10 8 7 4 1 2 2 7 13 6 12 12 9 5 11 6 9 5 7 4 6 10 13 16 15 12 6 7
32 30 29 28 27 26 14 16 15 10 6 7 9 3 6 9 10 11 9 7 4 2 5 5 2 1 5 10 7 9 11 11 10 4 14 9 6 3 5 2 4 8 13 19 18 8 6
34 30 30 31 27 28 19 12 14 11 6 3 3 3 2 3 4 1 3 3 2 2 3 4 6 6 7 10 9 4 12 11 10 12 16 12 5 6 8 8 8 7 7 12 24 24 11
32 31 30 32 28 25 20 11 11 11 7 4 3 1 2 1 2 2 1 1 1 5 6 3 2 4 8 7 7 1 8 10 6 9 14 16 5 4 5 9 12 17 16 17 16 19 24
32 30 30 31 29 25 20 12 9 8 8 4 7 7 5 1 1 3 2 1 1 2 5 8 10 4 3 4 3 7 8 7 2 3 12 12 9 3 2 3 8 15 15 22 22 21 15
29 28 29 28 30 26 21 12 11 8 8 6 5 9 12 11 8 7 6 5 4 3 3 7 5 2 3 1 2 7 8 5 8 4 8 10 8 5 4 6 2 2 3 1 6 10 9
27 25 26 25 27 24 20 11 11 10 8 8 7 6 8 10 12 12 11 9 8 7 7 9 8 6 5 6 6 6 3 6 6 7 10 13 11 4 3 5 9 8 5 5 6 6 8
26 22 21 24 22 20 18 12 8 11 11 9 10 10 10 8 5 10 15 15 15 13 12 12 13 12 10 11 10 7 7 6 6 6 12 14 14 11 4 3 3 1 9 8 6 9 2
19 18 21 22 19 16 16 15 12 8 11 11 11 12 13 12 12 11 11 13 18 18 16 14 16 15 15 15 13 9 9 8 7 9 13 16 15 17 12 7 9 9 11 4 5 7 2
19 24 23 19 15 13 13 14 17 17 22 12 14 14 16 18 16 20 21 22 20 19 20 18 16 21 19 18 12 9 10 13 11 9 11 14 12 10 12 7 9 10 12 10 7 5 5
18 25 22 16 13 11 11 14 14 19 20 23 21 18 18 21 19 22 24 24 22 19 25 24 24 13 19 14 18 12 12 10 15 7 17 13 13 7 10 3 5 7 12 10 8 7 7

GFSGBSN_700_spd_030.txt.gz
Wind_Speed
40 41 40 36 36 40 43 41 39 35 30 27 27 28 25 21 21 16 17 15 12 12 15 17 18 21 26 31 51 29 28 28 34 36 35 35 37 35 33 38 39 38 33 34 25 30 27
40 42 39 36 40 43 41 39 36 35 31 27 25 27 25 26 19 19 19 11 10 11 12 14 18 22 24 29 46 31 22 31 38 38 34 34 35 34 27 31 36 35 31 28 30 27 30
41 42 40 37 42 41 41 40 39 35 27 26 22 24 22 24 23 14 13 12 9 9 11 13 18 21 25 24 44 45 22 17 37 34 33 29 34 35 29 34 33 23 26 26 28 32 30
43 42 41 38 43 42 40 41 40 36 35 34 28 25 21 23 21 16 10 9 8 8 12 12 15 18 24 17 42 42 21 15 32 29 30 26 27 27 25 24 24 24 19 19 29 30 31
43 42 39 39 42 41 40 41 43 37 37 36 32 26 22 19 11 7 6 5 7 11 9 8 11 12 9 22 33 46 22 17 28 30 28 28 24 24 26 22 17 22 17 25 14 26 30
43 42 41 38 42 41 40 41 44 39 36 34 29 23 14 8 5 1 3 4 8 8 7 8 8 6 14 26 31 35 27 19 26 31 28 30 26 24 21 25 25 23 23 18 21 21 22
41 41 42 37 41 40 39 41 46 45 43 35 27 21 8 2 1 2 3 5 3 2 4 6 8 7 21 22 30 31 35 25 26 32 36 34 31 35 28 23 12 15 20 14 17 25 23
40 42 41 35 38 38 36 39 46 47 43 38 27 20 13 5 7 8 6 3 2 3 9 8 20 17 26 24 21 36 26 24 31 39 36 35 32 25 22 22 12 15 17 15 15 16 19
41 41 39 33 37 37 34 36 41 39 41 36 29 21 15 11 7 8 8 4 7 16 12 12 19 19 21 19 20 26 29 20 44 40 39 36 27 28 25 24 17 13 14 16 9 12 13
40 39 38 32 34 35 31 32 31 34 38 36 30 29 21 15 13 13 11 20 20 14 8 6 8 13 17 20 17 25 17 16 37 37 38 21 22 24 25 24 20 14 14 12 11 5 7
39 37 35 33 30 33 29 28 25 26 29 31 30 35 39 39 35 28 24 18 13 5 4 5 11 15 21 16 20 16 16 16 19 36 24 16 23 24 23 24 20 12 16 12 8 8 5
38 33 33 34 27 29 27 22 23 22 25 25 24 24 27 29 28 23 16 13 11 5 6 9 14 23 21 20 22 15 2 14 22 29 14 18 28 28 25 26 23 15 13 10 7 5 4
34 29 29 32 30 25 26 21 20 21 22 22 21 21 21 27 22 14 14 12 8 9 5 15 23 19 19 20 15 15 18 16 13 12 18 18 19 17 24 29 25 20 15 5 4 4 1
32 30 29 30 30 22 23 21 19 21 22 24 23 23 21 20 11 8 11 14 13 13 18 16 18 15 21 21 19 18 15 18 12 13 15 7 7 13 26 25 16 19 14 3 3 4 3
33 29 29 29 29 25 20 19 17 18 20 22 21 24 19 18 8 9 7 9 6 11 18 15 15 13 15 14 10 11 13 12 14 16 4 6 6 9 11 12 18 16 11 10 3 1 1
29 28 28 30 27 26 20 18 16 15 16 20 21 19 18 17 6 7 7 14 11 17 19 11 3 4 6 9 9 10 8 8 10 9 6 9 10 9 12 12 12 11 14 5 6 4 4
28 30 29 29 27 23 22 17 15 14 13 15 17 17 16 13 6 7 23 20 15 12 8 2 2 7 8 11 10 13 10 10 11 10 5 9 6 12 13 11 11 12 13 7 6 3 2
32 29 30 27 28 25 21 17 14 12 13 12 12 13 15 9 7 16 16 13 12 8 4 5 5 3 8 12 14 9 7 6 12 10 7 6 7 7 8 11 15 17 15 12 5 4 4
34 32 28 27 26 26 22 19 12 12 10 7 8 6 12 10 9 11 10 8 6 5 2 4 5 2 4 9 4 12 10 9 8 8 7 8 6 7 4 7 14 17 21 19 18 7 7
32 32 29 30 28 25 23 19 11 11 8 6 4 1 6 8 11 10 6 3 2 4 5 5 2 2 4 10 4 11 9 8 6 7 10 11 8 5 5 3 7 13 17 21 18 8 6
32 32 30 29 30 25 23 18 11 9 7 5 2 1 3 6 4 3 4 4 1 1 4 4 5 5 5 7 9 2 10 9 9 9 11 10 7 9 7 5 4 5 8 17 25 21 10
32 32 29 29 28 25 22 16 11 8 7 6 6 4 4 4 6 5 4 3 1 2 4 1 2 6 8 6 6 3 5 8 8 11 13 15 7 7 7 9 11 14 16 17 17 22 28
31 31 30 28 27 26 22 15 10 8 7 4 8 9 7 6 4 5 4 4 2 1 4 9 8 4 2 4 3 7 6 8 3 4 9 14 11 5 3 5 7 14 17 24 23 22 18
29 30 28 26 24 24 20 14 8 10 8 6 4 8 11 11 9 8 8 7 6 4 5 7 6 4 5 3 1 5 8 8 7 3 5 10 7 6 3 3 4 5 6 3 10 19 19
28 27 24 24 25 21 19 14 7 11 9 8 6 5 7 9 13 13 13 11 9 8 7 10 10 6 5 5 7 6 5 6 7 7 10 10 9 3 2 5 10 9 8 4 5 8 14
26 23 22 25 26 21 17 15 10 7 12 9 9 7 8 9 9 11 14 16 15 14 12 12 12 12 10 10 8 5 6 6 7 6 12 14 13 9 3 3 3 3 10 10 8 5 12
24 20 21 25 23 18 14 14 11 8 8 15 12 10 11 11 11 12 12 13 15 19 18 15 16 16 15 15 13 9 7 8 7 9 13 17 17 16 13 7 9 10 14 11 7 6 14
26 19 21 23 19 16 14 14 14 13 13 11 17 20 16 15 15 17 16 17 19 18 18 19 17 21 19 18 13 13 10 12 10 9 9 15 12 11 12 7 10 15 18 13 11 11 9
21 19 21 21 19 17 16 15 16 16 18 18 17 15 23 22 15 15 17 17 17 19 18 21 23 12 20 14 19 11 12 10 15 6 18 13 14 8 11 7 6 9 19 20 15 12 11

GFSGBSN_700_spd_033.txt.gz
Wind_Speed
41 41 41 39 36 38 38 38 40 41 36 28 27 25 24 26 25 23 21 14 12 14 16 14 13 14 13 20 26 22 44 43 36 36 37 34 35 36 26 27 20 33 16 26 19 29 30
40 43 41 38 37 39 37 40 42 43 35 34 33 29 24 23 20 22 15 10 11 15 13 13 16 17 17 17 18 30 32 49 40 36 35 33 36 34 22 17 26 21 19 21 23 23 24
40 44 41 39 38 39 37 40 44 41 36 38 34 30 25 21 19 21 10 9 10 8 9 9 11 14 19 19 19 30 32 37 26 29 34 29 26 32 22 18 24 13 24 14 21 28 15
40 43 42 39 39 38 36 39 44 40 39 36 28 26 19 15 17 12 8 9 7 6 8 10 12 13 22 15 23 26 34 35 34 31 28 26 24 30 19 17 18 16 19 20 27 28 26
40 43 41 38 38 36 34 37 43 42 44 34 28 25 16 5 7 5 2 3 6 7 10 9 9 11 12 16 25 36 37 33 33 34 28 29 28 30 21 20 17 23 20 24 15 31 24
38 41 38 36 36 33 31 33 40 44 43 36 28 21 14 7 7 4 2 2 3 5 4 5 5 6 6 13 21 43 32 23 41 38 33 29 29 28 21 24 28 25 26 21 24 17 26
37 39 36 35 33 31 29 28 36 42 46 40 32 24 16 10 7 6 2 3 1 1 3 6 6 7 9 16 21 35 26 18 29 39 40 38 30 34 35 31 19 19 24 16 20 21 16
36 38 34 35 31 30 27 26 29 33 42 43 40 27 19 11 10 12 5 3 4 4 4 4 9 8 15 24 17 26 23 21 36 40 27 32 32 26 21 22 19 10 19 18 13 21 23
36 36 31 34 30 29 25 24 25 29 33 38 40 40 33 24 18 15 12 9 10 13 9 10 12 15 15 16 12 14 18 22 31 32 32 30 25 23 21 24 19 17 19 19 8 15 12
35 34 30 32 31 27 24 22 24 25 29 31 33 36 34 32 30 27 25 24 19 10 8 10 13 14 14 12 10 13 17 13 28 32 28 21 25 23 23 21 20 17 15 15 14 8 10
33 33 31 31 29 26 24 21 22 24 24 25 28 29 29 25 18 13 9 6 9 6 2 6 8 13 15 8 18 11 11 8 34 40 20 18 31 28 25 23 20 10 17 11 10 7 4
33 33 29 30 29 28 24 21 18 22 22 21 23 26 25 19 14 11 10 12 10 5 7 10 12 18 14 14 13 6 7 9 36 30 31 19 30 25 24 21 19 14 14 9 5 4 5
33 34 28 28 31 27 22 21 18 18 21 22 22 20 19 15 11 8 13 11 8 8 7 14 18 15 11 13 6 8 12 21 12 16 16 25 24 21 29 24 23 17 18 7 6 5 3
33 29 30 28 29 28 24 19 18 16 17 20 18 19 18 12 6 5 10 15 11 12 17 18 14 10 15 15 14 11 14 16 10 15 16 7 8 21 28 29 22 21 18 4 6 6 6
30 29 30 27 28 27 26 19 18 16 14 18 20 18 18 9 4 4 6 11 6 7 13 10 9 6 6 11 13 8 8 9 16 9 4 7 5 8 25 26 23 17 12 7 1 2 1
30 28 30 29 26 24 27 23 16 16 14 14 17 16 16 7 3 1 3 11 9 13 14 5 3 3 4 5 5 5 3 6 13 7 8 8 9 7 16 20 22 16 16 6 4 3 5
29 31 32 29 24 25 24 24 19 15 14 12 14 12 11 7 4 1 10 13 13 10 6 4 3 4 5 7 5 4 2 8 7 6 5 9 5 8 10 7 10 11 9 9 5 3 3
31 35 35 31 28 24 25 24 20 14 12 10 9 8 6 5 3 9 15 10 10 7 6 7 6 5 5 6 6 4 4 3 10 7 3 4 6 7 7 14 15 13 9 13 6 5 4
32 36 34 30 30 27 25 21 19 14 11 7 5 3 5 6 3 5 6 7 7 5 5 6 5 3 6 6 4 5 5 6 11 9 4 6 4 7 2 6 14 17 18 15 14 5 6
32 34 34 35 35 30 23 21 18 10 10 6 5 3 1 6 8 7 6 4 2 3 5 4 2 3 5 5 3 9 9 9 6 7 9 9 5 5 2 3 7 14 19 22 19 8 8
31 33 34 35 34 30 24 21 17 9 9 6 6 5 7 7 4 5 6 5 3 1 3 3 2 5 4 4 4 4 9 10 10 7 10 8 7 9 6 4 4 7 12 19 26 24 12
29 31 33 33 32 28 25 20 16 9 9 6 7 8 6 9 6 5 5 5 4 2 3 1 2 5 7 3 4 6 6 8 6 11 9 12 6 9 9 11 12 14 14 14 19 23 23
28 31 32 31 30 28 24 21 16 9 9 7 6 9 9 7 8 6 7 6 4 2 2 4 5 3 2 6 6 7 6 7 5 6 10 9 11 6 3 6 7 13 21 25 23 21 21
27 28 29 28 29 28 24 19 15 11 8 7 7 7 10 10 8 10 7 8 6 4 4 6 5 3 4 5 3 5 7 9 8 6 7 8 9 8 3 3 4 6 7 8 21 22 23
26 29 27 26 26 25 22 17 14 12 9 8 8 8 7 10 13 13 12 11 10 8 7 10 8 4 2 2 4 3 3 3 8 9 9 9 8 3 3 7 12 9 10 9 8 10 20
28 27 23 26 26 21 18 17 16 14 12 9 15 10 9 8 9 11 14 15 15 14 11 12 12 11 8 6 4 4 5 4 4 4 13 14 12 8 4 4 3 3 7 7 5 3 10
27 25 24 24 25 20 17 16 16 14 13 12 12 19 15 11 12 11 12 12 14 16 15 14 14 13 13 10 9 8 9 7 5 7 8 13 13 15 12 7 8 10 9 11 6 5 12
25 22 22 23 23 22 17 17 17 17 15 13 12 11 12 25 15 16 15 14 14 13 14 17 14 18 17 16 10 10 9 9 9 8 9 14 9 10 13 8 9 9 15 12 10 8 12
24 24 22 21 22 21 16 16 18 19 20 18 16 13 15 15 18 21 16 15 14 15 17 20 21 13 15 13 16 11 13 8 11 9 15 12 14 9 11 7 12 7 18 24 13 11 12

GFSGBSN_700_spd_036.txt.gz
Wind_Speed
39 40 41 39 34 36 34 35 42 45 39 38 37 34 29 27 22 18 14 19 15 15 11 13 13 15 13 15 15 13 27 37 32 29 30 31 32 31 32 33 26 34 16 19 21 23 23
38 39 40 38 34 36 32 37 44 47 43 40 31 29 26 22 18 15 16 12 12 7 8 10 10 8 12 14 15 14 20 37 42 28 30 30 32 29 27 12 27 16 22 11 21 29 27
38 39 39 37 34 34 29 36 45 51 46 38 33 30 24 18 11 13 11 4 8 5 8 10 12 15 17 13 16 21 22 29 37 28 29 32 21 28 22 18 18 10 24 17 25 26 24
36 39 38 37 34 32 27 31 40 46 54 40 34 31 22 13 12 10 11 3 3 5 5 5 6 9 15 9 14 21 25 19 37 34 28 29 21 27 17 25 17 25 20 17 24 20 28
35 38 39 37 35 31 27 26 31 39 49 53 34 31 21 17 16 12 8 6 3 3 5 7 8 9 6 14 17 20 25 26 25 31 29 36 30 30 24 16 18 20 19 24 17 22 23
35 37 38 36 37 31 26 24 28 37 40 47 50 30 24 17 18 12 7 5 2 3 3 4 3 4 4 5 10 21 27 28 26 22 35 29 25 32 31 23 25 30 24 22 22 22 26
35 36 36 35 36 30 26 25 26 32 35 39 44 43 24 18 17 14 5 5 3 3 3 4 2 9 7 9 14 20 31 32 28 32 34 28 34 41 43 41 21 16 22 17 19 21 17
35 34 34 36 35 31 26 22 26 28 31 33 36 38 35 27 19 16 10 6 5 4 5 1 5 5 11 14 16 21 36 31 37 35 36 34 41 35 26 24 22 14 16 23 9 25 18
33 33 35 32 34 32 26 23 22 25 27 27 28 28 26 25 23 25 22 15 10 8 6 6 4 10 15 20 19 30 38 17 40 33 41 37 24 22 24 24 23 17 12 23 18 14 17
32 34 35 30 32 33 28 23 20 22 24 24 25 24 20 16 14 13 11 17 13 10 4 9 7 13 14 11 16 15 19 26 37 36 23 24 25 26 24 27 25 18 14 17 20 11 5
30 33 31 31 31 32 29 22 19 20 22 23 23 23 21 19 17 13 12 12 11 7 2 5 8 12 4 14 16 12 16 28 30 31 17 14 27 28 21 23 22 12 20 17 16 10 6
30 32 29 31 31 32 28 26 20 16 19 22 20 19 20 19 15 15 14 12 12 7 7 8 9 9 13 11 13 11 6 10 30 28 24 15 25 24 22 21 19 14 19 12 9 7 4
28 32 31 29 31 33 28 27 23 17 15 18 20 17 18 18 14 14 14 8 8 8 4 6 8 10 9 14 10 7 6 11 22 27 18 22 30 25 25 26 16 20 21 7 4 3 4
28 32 30 31 31 30 33 26 25 19 15 15 18 18 16 13 9 10 10 15 10 10 13 11 11 2 7 12 12 5 13 16 22 25 19 11 10 32 27 29 18 22 22 5 5 5 5
28 31 33 34 33 31 28 29 23 22 16 12 16 16 13 8 7 7 6 11 7 7 12 7 4 8 7 8 9 9 10 14 17 26 8 9 4 24 28 31 22 26 23 13 3 1 4
25 31 36 35 32 32 30 28 23 21 15 13 11 13 14 7 6 5 5 8 10 14 9 6 5 4 5 7 3 3 5 8 11 17 11 11 10 9 28 30 22 25 20 9 6 2 3
27 32 36 33 32 33 33 27 25 18 15 12 8 9 11 7 8 3 1 9 14 7 7 5 4 3 5 5 5 4 3 7 6 6 12 8 5 8 19 17 30 25 21 9 5 4 1
28 31 31 33 34 35 35 29 25 18 13 10 6 5 8 3 5 6 10 13 10 8 9 7 6 8 2 3 4 3 5 6 10 10 7 5 9 9 6 10 16 24 18 19 4 5 5
29 30 30 31 33 32 32 28 24 17 12 6 5 1 3 1 5 3 7 9 8 6 6 6 3 2 7 5 3 4 3 4 11 10 7 7 8 8 3 6 15 18 19 16 16 8 7
29 29 30 31 32 31 31 29 24 16 12 6 5 3 1 2 9 6 3 2 3 3 3 2 2 4 5 4 3 7 4 6 9 7 7 8 8 6 5 4 8 21 24 24 24 14 6
28 29 30 31 31 30 30 27 23 16 10 7 4 4 6 6 5 3 8 6 1 3 3 2 1 5 4 3 3 3 8 9 8 5 8 8 6 9 7 4 7 8 14 23 29 26 14
29 29 30 30 31 31 28 25 21 16 10 7 4 6 5 6 6 3 1 2 4 3 1 3 2 3 6 2 3 5 5 7 7 9 8 10 5 8 9 11 11 13 13 18 25 26 29
27 27 29 30 31 32 28 25 20 16 10 9 6 5 7 4 6 5 8 6 3 3 1 2 6 4 3 6 9 7 7 5 7 7 9 7 7 5 3 5 7 15 22 25 23 25 26
24 26 27 28 29 30 27 23 20 17 12 8 7 5 5 5 6 8 8 8 7 4 3 5 5 3 2 2 4 5 7 7 6 6 7 7 6 6 2 2 2 5 8 10 21 23 21
23 26 28 29 29 29 25 20 18 17 15 11 9 8 7 7 11 12 11 9 8 6 5 8 5 2 2 2 4 2 1 1 6 9 7 6 6 2 3 7 13 17 11 9 10 13 20
24 25 27 29 30 27 25 20 17 16 15 14 11 10 14 9 10 10 11 12 12 10 5 9 9 9 6 4 3 3 5 5 3 3 11 12 12 7 4 4 3 4 7 5 7 9 7
23 25 26 28 30 29 25 20 17 16 16 15 14 12 10 20 12 11 11 11 11 15 12 10 10 9 8 8 7 6 7 7 5 7 7 13 14 16 12 6 9 12 10 6 4 2 3
19 22 25 27 29 29 26 24 22 21 19 16 15 13 11 11 14 21 14 13 12 11 13 15 11 10 10 11 8 10 10 8 8 9 9 14 12 10 14 6 9 8 8 10 6 4 7
17 18 21 23 26 26 26 25 25 23 20 18 16 15 14 15 14 16 23 19 18 16 15 16 13 8 12 9 10 9 10 8 11 7 14 12 15 8 11 8 10 10 8 14 10 8 7

GFSGBSN_700_spd_039.txt.gz
Wind_Speed
38 37 38 37 36 31 27 29 36 44 51 46 35 33 30 22 17 11 9 9 12 9 9 8 11 16 24 21 17 12 22 43 34 28 28 31 33 33 33 34 35 39 25 37 24 29 24
38 37 39 37 35 32 27 26 33 41 47 51 36 31 29 23 16 12 10 10 3 5 5 5 5 11 11 14 18 14 27 41 41 29 28 27 30 28 28 19 30 34 22 22 20 27 20
37 38 37 36 36 34 27 25 30 37 42 48 41 30 26 23 19 14 14 6 2 5 3 1 2 1 11 9 20 21 25 35 39 31 28 29 25 30 24 17 23 8 29 17 24 25 24
36 38 36 36 36 34 29 27 27 32 38 42 42 31 25 22 19 17 16 13 5 5 2 2 2 0 5 9 14 15 25 29 38 36 32 31 28 29 22 17 25 17 17 25 24 33 25
36 37 34 35 36 34 29 26 28 28 32 35 37 34 27 21 20 12 12 10 5 3 1 1 2 2 8 10 12 13 20 23 38 35 30 33 30 33 20 23 21 27 19 30 26 31 32
34 36 34 35 33 34 31 26 26 27 27 29 29 30 28 28 20 16 8 7 5 1 2 4 5 5 6 10 11 13 16 23 32 32 28 35 29 35 27 27 34 40 32 34 29 28 29
36 32 33 33 33 32 31 26 24 25 24 27 25 23 24 24 30 20 15 8 6 4 6 3 3 6 9 10 15 15 18 20 24 32 32 34 31 46 46 33 10 28 28 19 29 20 21
34 33 33 29 33 32 32 27 23 23 23 25 27 23 18 18 21 21 18 15 12 10 4 2 2 4 6 10 12 16 23 29 24 33 32 38 35 41 35 30 19 15 19 21 14 20 21
32 32 31 29 33 33 32 29 23 21 22 24 27 27 19 15 17 20 18 14 11 11 8 9 4 7 10 12 13 18 23 29 29 29 34 43 30 37 34 32 25 23 14 17 20 22 22
31 30 32 30 31 33 33 29 24 20 20 21 24 25 21 16 15 14 16 14 11 9 3 8 5 5 15 15 14 18 26 31 22 27 19 14 20 31 29 26 26 23 12 10 20 18 9
30 28 30 29 31 32 34 30 27 20 18 20 21 22 23 19 16 15 13 11 5 7 2 4 3 11 15 7 20 24 31 20 24 19 25 18 28 29 28 23 19 15 15 13 20 14 10
29 25 28 32 34 32 30 30 26 21 16 16 19 20 20 16 13 14 12 7 7 4 6 6 3 10 13 20 13 23 19 22 26 20 17 26 29 24 27 26 15 15 20 13 10 7 4
26 24 28 33 34 30 28 29 25 21 15 14 15 18 18 13 13 14 13 5 4 8 6 14 17 18 16 14 12 14 22 26 25 20 17 21 27 22 26 25 24 21 21 4 2 1 6
24 25 29 32 30 30 30 30 28 22 16 13 11 15 17 8 8 11 12 6 10 10 14 11 13 6 12 11 12 16 18 25 23 20 18 15 13 26 27 27 22 26 24 9 6 4 4
25 27 28 31 30 32 33 32 28 19 16 11 9 11 12 7 5 8 9 8 7 5 8 9 7 9 9 13 13 12 18 19 20 22 12 16 10 26 27 31 24 25 28 11 2 4 2
25 29 29 30 31 33 33 31 30 19 16 10 8 7 8 4 3 4 4 8 10 9 9 12 8 9 6 8 6 6 7 13 21 28 18 11 7 23 26 29 28 29 26 11 9 1 4
26 29 28 29 31 32 33 31 29 20 14 8 6 4 6 5 6 5 4 13 11 8 5 7 8 5 6 11 11 8 5 10 12 24 21 14 8 11 23 28 33 28 24 18 13 7 4
26 27 27 28 29 30 32 29 27 19 11 6 4 2 4 5 7 9 11 12 11 12 11 10 7 8 6 7 7 5 6 7 9 13 13 9 8 10 17 17 26 28 28 29 13 6 6
24 25 26 27 28 29 30 28 26 21 11 3 3 2 3 5 3 8 9 10 7 5 6 6 4 2 9 5 3 3 5 10 16 13 11 9 10 10 4 10 21 33 32 34 23 11 9
23 25 26 26 27 28 30 28 26 22 13 4 1 3 4 8 7 4 6 3 2 3 2 0 2 5 7 5 2 6 5 10 13 10 9 8 13 7 13 5 15 28 36 35 34 20 15
22 24 25 25 26 27 28 28 25 21 14 7 3 4 6 6 10 5 6 5 1 1 1 1 3 7 6 1 1 3 5 9 11 9 10 10 9 10 10 6 8 12 25 27 30 27 24
21 23 24 24 27 27 27 27 25 22 15 8 6 3 2 2 7 7 8 7 4 3 2 3 2 6 7 5 3 6 3 9 9 10 9 12 7 11 12 10 10 12 14 24 34 33 33
20 22 23 25 25 27 27 26 25 22 18 10 5 4 2 2 8 8 7 6 3 4 2 6 4 6 11 6 5 5 5 3 5 6 11 10 9 8 5 7 9 14 24 26 24 30 34
19 21 23 23 25 28 27 25 24 21 19 14 6 2 1 5 9 10 10 10 7 5 3 5 7 3 5 5 7 7 8 9 8 8 7 7 7 7 3 4 2 6 6 7 17 26 25
19 21 22 23 26 27 26 24 23 21 19 15 11 7 7 6 10 10 10 9 8 8 5 6 5 4 4 3 3 3 1 2 6 7 8 7 6 4 3 7 13 14 10 12 12 13 24
18 21 23 23 25 25 26 25 22 20 19 17 15 11 8 12 8 7 9 11 10 9 6 8 9 9 5 5 5 3 3 3 4 3 10 13 9 6 6 4 4 2 3 6 8 15 10
16 16 18 20 23 24 25 27 25 22 19 17 15 13 10 7 15 13 10 9 10 13 14 13 9 8 8 9 6 5 6 5 4 6 6 12 16 17 12 6 10 11 6 5 5 4 6
16 17 18 19 21 22 24 26 25 23 21 19 17 13 10 10 11 14 22 13 11 10 11 14 10 9 9 8 6 8 8 8 11 10 8 7 9 12 14 6 9 3 4 7 5 3 1
13 15 16 18 18 21 24 25 26 23 22 20 19 19 15 11 13 13 13 21 17 13 13 12 9 6 8 8 8 6 8 7 10 8 12 10 12 6 11 5 5 5 7 8 8 3 3

GFSGBSN_700_spd_042.txt.gz
Wind_Speed
34 35 34 31 31 31 28 24 25 28 33 33 37 36 33 24 19 14 9 7 9 6 4 5 7 15 12 17 21 21 24 43 36 32 31 32 36 38 38 38 36 37 34 33 32 30 28
34 35 32 32 32 31 29 25 26 26 29 32 33 33 36 24 20 17 12 8 1 0 1 1 4 10 12 15 23 15 21 39 35 36 33 33 36 33 34 35 36 36 25 21 31 18 24
32 35 31 33 31 29 30 27 24 25 25 28 30 27 40 29 18 16 15 7 4 3 3 4 1 0 12 10 19 17 24 47 42 26 30 31 30 33 29 28 30 15 27 18 27 31 25
32 35 32 32 29 29 30 27 25 25 25 27 27 23 35 31 23 14 13 10 6 3 5 6 8 7 7 9 15 20 27 44 47 29 28 25 29 30 26 20 26 16 28 27 30 24 18
32 33 32 30 30 28 30 29 26 26 24 25 25 23 25 29 24 17 11 8 5 1 1 4 4 4 5 8 11 16 27 38 46 39 30 31 31 31 31 22 31 21 28 36 27 28 26
32 33 31 29 30 29 29 29 26 24 25 25 26 25 23 25 21 18 13 8 5 4 1 3 2 4 7 9 13 12 18 34 44 40 28 34 35 33 35 31 34 42 32 37 33 31 33
31 32 30 29 28 30 30 25 27 23 23 26 26 26 21 20 17 17 15 11 6 5 5 4 5 4 7 12 12 12 21 32 41 34 39 36 42 49 44 36 14 34 28 33 30 21 30
29 31 29 28 27 30 30 26 23 22 21 23 24 23 22 18 14 14 10 12 10 8 4 3 6 6 7 9 12 14 19 32 35 40 24 30 41 41 34 34 12 22 28 22 26 21 22
29 29 28 27 29 29 28 27 23 23 20 21 23 22 22 17 13 11 9 4 7 9 8 7 3 5 6 11 11 14 14 22 22 34 22 27 24 37 31 29 21 22 24 23 20 23 29
28 28 26 28 29 28 27 27 26 22 20 18 21 22 20 16 12 10 9 4 3 3 3 5 5 5 8 11 11 13 15 17 21 26 23 21 12 30 34 31 25 20 17 15 14 17 15
25 25 26 29 31 27 26 26 29 24 20 17 18 19 19 14 10 9 7 7 4 5 2 2 3 8 15 12 11 14 12 16 14 27 21 13 31 33 32 33 29 21 14 8 10 20 16
23 23 27 29 30 29 26 28 28 25 18 17 16 16 17 12 10 10 9 5 6 5 6 6 4 14 18 9 16 18 16 18 12 18 24 12 30 26 27 30 24 18 13 11 17 15 8
22 23 26 28 29 30 30 28 28 26 17 16 13 14 14 10 8 10 9 3 5 7 3 10 12 14 19 17 15 21 26 16 14 12 25 22 27 23 28 24 19 23 21 4 1 2 6
22 24 28 28 28 31 31 27 27 27 17 13 10 11 10 7 5 8 10 7 8 7 7 8 10 8 12 16 17 21 23 24 20 11 27 20 17 27 31 28 20 28 26 10 6 4 3
23 25 28 28 28 29 30 27 24 24 16 11 9 7 8 6 2 6 7 6 5 6 7 7 7 7 7 13 16 18 21 24 23 19 10 13 12 23 27 28 21 29 27 15 4 3 1
22 25 27 27 27 28 30 26 24 24 16 8 7 4 4 4 2 2 5 7 8 10 9 7 4 6 10 9 10 11 14 17 22 26 15 14 9 24 21 27 27 29 27 12 6 3 3
22 24 25 25 25 26 27 26 25 23 16 7 4 3 1 1 3 6 4 10 10 9 7 4 6 7 13 9 9 7 5 11 20 24 15 17 13 18 25 28 31 26 30 19 12 6 4
21 23 24 22 22 23 26 25 23 20 15 5 4 2 2 5 5 8 15 10 11 10 10 8 6 11 7 7 7 6 6 4 16 27 23 17 11 12 25 31 27 33 27 35 13 6 14
19 21 22 20 20 21 23 23 22 21 14 6 4 3 3 6 5 11 13 10 6 6 4 6 5 5 9 6 3 7 7 11 15 21 17 14 7 10 9 18 27 34 37 33 34 19 23
16 20 21 19 19 19 20 20 21 19 14 6 2 4 7 8 5 5 8 5 2 2 3 3 3 7 8 5 1 7 9 15 12 9 9 9 8 9 11 5 19 33 37 36 36 25 25
15 20 20 18 17 20 20 19 19 20 16 8 2 5 6 10 9 9 5 4 2 1 2 4 6 8 5 4 2 3 8 13 17 14 13 13 7 16 10 11 10 15 26 38 41 42 25
18 19 18 16 17 20 19 18 19 20 19 13 4 2 5 7 11 8 10 9 5 4 3 4 6 9 6 4 3 4 3 8 10 14 13 14 7 12 13 11 10 13 14 24 35 42 42
17 17 16 15 17 19 19 20 20 19 17 12 6 1 5 5 10 10 10 8 7 7 4 5 4 6 8 7 4 2 4 3 5 8 11 12 10 7 5 11 12 15 27 28 31 37 39
14 14 14 15 17 18 19 20 22 21 17 12 8 3 3 5 9 11 12 10 9 7 6 6 6 6 6 9 8 7 6 6 6 6 7 7 9 8 3 6 2 11 9 11 26 32 30
12 13 13 14 16 17 19 22 23 21 19 15 9 5 4 8 10 12 13 12 11 10 9 8 9 5 7 6 6 5 5 4 6 6 7 7 7 4 4 8 17 15 12 13 15 19 20
11 12 12 12 14 15 18 21 23 22 20 17 12 7 6 4 11 11 14 12 11 11 10 10 11 9 8 8 5 4 4 4 3 3 9 10 10 8 5 4 5 2 2 4 8 17 13
11 13 13 12 13 14 18 20 23 23 19 17 13 10 7 6 7 13 11 11 12 15 13 9 10 12 12 10 8 5 4 4 4 6 8 12 14 17 14 7 12 10 10 7 4 4 6
12 14 14 13 14 15 17 18 20 23 20 17 16 14 10 8 11 10 10 18 11 13 15 14 10 11 9 8 6 6 6 6 9 10 8 7 8 10 13 8 10 5 7 7 6 8 8
12 14 14 15 15 15 16 17 20 22 19 17 18 16 18 8 6 7 9 10 18 14 13 12 12 8 11 9 9 7 7 6 8 8 11 10 13 5 11 6 5 5 8 7 6 5 5

GFSGBSN_700_spd_045.txt.gz
Wind_Speed
32 33 32 30 27 26 27 25 22 23 23 26 30 30 36 31 23 20 18 12 7 6 1 4 9 12 14 12 20 21 28 32 34 38 33 32 38 36 30 36 33 34 36 32 30 27 36
32 33 32 29 27 26 27 25 23 22 24 25 26 28 33 29 25 18 17 12 4 5 2 1 3 7 14 11 23 19 23 35 38 39 33 32 35 32 30 35 34 32 27 25 32 31 34
34 33 32 29 26 26 26 26 25 22 23 24 25 26 28 26 24 19 14 10 5 6 5 4 5 5 10 9 16 22 15 30 43 35 33 31 32 33 29 31 35 22 26 22 25 29 26
35 32 31 29 26 25 27 27 26 22 22 24 26 25 23 23 22 19 12 9 6 6 6 7 6 10 8 10 13 17 15 31 46 41 35 30 32 32 23 29 31 17 22 21 22 22 24
33 31 30 28 26 26 28 28 26 25 24 22 25 25 21 17 18 17 11 8 5 3 2 3 5 5 6 2 15 17 17 35 44 41 39 37 36 32 27 25 28 27 24 28 22 28 27
30 30 29 27 26 27 29 28 25 25 23 20 23 25 21 15 13 14 11 6 5 2 2 3 2 1 5 6 4 17 22 30 38 42 22 39 38 33 32 32 35 40 34 34 26 31 29
27 30 30 26 27 29 28 29 26 25 25 21 19 23 21 16 11 9 10 8 5 2 3 3 3 3 7 6 6 12 21 31 23 29 23 35 40 42 39 36 15 30 26 32 27 26 30
26 28 29 27 27 30 28 27 29 25 23 22 18 20 20 18 10 8 5 6 6 3 0 2 5 2 5 7 6 7 20 26 30 27 19 31 40 38 36 30 28 24 22 20 28 19 19
25 26 28 28 29 29 29 27 27 27 23 21 18 17 19 18 11 7 5 1 3 4 4 3 3 4 6 8 8 10 21 24 31 21 28 28 29 36 35 28 16 19 26 20 21 21 23
24 25 27 28 30 30 29 28 27 28 23 19 17 15 18 17 11 9 5 3 4 3 1 3 3 4 8 10 8 9 16 30 11 32 25 14 30 39 33 31 19 18 18 19 15 19 18
25 25 27 29 30 31 31 29 26 27 23 17 15 13 16 16 11 8 6 3 2 3 1 1 1 7 11 7 12 7 15 18 10 26 17 7 27 37 32 34 23 11 14 16 16 12 13
24 25 27 30 31 31 32 29 24 25 23 17 13 11 12 14 9 7 7 1 1 1 3 4 4 8 16 7 12 9 7 11 15 15 13 9 22 27 33 31 26 14 14 8 6 12 8
24 24 27 30 31 31 31 27 24 23 21 16 12 9 10 12 8 6 7 0 2 4 2 4 7 12 11 13 14 14 13 10 9 16 16 9 21 24 29 30 26 18 16 4 1 3 5
23 24 27 29 30 30 29 26 23 22 19 12 10 8 7 8 6 7 6 3 3 6 9 8 17 15 9 13 9 12 18 11 13 7 20 8 12 24 28 32 28 26 22 8 5 4 3
21 24 26 28 28 27 26 23 20 20 16 11 8 7 5 6 4 6 3 5 3 4 7 6 6 8 12 9 9 12 17 13 11 10 7 10 8 21 26 25 26 29 34 16 5 2 0
20 22 25 26 26 23 22 19 18 17 14 8 6 6 5 4 5 3 1 4 5 8 7 4 4 5 12 13 14 11 15 13 18 17 6 8 9 23 22 24 24 28 28 15 9 4 4
18 21 24 25 24 21 19 17 16 15 11 6 4 4 5 5 4 2 2 5 8 7 5 5 7 12 13 13 11 13 14 10 21 21 14 16 10 16 22 27 29 26 27 19 12 8 4
15 18 22 23 23 20 17 15 15 14 12 5 4 3 4 1 3 2 9 6 6 4 5 7 9 11 9 10 8 5 8 11 27 26 23 15 15 10 25 23 31 34 29 33 17 7 10
13 16 21 22 20 18 15 13 14 16 14 7 5 4 4 3 2 7 5 5 5 4 3 5 6 9 8 9 4 8 6 6 22 25 19 19 6 8 7 19 28 27 33 30 36 25 24
9 16 20 20 18 16 14 13 14 17 15 9 5 5 6 6 6 8 6 2 2 3 2 2 3 6 7 4 3 9 9 8 21 21 21 17 13 9 12 4 19 35 39 38 35 28 29
9 14 16 18 16 14 13 13 14 16 15 9 6 4 7 8 8 6 6 2 1 2 2 2 4 6 6 5 4 6 9 11 10 7 10 11 6 12 14 14 12 17 25 40 47 49 30
7 10 15 16 15 14 13 13 14 14 14 14 7 4 8 10 10 11 10 7 5 5 2 1 2 5 4 4 3 6 7 8 11 14 12 14 7 8 14 14 12 15 17 21 29 39 49
3 10 14 14 14 15 13 12 13 13 14 11 8 3 5 6 12 13 12 11 10 8 4 4 2 4 3 3 3 5 3 5 9 8 12 13 9 6 4 11 14 17 25 28 28 29 33
2 10 13 13 14 15 14 14 15 14 14 12 8 4 5 8 11 14 13 13 10 5 6 6 6 3 5 6 4 3 3 3 5 6 7 9 9 7 4 3 2 8 11 13 19 25 31
4 8 11 13 13 14 15 16 17 17 17 14 9 5 5 8 10 13 15 13 12 11 9 7 8 5 5 5 5 4 5 5 6 6 6 7 7 4 3 5 18 21 15 13 17 20 17
4 5 9 12 13 14 15 16 17 19 18 16 14 8 5 6 11 13 15 15 14 14 12 9 10 7 6 7 5 3 3 2 3 3 7 7 9 7 2 2 4 4 3 5 10 16 7
6 6 11 12 13 15 15 15 17 19 17 15 14 13 8 6 8 10 13 13 13 13 13 10 9 12 9 8 6 3 3 3 3 5 7 8 11 14 13 7 12 9 11 12 5 7 12
9 12 11 12 14 15 14 15 18 18 15 17 15 14 14 6 6 8 9 15 11 12 15 12 8 10 12 10 5 4 4 5 6 7 4 6 6 7 9 7 9 5 5 6 8 14 13
13 13 11 15 15 16 18 18 17 16 15 18 19 19 14 8 1 4 6 7 14 14 11 14 14 7 12 10 10 6 6 5 6 4 7 8 12 5 8 5 6 8 8 13 11 9 10

GFSGBSN_700_spd_048.txt.gz
Wind_Speed
33 34 32 28 26 26 25 26 26 25 24 24 25 27 28 26 27 23 19 18 10 7 4 3 5 8 11 14 18 18 22 32 36 36 30 30 35 34 30 29 28 29 27 30 28 38 36
33 35 33 30 27 25 27 28 28 27 24 23 25 26 25 22 24 20 17 14 8 7 5 3 4 6 10 13 18 21 26 30 28 37 35 28 32 30 27 20 25 26 29 25 30 28 31
33 33 33 31 29 26 28 29 28 26 26 23 23 25 23 19 20 19 14 12 8 6 5 5 11 5 7 6 5 24 20 25 34 36 37 28 26 33 23 20 26 16 23 24 28 26 25
30 30 32 31 31 28 30 30 29 26 26 22 22 23 22 18 16 18 12 10 6 3 4 6 8 7 3 7 4 11 14 21 35 34 33 25 25 30 18 19 26 19 24 30 27 30 30
31 30 31 32 30 31 31 30 30 27 27 25 21 21 22 18 14 13 12 8 7 3 1 3 5 5 2 5 8 12 11 21 35 33 33 28 29 31 23 26 24 23 20 27 23 24 25
31 30 31 31 31 32 33 31 29 29 27 26 22 19 20 19 13 11 11 9 7 6 4 3 3 3 2 3 12 14 14 19 30 34 35 27 34 36 27 30 34 31 26 30 29 28 22
30 29 30 32 32 33 35 31 29 28 28 26 22 17 18 19 14 10 8 8 7 3 3 2 0 0 1 4 8 9 15 15 31 34 35 36 26 44 37 33 12 30 33 22 20 18 24
27 28 29 32 33 34 35 34 30 28 29 26 21 16 15 18 15 10 8 6 6 6 3 1 2 3 3 4 3 5 10 16 33 36 26 27 38 39 32 29 14 22 25 22 18 12 17
28 28 29 32 33 37 37 34 31 27 27 26 20 15 13 16 15 10 8 6 3 3 4 1 2 3 3 5 5 5 10 18 26 36 24 25 32 38 31 26 23 11 18 18 23 13 19
26 27 29 32 33 38 38 34 30 26 27 25 19 14 12 15 13 11 7 7 7 7 2 3 4 4 7 7 7 7 10 20 12 17 17 19 25 36 32 20 17 17 16 14 16 22 21
25 26 28 32 34 37 38 35 29 25 25 23 16 12 11 13 12 10 9 4 3 1 1 3 3 7 9 5 10 5 11 13 16 16 10 8 28 34 31 25 14 12 16 16 11 17 17
26 25 26 31 34 37 36 32 28 24 23 21 13 10 9 11 9 10 7 2 0 2 2 4 6 9 9 10 8 12 13 18 12 15 12 14 28 28 29 27 19 12 14 14 11 8 4
24 24 25 30 32 34 33 29 27 22 21 18 11 8 7 10 8 9 7 1 2 4 5 4 6 16 9 10 12 9 10 20 12 10 14 15 29 25 30 32 22 15 17 4 2 2 4
23 22 24 28 30 30 29 26 25 22 20 15 9 7 7 9 7 7 6 5 5 9 7 4 10 13 6 12 10 12 11 8 14 11 18 6 12 24 27 29 20 18 16 5 4 3 3
22 20 22 27 28 26 26 23 23 23 19 13 7 6 6 8 8 7 5 6 4 3 4 5 13 11 12 6 6 8 10 10 14 10 5 6 5 23 20 27 25 24 22 10 4 2 1
19 17 20 25 26 24 23 21 21 22 18 11 6 5 5 8 8 6 4 4 4 6 5 5 1 4 8 10 11 8 12 14 14 10 8 7 9 15 21 24 20 16 25 12 6 2 3
17 16 19 23 23 22 21 18 18 20 17 10 5 5 5 7 6 2 4 5 7 5 4 4 6 6 9 12 9 12 10 11 16 15 9 11 6 15 19 15 22 21 25 16 13 9 4
16 14 18 20 21 21 19 16 17 17 15 10 5 4 5 4 5 2 7 5 4 3 3 6 7 6 5 9 8 7 10 7 15 11 15 10 4 12 16 16 23 27 23 30 16 6 10
15 12 17 18 20 20 18 15 15 16 14 9 4 4 5 4 2 5 6 8 6 4 3 4 4 5 6 4 2 5 7 10 11 19 15 14 5 8 7 17 22 26 29 25 29 24 28
13 12 15 17 18 19 18 15 15 16 14 9 3 3 5 4 2 7 7 6 5 6 3 4 5 4 5 2 1 4 5 4 13 21 19 15 12 6 9 4 12 27 36 37 35 28 27
13 11 12 16 17 18 18 15 14 15 14 8 5 4 6 6 7 5 6 4 5 4 5 3 5 5 4 4 2 4 4 7 17 18 21 13 9 13 12 13 15 13 17 34 42 44 35
13 11 11 14 15 15 16 15 15 14 13 10 6 5 6 8 10 8 7 5 5 5 2 3 5 4 3 3 1 6 5 6 6 8 9 12 3 6 11 15 19 18 20 22 27 33 44
13 10 9 12 13 14 14 14 15 15 14 11 7 3 4 8 13 10 10 8 7 4 3 3 3 3 4 4 5 6 4 6 6 4 9 9 8 6 5 7 11 16 26 28 30 31 31
14 9 8 9 11 12 12 13 14 15 15 11 7 3 4 7 9 11 12 10 8 5 6 5 4 3 5 6 6 5 4 4 5 6 8 9 11 10 4 3 1 6 6 9 15 18 19
14 7 6 5 8 10 12 12 12 13 14 12 9 4 3 6 9 13 13 11 12 8 5 7 7 4 4 6 5 3 5 5 7 7 6 8 8 5 4 6 16 17 6 5 10 14 13
13 7 3 3 6 10 12 11 11 13 14 13 12 8 1 4 9 11 13 13 12 9 8 8 7 6 5 6 5 3 2 2 3 3 7 8 9 8 4 3 4 2 6 9 11 7 7
15 9 5 0 5 9 11 11 11 14 16 16 13 9 6 2 6 8 12 13 11 10 9 9 7 9 7 7 5 2 1 2 2 3 6 7 9 13 12 7 10 10 11 10 3 7 18
16 11 7 3 6 10 13 12 12 14 16 19 17 12 8 4 4 5 5 9 8 9 11 9 10 9 10 8 4 4 3 4 4 6 3 5 4 6 7 6 6 8 9 7 13 15 17
19 14 10 7 9 10 12 11 12 14 17 19 17 18 14 10 8 5 3 4 9 10 10 14 12 4 8 8 9 6 6 5 5 4 5 5 8 4 7 5 8 19 16 15 18 18 19

GFSGBSN_700_spd_051.txt.gz
Wind_Speed
29 29 32 33 31 27 29 30 28 28 27 26 23 23 24 22 21 21 17 14 12 10 8 6 6 7 9 10 14 14 32 26 36 40 31 30 31 35 35 32 31 33 24 35 34 38 36
28 31 32 33 34 30 30 31 31 29 28 26 24 21 23 21 19 19 16 13 9 8 8 7 7 7 8 12 14 20 22 28 36 34 34 29 30 30 30 28 28 27 30 25 35 32 38
30 32 33 33 33 33 32 32 30 28 28 27 24 21 21 21 18 16 15 11 6 5 5 7 13 6 8 9 7 16 18 20 41 35 38 28 26 29 28 23 26 14 25 15 21 24 30
29 31 35 34 33 34 34 33 32 27 29 28 26 22 20 20 17 14 14 11 7 4 3 6 10 8 2 4 5 21 14 21 40 36 35 25 25 28 22 26 22 22 15 21 19 21 25
33 31 33 34 34 34 35 36 34 29 27 28 27 22 19 18 17 12 12 11 9 6 5 6 8 7 3 4 6 18 17 19 29 39 35 26 25 29 23 25 20 25 21 26 24 23 26
35 33 34 34 34 36 36 38 36 32 27 28 27 20 18 17 17 12 10 10 9 6 4 4 6 4 4 4 2 12 11 17 25 37 40 25 28 33 30 28 25 31 19 26 19 32 28
35 35 34 34 34 36 38 39 38 34 28 27 26 20 18 16 16 12 8 8 8 6 4 5 2 2 3 6 10 8 14 17 35 36 35 27 37 41 35 28 17 23 20 21 14 14 23
34 36 34 33 35 37 39 39 38 33 27 25 25 18 16 14 16 11 8 7 4 5 4 2 3 3 3 7 6 5 7 14 34 38 35 29 29 36 30 26 15 11 22 19 17 15 10
34 36 32 33 35 37 39 38 37 32 26 24 23 17 14 13 15 11 9 7 5 2 4 2 0 3 4 6 5 6 5 9 35 35 29 18 24 31 28 25 16 13 23 26 17 11 13
34 34 29 31 34 36 39 38 35 32 25 22 22 15 13 12 13 10 7 7 6 3 2 3 2 3 7 7 6 6 6 4 27 30 15 10 21 31 28 24 19 14 11 13 17 18 10
31 31 28 29 32 35 37 35 32 31 25 23 20 14 11 11 12 9 9 5 3 3 2 3 2 5 8 3 10 6 8 6 25 26 16 7 25 30 28 19 26 15 14 13 13 19 13
29 27 26 27 31 33 35 33 31 28 25 23 17 13 11 10 10 9 8 2 1 1 2 3 5 8 6 9 8 12 12 7 19 22 15 16 25 28 29 20 16 14 20 15 12 11 5
25 27 24 26 30 32 33 30 28 26 26 23 16 12 11 10 9 8 6 2 2 3 3 5 6 10 9 8 13 15 19 17 10 14 10 23 28 25 30 22 16 20 25 5 2 3 4
26 28 23 25 29 31 31 29 26 25 26 22 14 12 10 9 8 7 6 4 4 6 7 7 12 10 7 8 10 12 19 18 12 3 11 10 17 26 27 29 19 20 18 6 6 4 3
25 26 22 23 27 29 28 27 24 22 24 20 14 11 10 9 10 7 6 6 4 3 4 11 15 8 8 4 6 12 15 13 13 9 4 8 8 25 27 31 20 20 16 6 6 4 1
25 26 21 22 26 27 26 24 22 20 22 19 13 10 9 10 10 6 8 6 6 6 7 9 2 5 7 4 9 13 8 16 14 12 4 10 11 22 22 24 27 16 22 8 3 3 3
24 25 19 21 25 25 23 21 19 18 19 17 12 10 8 8 7 5 7 8 8 6 5 6 9 8 8 8 6 10 5 17 15 13 9 13 11 15 15 20 23 26 19 14 9 5 3
24 24 19 21 23 23 21 19 18 17 17 16 11 8 9 6 6 6 7 6 6 5 5 7 7 9 12 10 9 6 7 4 12 15 11 9 11 15 16 16 24 25 23 25 14 5 9
30 22 18 20 21 21 19 17 16 15 16 15 10 9 5 4 3 8 7 9 9 5 3 4 5 7 10 8 4 5 7 8 10 12 12 10 7 10 6 8 14 21 27 25 28 20 15
26 18 17 20 19 19 18 15 15 14 14 14 10 7 3 2 2 6 8 6 8 6 6 4 6 7 7 6 3 5 6 5 11 13 11 11 10 5 9 4 10 22 27 28 27 23 22
20 18 17 18 18 17 16 14 12 12 12 12 9 6 3 1 5 7 6 5 6 6 5 3 4 3 3 3 5 6 6 6 11 15 16 10 8 9 4 5 7 9 13 18 33 39 35
19 17 17 16 16 14 14 12 10 9 10 11 9 9 4 6 8 7 7 6 8 5 5 5 4 5 3 2 3 5 5 7 5 11 14 17 4 8 12 14 15 18 20 21 26 25 32
22 17 18 15 13 12 12 10 9 8 10 10 8 6 4 6 10 9 8 8 9 7 4 4 2 2 4 5 5 6 4 6 3 4 5 8 6 2 3 5 7 13 14 18 26 28 28
22 19 18 14 11 10 9 9 8 8 9 9 8 4 4 7 12 12 10 9 8 6 5 4 5 4 6 7 8 6 4 5 3 4 3 4 6 5 2 2 1 3 5 8 12 11 12
22 21 18 13 9 8 7 7 6 7 8 8 6 4 3 7 10 13 11 9 9 8 5 5 6 4 7 8 6 5 5 5 5 6 6 7 7 4 2 6 11 11 3 6 5 4 4
22 22 18 12 7 6 6 6 5 7 10 11 7 3 1 6 10 11 11 11 9 10 7 5 6 6 7 8 7 4 4 4 4 4 6 7 8 6 2 2 3 1 11 9 7 4 15
27 22 17 11 6 3 2 3 7 9 12 13 9 5 3 7 8 10 10 10 9 9 6 9 6 7 5 6 6 3 3 5 4 4 5 6 5 10 8 5 7 6 8 6 2 8 16
27 22 17 12 6 3 1 5 9 13 15 17 14 11 8 8 9 8 8 8 8 9 7 8 7 7 8 7 5 3 3 5 4 4 2 4 3 5 6 6 4 2 8 6 10 13 18
29 23 19 13 9 6 5 9 12 15 17 20 19 17 15 11 11 8 4 3 6 6 7 9 7 4 7 7 7 5 4 3 4 2 3 4 7 3 5 3 7 18 18 12 15 19 26

GFSGBSN_700_spd_054.txt.gz
Wind_Speed
27 29 29 31 33 33 32 32 30 29 29 27 25 23 21 19 20 18 18 16 13 8 8 8 7 10 9 9 13 11 24 29 27 43 36 36 35 30 30 26 41 47 32 37 35 31 26
27 31 32 32 35 33 34 34 34 31 28 28 25 24 21 18 19 17 16 15 13 7 6 6 9 9 11 11 13 15 16 30 25 41 37 34 34 27 25 25 29 28 25 29 29 32 27
26 33 36 35 36 35 35 35 36 33 29 29 25 24 20 18 18 17 15 14 11 9 6 6 10 12 8 11 13 18 17 18 26 42 32 28 30 27 21 23 24 20 27 22 26 24 33
27 34 40 40 38 38 38 37 38 35 30 27 25 24 21 17 16 17 13 12 11 9 8 7 9 9 4 5 11 15 16 15 27 40 31 22 29 26 22 20 25 18 20 21 24 26 26
29 31 34 42 41 40 40 40 39 36 30 28 25 23 20 16 15 16 12 11 10 9 8 9 7 8 6 4 4 13 17 16 20 39 29 22 29 27 24 20 21 22 18 23 20 25 25
28 25 36 41 45 40 42 41 40 35 29 26 23 22 19 15 14 15 11 9 9 8 5 6 5 3 4 5 6 16 15 14 34 35 34 25 30 29 23 25 28 28 23 22 17 26 27
28 30 29 42 43 40 41 41 39 33 29 25 23 22 17 15 12 15 9 7 6 5 4 4 2 2 2 2 7 9 16 13 39 35 37 29 31 37 30 24 14 18 20 17 17 21 23
33 27 34 39 44 37 40 41 38 31 28 24 22 21 16 14 12 13 8 5 2 3 4 2 2 2 2 4 4 4 10 14 26 35 34 26 27 25 24 22 15 20 20 16 12 13 16
28 26 32 40 39 35 38 40 36 30 27 24 23 19 15 13 12 11 8 4 4 1 4 1 1 2 2 6 4 3 5 8 26 35 34 25 19 27 27 26 17 16 21 19 12 12 12
25 25 32 36 34 34 36 38 35 29 27 26 23 19 14 12 12 10 7 5 2 3 2 3 1 2 3 9 8 8 2 20 29 29 27 19 24 27 25 21 17 12 16 16 12 11 9
24 28 31 31 30 32 35 37 33 27 26 26 22 18 12 11 11 9 8 3 3 7 2 1 2 3 4 5 9 7 7 10 27 37 13 7 30 28 24 22 16 10 13 14 14 14 9
25 24 30 28 29 31 34 36 30 26 25 25 21 15 12 10 10 8 7 4 6 3 3 1 2 5 4 5 5 14 11 11 24 26 14 18 23 25 24 24 21 15 15 12 10 10 8
21 26 29 28 27 30 32 34 28 23 23 23 19 14 12 10 9 7 4 4 4 4 3 3 5 5 6 7 11 11 14 19 18 21 11 17 25 22 26 22 24 17 20 7 6 6 5
21 26 26 27 26 28 30 31 26 21 21 21 18 13 12 9 8 4 3 6 4 7 2 6 10 9 6 4 12 15 11 12 21 14 18 11 12 25 28 19 17 23 21 5 6 5 5
24 26 24 25 25 26 28 29 23 19 19 20 16 12 12 11 9 5 7 7 4 3 9 9 11 6 7 5 10 9 9 8 7 14 6 9 8 17 29 20 20 21 15 6 5 3 3
27 27 25 26 25 25 27 27 21 17 16 17 15 11 10 10 7 8 10 9 7 7 5 10 4 5 5 7 9 9 5 12 9 6 10 13 12 16 25 23 19 17 14 6 2 4 4
26 28 25 24 24 24 25 24 19 15 14 15 12 9 11 8 8 8 11 11 9 8 7 3 6 6 6 7 8 5 4 15 13 12 7 14 11 18 23 18 21 16 15 11 5 2 2
30 26 24 25 23 23 23 22 17 13 13 13 10 6 9 5 6 10 10 9 8 7 8 8 5 9 7 8 11 4 7 8 15 12 15 7 9 14 15 18 19 22 15 18 13 6 6
28 27 21 23 21 21 21 19 16 12 11 11 9 7 3 1 7 11 11 11 8 6 4 6 7 10 10 7 5 7 8 10 15 13 10 9 10 11 7 13 19 23 27 25 20 17 10
26 23 22 22 19 20 20 16 13 11 10 9 7 4 3 2 9 11 10 8 10 8 8 6 10 10 9 7 7 7 9 10 14 14 11 8 14 8 9 6 12 20 25 28 25 17 24
28 24 20 20 17 19 18 15 11 9 9 7 5 2 3 2 9 11 9 10 9 9 7 8 7 5 6 3 7 8 7 8 11 14 13 9 8 7 8 7 8 6 16 24 29 30 25
28 24 21 17 17 17 17 14 9 8 8 7 5 5 3 6 10 11 10 9 9 7 7 7 7 9 6 7 5 9 7 10 7 13 15 12 5 10 10 10 11 13 15 18 20 24 28
25 30 22 20 18 16 15 12 8 7 7 6 4 5 5 8 12 12 10 10 10 7 6 6 7 5 6 7 8 9 7 6 4 5 8 10 10 4 3 5 6 10 12 14 18 22 23
31 28 26 23 18 15 14 11 6 5 5 4 3 3 6 9 13 14 12 10 11 10 6 6 6 6 5 8 10 8 7 8 7 6 7 6 8 5 3 2 3 2 3 5 8 8 6
33 29 23 22 18 14 13 9 6 4 4 2 2 4 7 10 12 14 12 12 10 9 8 7 7 6 9 8 7 6 6 5 5 5 5 6 6 4 3 6 6 1 2 3 3 4 3
28 33 29 23 18 14 11 6 3 2 2 2 4 5 8 10 13 15 15 12 10 11 9 7 8 6 8 9 6 3 2 3 4 4 6 5 7 5 1 2 1 1 7 6 4 9 5
31 30 30 25 17 15 10 5 4 4 5 6 7 7 9 9 13 14 14 13 12 10 9 7 8 9 9 10 9 5 4 6 3 4 5 4 4 6 6 4 4 3 2 3 3 4 10
31 27 28 23 19 15 9 8 8 9 11 11 11 12 11 9 12 12 11 12 10 10 9 8 9 10 10 11 9 8 7 9 6 6 4 5 3 3 4 5 6 8 4 6 10 17 20
34 29 30 25 19 15 12 12 13 13 15 16 16 18 16 10 15 12 9 8 8 10 10 10 7 10 11 11 9 7 6 8 8 4 7 4 7 2 5 3 6 10 20 21 21 24 23

GFSGBSN_700_spd_057.txt.gz
Wind_Speed
25 27 28 33 37 42 44 41 39 37 36 30 26 23 22 22 18 19 17 16 16 14 12 9 8 10 10 8 10 13 13 19 28 35 35 34 32 30 32 42 39 34 30 30 28 23 21
28 32 32 33 36 43 48 47 46 40 38 32 27 23 22 20 18 17 16 15 14 14 12 9 9 11 7 7 20 15 16 18 25 34 33 35 34 25 26 22 43 29 27 32 26 26 26
32 34 32 33 41 44 48 51 49 42 39 32 26 22 21 20 17 16 16 14 13 13 11 11 10 11 7 10 14 16 17 17 21 31 29 39 31 28 22 23 20 36 30 25 35 22 26
27 33 31 34 34 41 52 54 49 42 38 31 26 22 21 19 15 14 15 12 11 12 11 10 11 11 8 7 14 15 19 17 20 28 35 39 36 34 19 19 22 20 26 29 34 28 23
24 27 32 35 36 40 47 54 45 42 36 30 26 22 21 17 13 13 14 10 9 10 9 8 8 8 6 10 10 13 16 15 12 27 41 36 37 24 27 27 24 21 20 21 14 20 20
24 31 32 31 34 39 45 51 43 41 35 29 25 22 21 15 12 12 12 8 6 8 6 7 4 4 9 11 10 5 14 15 19 23 43 14 30 29 25 31 31 28 23 18 15 21 22
29 32 33 32 30 35 46 48 41 39 33 28 25 22 18 13 11 12 10 5 5 4 5 3 3 3 6 5 4 6 13 14 22 25 23 19 31 32 31 28 19 25 24 17 17 16 25
29 23 27 30 28 35 45 40 39 37 31 26 24 21 15 12 10 11 8 5 2 2 4 3 3 3 3 3 5 3 14 14 29 27 16 17 26 23 22 21 13 20 24 15 12 10 19
30 26 26 26 29 37 36 38 37 35 29 26 24 19 13 12 9 10 8 3 1 3 2 4 3 4 3 5 4 5 2 13 34 21 20 18 15 21 22 20 17 17 23 20 14 12 11
29 27 27 30 31 34 37 35 35 34 27 25 22 16 13 11 9 8 6 2 0 4 3 3 5 5 5 6 5 7 2 28 24 23 20 23 12 24 24 19 18 19 18 16 12 14 11
35 34 26 27 28 32 34 33 34 32 26 24 20 15 13 10 8 7 7 2 4 5 2 3 3 8 5 6 5 10 5 17 23 23 18 15 19 24 23 20 16 12 19 14 14 15 10
37 27 23 25 30 31 32 31 32 28 24 22 19 14 12 9 8 6 4 5 6 0 2 3 4 7 6 4 6 8 5 20 16 17 14 17 26 20 20 18 11 12 16 12 11 12 11
35 31 25 23 29 28 30 29 29 26 22 20 18 14 11 8 7 5 3 4 3 3 1 2 4 7 4 5 11 12 12 20 12 20 4 22 25 19 27 22 19 17 22 8 5 4 4
35 29 24 25 26 27 30 27 27 24 21 18 17 13 10 8 6 4 5 8 2 3 1 4 7 9 4 4 5 8 11 14 16 14 13 5 5 21 25 19 14 18 20 6 5 6 11
38 32 28 25 22 28 29 26 26 23 19 17 15 12 10 8 6 7 8 6 1 0 4 7 7 5 4 3 8 5 5 12 10 14 7 4 4 21 25 19 14 18 20 5 2 4 1
37 34 29 23 26 26 28 25 24 21 17 14 13 10 10 7 7 9 10 6 4 4 8 8 1 4 5 7 5 4 2 10 15 18 10 6 7 14 22 21 13 15 14 6 0 4 4
38 35 29 28 26 25 26 24 22 19 16 12 9 8 8 6 7 9 10 9 7 6 6 4 5 5 7 7 7 3 2 6 11 13 15 9 8 8 25 11 15 13 11 5 3 1 3
38 37 25 23 28 25 24 22 20 19 14 10 8 5 4 5 8 11 12 9 10 7 8 6 4 7 4 6 5 2 6 7 10 7 11 7 6 12 14 14 15 15 14 15 9 5 6
39 37 31 25 23 23 24 20 17 18 13 8 6 5 1 6 8 8 9 9 8 6 4 5 5 5 10 6 3 5 5 10 15 12 6 8 7 10 6 11 15 14 18 12 14 12 6
40 28 29 29 24 23 21 18 16 16 12 6 4 3 3 7 11 15 10 7 8 7 6 6 8 8 7 3 4 7 6 13 15 13 9 6 9 5 5 4 10 17 20 18 18 11 16
37 30 34 24 26 24 18 15 15 13 11 7 4 5 2 8 14 15 12 11 8 6 6 6 4 4 3 1 4 5 9 12 14 12 10 6 6 6 2 2 8 6 13 20 21 27 19
37 35 27 22 23 21 17 16 14 12 12 8 8 7 7 10 15 15 12 11 8 8 10 4 4 4 4 4 5 4 4 7 7 13 13 10 4 8 5 5 5 7 7 9 16 18 19
35 33 37 27 20 19 18 16 13 12 11 8 8 9 8 11 16 12 12 14 12 10 7 9 10 4 6 5 4 6 6 9 4 5 11 11 8 5 3 7 7 9 11 13 13 12 12
48 34 40 27 25 22 20 16 12 11 10 8 8 10 12 14 16 15 15 15 14 11 10 9 8 7 5 6 7 6 6 4 6 6 7 8 10 6 1 2 3 2 4 3 5 5 3
48 34 40 26 23 23 21 15 12 10 9 9 9 11 14 15 18 18 17 15 14 12 9 8 8 8 8 10 7 4 2 2 3 5 6 8 4 2 3 6 3 2 1 1 2 4 7
45 32 35 31 24 26 21 14 13 10 9 9 9 12 13 13 21 20 18 17 16 15 11 9 9 8 11 10 4 3 3 2 2 2 6 6 6 5 1 3 3 4 5 6 6 11 14
35 35 34 30 31 23 19 14 12 10 8 8 10 12 13 14 18 21 21 19 16 16 11 9 10 10 10 7 5 4 2 5 3 5 4 3 4 9 9 6 5 10 9 5 5 6 12
38 33 31 27 33 25 20 15 13 11 10 11 13 13 14 12 18 18 16 17 16 14 12 9 9 11 10 8 5 4 2 6 4 6 6 6 5 5 6 5 8 9 10 8 10 16 19
30 37 34 32 31 26 17 16 14 14 13 14 15 16 18 14 18 17 13 15 14 13 12 12 11 10 11 11 10 7 7 7 7 5 11 6 11 7 7 6 9 10 14 18 23 27 30

GFSGBSN_700_spd_060.txt.gz
Wind_Speed
26 28 32 36 36 39 39 41 48 52 50 44 37 31 25 22 22 20 17 18 18 16 14 12 10 10 12 9 10 13 11 10 22 24 23 32 31 32 29 46 34 27 34 22 19 30 22
28 26 27 32 36 38 42 44 49 52 51 43 37 31 25 22 22 18 15 17 18 14 14 11 11 11 12 7 14 18 12 11 16 26 27 31 32 27 29 22 42 36 25 29 23 15 24
30 23 24 28 33 35 40 40 46 51 50 42 35 29 25 23 22 17 13 16 16 13 12 10 10 12 12 10 12 18 13 13 11 20 26 33 33 29 20 25 29 33 34 33 26 25 20
30 26 27 32 35 32 38 41 43 52 47 42 33 28 25 23 20 14 12 15 13 11 11 9 9 10 10 9 10 14 14 13 11 17 29 34 28 33 26 27 21 21 32 26 15 23 29
27 30 28 31 35 35 33 40 44 51 46 41 31 28 25 23 17 13 13 13 10 10 8 6 7 7 3 14 10 13 12 12 11 12 30 37 32 35 26 29 20 17 25 30 16 30 12
33 31 28 34 32 32 32 36 39 46 42 39 30 27 24 21 15 11 13 10 8 7 6 6 4 5 6 14 15 3 10 12 12 11 20 43 14 39 29 26 28 20 18 26 20 16 27
31 29 28 34 29 30 33 32 44 41 38 35 29 26 22 18 13 11 11 8 5 3 6 3 5 6 10 13 6 4 9 13 11 16 20 38 25 40 36 35 25 20 20 18 16 14 23
31 30 32 32 31 30 29 36 39 41 37 33 28 25 19 15 11 11 9 7 2 2 7 5 5 5 8 7 7 2 10 10 17 18 17 17 26 31 29 29 23 20 18 19 20 16 18
35 30 32 31 29 27 29 36 38 37 36 31 26 22 17 13 9 9 9 3 2 2 3 7 6 7 6 7 10 5 4 10 17 19 17 16 25 19 24 25 19 22 29 24 21 15 13
35 35 32 35 32 29 28 34 37 34 33 28 24 20 15 12 9 8 6 2 1 3 2 6 9 4 4 7 7 8 2 13 20 16 10 8 30 22 21 19 16 16 25 22 16 16 7
36 36 32 36 35 27 23 34 34 32 31 26 21 18 14 10 8 7 4 1 3 5 1 6 4 4 8 10 7 7 6 24 18 15 8 7 18 23 20 18 13 12 9 18 15 11 9
40 36 33 33 31 26 24 32 32 30 29 23 19 16 12 9 7 5 2 5 5 0 3 4 3 5 9 6 7 10 14 14 11 12 7 7 27 19 19 16 11 17 18 12 10 5 3
44 38 38 32 34 23 28 27 30 30 26 21 16 14 10 7 6 2 4 4 2 4 3 2 2 7 5 5 10 9 12 17 7 9 7 7 16 19 21 13 12 15 18 5 3 0 2
43 44 39 30 34 25 29 23 29 29 23 18 14 13 9 6 4 3 7 8 3 3 3 8 5 8 4 5 7 7 9 10 11 1 10 6 6 15 20 13 15 20 15 5 4 4 4
42 44 38 34 37 28 25 22 28 27 21 16 12 9 7 4 1 5 8 6 1 2 8 8 7 5 5 5 6 6 9 8 8 6 4 7 6 16 16 19 17 20 16 3 2 2 7
50 36 40 34 36 29 19 29 27 24 18 14 10 6 4 2 4 6 8 4 2 6 11 7 3 3 3 6 4 4 3 10 7 11 7 8 8 18 18 18 18 10 9 5 2 2 2
46 35 43 33 37 28 31 26 24 21 16 11 8 4 2 1 6 7 6 5 4 8 8 7 7 6 7 5 4 3 3 9 9 12 7 12 5 12 15 11 15 14 14 6 4 0 0
50 31 44 34 35 28 25 25 22 19 14 10 6 4 1 4 9 8 9 9 8 8 11 9 11 9 5 4 5 3 5 6 9 10 9 6 6 9 17 9 16 17 10 10 5 3 1
56 35 39 34 38 29 25 25 20 18 12 8 6 3 4 6 9 6 8 8 8 4 2 7 8 11 11 6 2 6 3 8 10 16 10 8 4 7 6 8 11 14 14 16 14 10 5
53 37 41 32 35 24 27 22 20 15 10 8 6 5 7 10 13 12 8 5 6 8 8 9 9 11 8 3 3 5 5 10 13 10 10 6 9 1 4 2 9 23 21 17 13 6 11
37 33 38 32 31 35 26 23 18 14 10 9 7 6 6 11 16 18 13 9 7 6 7 10 7 7 5 4 6 6 5 11 13 9 9 7 7 6 4 4 7 7 13 20 22 25 11
32 39 33 36 39 24 26 22 17 13 11 10 11 8 9 14 16 16 13 13 10 9 10 5 6 6 7 7 5 6 6 6 5 11 9 7 6 7 4 4 3 4 8 11 17 19 17
33 34 35 35 37 27 26 16 14 12 11 10 9 9 10 13 18 16 14 15 14 12 10 11 11 5 5 4 4 4 6 8 6 5 9 6 5 4 2 5 8 8 11 14 13 16 15
31 31 31 39 30 23 23 17 14 12 11 10 12 12 14 16 21 18 17 15 15 14 11 11 11 7 6 5 7 7 7 4 4 5 8 8 7 7 1 2 1 3 4 5 13 14 13
30 33 34 37 25 29 27 19 14 13 12 12 13 14 16 15 21 19 18 19 17 15 11 10 9 7 8 9 10 6 5 3 0 4 7 7 5 3 4 7 3 4 6 8 9 10 11
31 51 41 28 27 27 30 16 14 14 12 14 12 15 18 20 24 20 20 18 17 16 12 10 9 9 10 10 6 4 4 3 4 2 4 7 9 5 1 3 2 10 6 6 7 11 13
41 30 29 17 31 26 25 15 15 14 14 14 15 18 17 17 17 22 24 24 21 17 13 12 11 10 13 10 6 3 2 3 2 3 3 5 4 8 7 5 4 5 9 6 6 4 5
36 24 36 17 30 30 29 20 17 15 15 15 15 18 17 16 19 22 19 22 18 18 14 13 12 12 12 8 6 4 3 5 3 3 3 3 1 3 5 4 5 7 8 8 8 11 15
40 41 27 26 31 27 32 20 17 16 15 17 17 17 19 18 18 20 19 19 18 17 15 14 12 13 12 10 8 6 5 4 6 2 9 7 9 5 4 5 7 8 10 13 19 22 25

GFSGBSN_700_spd_063.txt.gz
Wind_Speed
27 28 32 28 30 31 35 34 40 43 47 51 54 43 35 28 24 23 21 16 17 17 15 14 13 12 11 11 14 13 10 9 11 16 20 29 35 27 28 43 40 34 25 35 30 26 27
25 27 29 25 30 30 34 37 36 39 44 48 51 40 34 28 25 23 19 15 17 15 13 13 12 12 12 14 13 14 10 12 9 14 29 28 32 29 27 36 37 32 31 19 40 38 33
28 29 27 27 28 32 32 34 37 37 45 47 48 39 33 28 25 21 17 15 16 13 11 11 11 12 12 11 10 15 11 10 11 11 18 33 30 33 26 23 40 24 22 31 30 28 34
28 29 28 25 28 30 31 32 36 37 41 47 44 36 31 28 24 19 15 15 14 11 10 10 9 10 9 5 9 13 13 9 11 10 16 32 30 33 22 25 29 31 18 24 33 30 18
30 30 29 28 24 28 33 34 35 33 40 44 42 34 30 26 21 16 13 14 11 8 8 7 8 7 6 10 11 15 17 10 10 10 18 36 35 20 27 26 27 24 12 21 17 22 14
31 31 29 29 28 25 31 34 33 32 42 43 39 33 29 23 17 14 13 12 10 6 6 6 4 6 8 12 12 10 5 8 10 9 12 37 29 19 27 28 19 27 32 28 24 22 14
35 33 31 29 30 30 28 32 30 33 38 40 35 30 26 20 14 12 12 10 7 4 5 4 7 8 9 10 7 5 4 10 12 9 13 36 24 24 36 33 23 22 22 27 23 23 23
38 38 34 30 30 31 26 30 34 35 37 38 32 28 23 17 13 11 10 8 6 2 6 6 6 6 5 8 8 4 10 9 11 14 10 32 33 19 23 26 17 15 12 14 10 13 16
43 39 38 32 29 32 31 27 33 33 35 36 30 25 19 14 11 11 8 5 4 0 6 7 7 6 6 8 7 7 5 6 8 12 12 29 34 12 29 23 19 13 18 18 19 19 17
43 43 36 37 30 32 32 26 30 29 32 32 27 21 17 12 10 9 7 3 1 2 0 6 8 8 10 10 8 7 3 5 10 14 19 17 21 26 31 26 25 16 19 17 19 22 8
53 47 40 35 33 32 29 20 30 30 27 30 24 19 14 9 8 7 4 0 3 3 2 6 7 6 10 10 6 8 15 12 15 12 8 10 27 19 27 31 25 17 27 19 20 9 11
56 55 42 36 37 33 29 21 31 27 26 30 22 16 12 8 6 6 1 5 5 1 2 3 6 8 8 9 13 14 25 20 12 11 10 24 25 18 19 19 12 19 26 22 18 18 3
61 56 52 37 37 36 31 24 23 28 25 28 20 14 10 6 5 3 3 5 3 3 1 3 7 10 11 13 15 17 16 13 11 5 9 16 19 23 21 18 22 26 26 5 3 2 3
44 32 43 40 35 37 30 25 24 24 21 24 17 12 9 4 3 2 5 8 4 1 2 11 8 10 8 9 12 11 13 14 10 8 11 6 12 20 21 15 16 24 8 4 4 3 3
27 27 33 50 33 37 33 32 26 19 16 19 15 10 6 2 2 4 7 6 4 5 13 12 8 8 7 10 11 8 14 10 8 8 6 6 9 16 18 14 19 18 7 6 6 5 4
22 27 30 56 32 33 35 25 31 30 16 16 12 9 4 1 4 7 6 6 2 11 13 5 2 3 3 10 8 5 5 7 9 8 11 10 11 18 15 16 15 8 7 5 2 3 3
23 29 32 52 36 29 34 26 29 29 13 15 10 8 5 5 7 8 7 6 7 12 9 8 7 10 8 8 9 6 4 9 11 11 12 12 7 11 18 9 9 8 8 4 3 1 3
27 19 39 54 33 29 34 29 28 29 12 14 9 8 8 8 11 9 13 10 9 9 8 12 13 13 9 7 6 5 6 5 11 11 9 4 8 11 10 8 15 12 12 6 1 1 3
31 18 30 36 25 39 35 26 34 22 14 12 10 10 11 12 11 14 13 14 10 11 9 14 11 15 11 8 6 5 5 10 9 13 10 9 6 8 4 6 14 18 16 16 10 5 3
25 19 28 32 27 35 34 24 33 28 11 14 12 12 15 16 14 16 16 13 12 8 11 9 14 15 9 5 4 8 9 9 9 9 11 9 10 5 8 4 11 19 20 20 18 11 8
27 22 22 41 27 28 33 28 29 23 13 15 15 12 12 18 20 19 16 10 13 14 13 16 13 14 11 7 8 8 7 10 13 11 10 8 9 7 6 6 9 12 21 21 21 23 17
31 24 17 35 27 25 29 27 32 29 16 16 16 12 14 14 18 20 18 17 14 13 17 11 8 12 10 11 5 8 11 11 10 13 9 7 8 7 7 5 6 8 11 17 26 24 24
31 24 21 30 37 33 26 22 23 28 19 14 15 13 14 18 23 21 21 20 16 13 12 13 11 10 8 7 5 6 9 8 8 12 12 11 7 9 4 5 5 8 12 13 15 16 20
23 29 21 32 29 27 25 30 30 21 18 13 14 14 16 19 20 21 20 18 16 18 15 17 12 11 11 11 10 10 9 5 4 6 10 9 9 8 4 4 0 3 4 8 17 17 17
24 26 32 32 20 25 24 27 20 20 18 17 17 17 17 17 22 22 18 18 18 16 12 14 10 8 12 14 16 10 8 6 5 5 6 7 9 5 3 4 2 5 6 9 12 14 17
22 22 25 29 36 27 22 27 20 20 18 20 19 20 19 19 28 24 21 18 20 18 15 14 12 12 14 12 8 5 4 4 4 6 6 6 6 5 6 3 3 3 5 7 9 11 13
22 28 18 33 27 21 14 25 29 20 20 21 20 23 22 21 22 24 23 24 22 20 17 15 14 15 15 13 9 6 5 6 6 5 7 9 8 10 8 3 1 5 8 7 8 7 7
12 16 20 24 23 14 17 31 23 21 21 21 21 22 24 20 16 22 21 23 21 21 20 19 17 15 18 14 9 6 6 7 7 6 6 5 5 5 6 4 5 4 6 6 8 9 12
18 22 26 28 25 18 25 27 22 20 21 21 20 21 23 23 15 22 22 21 18 16 16 17 13 18 15 12 9 7 7 8 9 7 9 7 7 5 5 6 6 8 9 11 14 17 22

GFSGBSN_700_spd_066.txt.gz
Wind_Speed
22 24 25 26 27 29 28 27 30 34 36 39 39 45 45 39 33 29 24 18 15 16 18 17 16 15 15 15 16 18 15 15 10 15 13 30 34 21 29 35 40 38 43 37 29 27 33
25 24 25 25 25 28 29 29 32 28 36 38 40 46 44 37 32 28 22 15 14 15 16 16 15 14 13 14 15 14 8 13 10 13 14 29 30 27 27 24 51 28 29 45 25 26 31
24 25 26 26 25 26 29 29 28 31 34 38 39 47 43 36 31 26 19 15 13 15 14 14 14 12 13 10 12 13 9 10 9 10 13 27 17 28 21 17 33 13 27 29 43 26 33
31 28 26 27 27 26 28 30 31 32 31 32 39 44 42 35 29 23 16 14 14 12 12 12 11 11 9 7 9 10 12 11 9 10 12 22 28 30 20 16 29 20 25 22 24 32 27
34 33 32 28 27 26 25 28 32 31 28 30 38 43 40 32 26 19 15 13 12 10 9 10 9 9 6 8 10 12 15 13 8 9 12 14 30 30 19 22 24 28 25 34 17 32 19
41 40 35 35 29 29 26 28 30 29 27 28 38 40 37 30 23 17 14 12 9 7 7 7 6 7 9 10 10 9 4 7 10 9 8 7 27 31 25 24 22 30 21 25 21 23 18
42 43 44 37 32 33 28 30 29 28 30 28 31 37 35 28 21 16 13 10 6 6 6 5 7 7 11 12 10 4 3 9 11 9 9 12 22 30 38 26 23 24 25 25 12 11 13
42 46 49 46 34 35 30 30 30 28 28 30 31 34 32 26 18 14 11 8 4 3 4 6 7 10 10 14 7 3 7 8 12 10 11 18 20 32 19 20 18 16 19 14 10 8 10
44 49 51 50 46 31 34 30 32 27 26 29 25 33 29 23 16 12 9 6 3 2 3 7 7 8 11 11 6 4 7 5 8 9 11 21 23 19 14 19 20 13 15 18 27 24 10
39 45 49 53 50 35 33 33 32 28 27 25 25 33 28 20 13 10 7 4 1 1 2 6 7 9 12 10 5 5 3 3 6 11 11 8 23 12 8 25 20 20 17 18 22 24 17
49 47 51 55 54 44 33 35 32 28 25 26 26 25 29 18 12 8 4 2 2 3 3 4 6 6 10 8 6 4 9 8 9 15 9 8 25 23 24 26 21 13 18 14 18 18 10
50 44 46 58 62 46 40 33 32 27 27 28 22 22 28 15 10 6 3 4 3 2 2 2 3 6 10 12 9 15 17 21 15 11 13 15 25 20 21 22 17 14 18 14 17 11 3
42 40 43 40 38 44 49 32 32 30 29 27 20 20 22 12 8 5 5 6 3 2 5 4 6 8 10 12 22 19 16 12 5 8 19 19 16 14 25 25 20 19 27 4 2 1 2
40 46 31 37 21 33 45 45 31 34 29 24 18 19 15 9 6 8 8 6 2 4 7 11 8 7 8 12 10 15 15 17 8 19 20 6 8 9 27 19 15 29 18 7 4 5 5
41 41 28 19 19 22 45 38 28 32 27 19 15 15 10 6 8 11 10 4 4 10 16 12 9 5 8 11 9 10 11 13 10 7 4 10 7 19 16 15 27 11 10 6 10 4 5
35 49 30 30 23 26 45 42 27 32 29 26 17 12 8 5 11 14 10 5 8 14 16 10 4 6 9 10 7 6 4 11 10 10 8 11 12 17 16 20 9 10 10 5 4 3 3
31 39 46 39 26 24 46 35 28 28 28 25 18 13 9 11 14 15 8 7 12 19 13 10 7 10 11 10 9 5 5 11 10 12 15 13 10 11 16 7 11 12 7 4 5 2 3
30 31 41 33 21 20 17 26 30 28 28 23 14 13 13 14 18 13 12 12 13 16 12 10 12 15 10 10 8 7 8 8 13 11 10 8 10 10 9 7 10 10 9 6 2 3 3
30 27 35 27 16 17 16 34 30 28 22 21 20 16 15 19 17 16 19 14 12 13 14 16 10 10 12 10 8 8 11 15 15 12 7 10 9 9 3 8 14 14 15 13 7 5 3
31 25 30 26 21 27 25 36 37 28 26 27 19 17 20 22 17 22 22 19 16 13 12 17 16 13 9 4 9 12 16 11 12 10 8 7 13 6 10 4 10 20 20 18 17 7 7
31 24 27 24 20 23 45 25 33 21 25 26 21 16 14 24 24 24 24 20 18 19 15 16 15 14 13 6 12 13 10 14 13 14 11 7 8 8 6 2 6 10 15 18 19 20 11
31 26 24 25 13 18 17 23 32 30 25 31 26 13 17 12 22 27 21 18 19 18 23 17 17 16 12 10 2 12 12 16 9 14 11 9 11 10 7 5 6 6 10 18 19 20 21
31 24 23 26 13 23 25 29 31 29 16 13 20 18 15 22 30 29 22 22 20 19 18 15 13 11 10 8 8 8 12 12 10 13 11 7 9 8 5 3 3 4 8 11 13 21 25
29 18 20 26 19 22 23 29 29 32 20 17 17 17 17 27 29 24 26 22 19 20 17 15 15 12 12 11 10 11 11 7 6 9 10 7 7 5 2 1 2 2 3 9 14 14 15
24 12 19 17 19 3 16 29 26 20 19 22 22 19 17 23 24 24 26 24 21 18 16 15 12 12 15 14 15 11 10 9 7 5 8 11 8 4 3 5 3 6 7 7 8 13 17
22 9 18 11 14 21 19 23 30 21 22 26 25 21 19 19 30 25 24 20 20 22 20 17 13 15 18 19 10 6 5 5 6 8 9 10 10 7 9 4 7 6 9 9 9 15 16
16 7 15 17 19 22 25 26 28 21 29 28 25 23 20 19 30 27 25 24 21 21 21 20 18 19 19 15 9 7 5 8 7 9 11 11 10 10 9 6 6 11 9 8 8 7 10
11 2 7 17 19 27 24 29 26 29 29 30 25 26 23 20 27 28 23 21 21 22 20 20 20 21 20 14 10 6 7 10 8 8 10 12 11 11 12 7 8 12 13 12 9 10 11
8 7 11 16 17 26 22 23 27 27 28 29 26 27 25 22 20 27 22 20 20 20 20 17 15 19 15 16 10 7 8 10 10 8 12 10 9 8 10 8 7 7 9 10 12 14 15

GFSGBSN_700_spd_069.txt.gz
Wind_Speed
28 24 23 24 23 24 25 26 28 31 29 30 30 36 36 41 45 40 34 27 22 18 16 19 18 17 17 17 16 19 20 20 19 20 14 19 24 23 37 43 33 39 45 35 35 39 37
35 34 32 29 26 26 26 26 26 29 30 32 35 35 39 41 43 38 33 25 20 17 17 18 16 14 16 15 16 15 14 12 14 18 15 15 28 18 35 25 36 51 25 37 32 40 32
38 39 39 36 33 29 27 28 27 28 30 32 32 29 35 39 35 39 32 24 18 16 17 15 13 13 14 11 13 13 12 11 12 14 12 13 32 14 23 17 33 43 32 40 37 36 26
40 42 41 42 41 35 28 30 28 27 29 30 31 31 33 37 36 33 30 21 16 16 14 12 11 12 11 10 10 13 14 12 11 11 11 11 25 29 12 12 23 31 36 30 36 41 15
41 42 44 43 43 42 38 31 32 30 30 29 33 30 35 35 34 34 27 19 17 14 11 10 9 10 9 9 12 14 14 15 11 9 10 14 30 22 16 19 17 30 17 25 21 39 12
43 44 45 46 46 46 44 39 27 30 31 32 34 29 32 32 34 31 26 18 14 11 8 8 8 9 11 14 14 14 12 6 11 9 11 7 33 23 10 17 9 28 29 16 22 30 33
44 48 48 48 49 49 47 42 33 34 29 32 34 32 29 31 31 21 26 16 11 9 6 7 9 8 14 15 16 7 4 6 9 7 8 3 18 27 23 19 9 16 17 16 17 10 11
46 47 47 49 48 47 47 43 40 34 30 32 33 32 30 25 28 17 21 13 8 6 3 8 9 10 13 14 2 3 3 5 10 5 4 4 12 26 26 14 13 13 21 6 12 15 6
44 43 44 45 48 50 48 44 40 36 31 31 31 30 32 21 26 13 17 10 7 5 3 7 7 7 10 10 5 4 4 5 8 6 6 6 9 19 23 19 13 16 24 22 14 11 4
41 41 42 45 44 51 55 52 41 39 36 35 28 33 30 20 20 12 13 8 6 4 3 4 6 7 11 8 2 1 4 1 9 8 9 7 7 22 17 9 27 22 12 10 13 11 7
41 45 46 50 53 49 43 57 43 41 34 31 29 34 27 18 15 8 11 6 6 4 3 3 5 7 11 7 5 1 6 3 5 12 7 4 13 20 15 7 10 20 16 11 10 17 15
40 43 45 43 42 44 42 53 38 43 41 29 32 33 29 13 12 4 9 7 7 2 3 1 3 5 9 6 4 13 12 12 12 9 10 9 15 12 14 13 16 21 16 18 19 15 4
38 39 43 41 39 40 34 36 32 32 38 28 35 30 22 14 9 4 8 10 4 3 4 5 3 4 13 17 15 13 12 7 5 11 11 9 13 11 14 11 13 21 15 4 4 1 2
39 38 40 39 39 47 33 23 33 21 28 30 35 29 21 12 9 7 9 12 5 6 7 9 6 6 9 11 11 11 12 11 7 12 16 7 6 11 19 16 10 15 10 5 4 2 2
37 38 39 37 42 51 39 20 18 24 36 28 34 27 15 12 8 13 13 10 2 11 14 12 8 7 6 5 7 5 14 12 14 9 5 5 7 20 20 20 14 20 7 5 8 6 3
37 39 37 35 32 46 41 18 35 18 20 27 32 23 13 11 10 16 16 7 8 12 17 15 4 6 8 10 4 3 5 10 9 10 10 15 14 19 26 18 11 12 15 5 2 3 3
37 37 33 32 33 39 26 11 25 24 24 27 30 16 14 13 16 17 15 7 14 18 19 10 8 10 10 6 5 4 4 10 9 12 17 13 8 12 22 11 17 15 8 4 6 3 3
35 34 33 30 29 33 14 5 24 15 21 31 29 14 16 17 20 19 14 11 15 21 15 9 13 13 8 6 4 4 9 7 13 11 11 9 14 11 12 12 13 13 8 5 2 4 4
33 33 31 27 25 24 21 3 17 31 12 31 25 17 21 20 22 22 16 13 16 22 14 15 12 11 11 7 2 7 9 15 11 7 6 9 11 10 4 6 11 11 11 8 3 6 6
32 33 29 22 21 19 21 13 28 26 26 32 25 16 24 23 20 20 19 16 20 15 15 18 14 13 11 5 4 8 12 13 9 6 7 6 12 5 7 3 6 11 12 10 7 3 4
32 30 27 19 20 16 20 13 19 21 26 29 18 11 15 17 25 22 23 18 18 19 15 17 15 13 12 7 7 14 9 12 11 7 5 5 8 6 7 3 4 5 12 14 13 12 6
28 26 24 17 21 20 9 17 19 19 20 25 16 6 15 10 24 26 27 23 20 20 21 20 17 14 10 12 3 16 13 14 10 12 9 7 10 10 8 5 4 2 9 11 13 12 14
27 25 21 14 23 16 15 18 32 26 22 27 16 11 13 15 28 28 30 25 21 20 19 17 17 13 9 7 7 10 13 14 9 13 11 7 11 9 4 3 1 2 7 10 14 18 18
24 23 18 14 20 14 12 26 22 25 22 29 14 12 12 24 28 27 22 20 19 19 19 18 16 11 11 9 10 14 12 9 10 11 8 6 7 7 4 5 0 4 6 10 14 14 15
23 20 15 13 13 5 7 19 20 23 27 24 19 15 14 24 27 26 21 22 19 20 13 14 15 12 12 10 13 10 8 7 7 9 10 9 9 4 3 5 4 6 9 9 11 14 16
20 17 10 11 6 2 8 8 18 21 28 31 21 16 13 26 32 24 25 24 22 20 16 15 16 14 15 14 9 4 4 5 6 6 7 10 11 8 5 2 5 4 10 10 10 15 15
16 11 7 4 10 5 10 13 18 19 27 30 24 18 14 29 31 25 25 23 22 20 19 18 16 17 17 16 8 4 3 7 4 7 10 9 8 9 7 6 5 11 9 9 7 4 3
11 10 3 5 6 9 10 14 17 20 26 27 25 21 18 19 29 27 24 23 20 20 20 20 18 19 19 14 8 4 4 9 6 8 6 10 7 7 8 5 7 9 12 12 9 10 11
7 12 7 6 11 12 4 9 19 25 35 28 26 22 19 14 27 28 24 22 20 20 19 15 17 17 15 14 9 7 6 7 9 6 11 9 11 5 8 5 7 5 12 12 16 16 17

GFSGBSN_700_spd_072.txt.gz
Wind_Speed
39 38 38 41 38 34 31 30 28 28 29 29 33 30 34 36 35 37 34 38 32 29 23 21 21 20 19 17 17 19 19 20 22 22 24 23 19 20 28 35 38 38 40 45 33 34 41
42 42 42 42 42 42 39 37 33 29 28 27 31 33 30 31 37 35 32 34 25 25 21 21 21 19 17 17 18 17 16 17 18 19 19 19 20 14 23 32 35 41 39 32 38 34 37
45 45 45 45 45 44 44 44 39 33 30 28 29 33 34 36 31 37 29 28 23 17 20 20 19 16 16 14 16 16 15 15 15 17 18 15 17 18 12 30 29 43 33 29 38 30 33
45 46 47 47 47 47 47 47 45 39 33 30 30 31 35 34 30 35 26 27 19 13 18 18 16 16 14 14 14 16 17 17 17 14 15 14 15 19 11 19 22 42 30 31 40 31 29
47 47 48 49 48 47 48 48 46 41 36 32 29 30 32 37 32 31 24 23 19 11 14 15 14 14 13 9 15 17 18 18 18 16 12 14 23 13 19 15 24 29 23 30 24 34 37
49 49 50 51 52 52 47 45 44 42 39 34 31 32 28 38 35 34 25 16 18 8 11 11 11 12 11 15 15 17 18 14 13 10 9 14 13 12 26 24 11 27 22 26 16 31 16
52 52 52 52 53 53 54 49 42 40 34 31 30 30 35 31 39 33 18 14 14 9 9 8 11 9 11 13 15 10 7 6 6 5 8 6 7 11 17 5 16 26 25 15 7 20 37
54 55 54 52 51 51 52 53 55 42 30 33 30 32 33 33 40 37 14 14 11 8 7 8 9 7 8 13 10 8 3 3 6 4 5 5 4 15 20 3 17 17 28 24 13 12 20
54 52 50 49 47 44 46 49 51 56 44 32 31 40 33 36 40 36 13 14 9 3 6 6 7 6 9 12 6 4 3 3 5 3 2 3 2 8 15 2 7 12 18 22 8 16 14
48 46 46 45 43 44 46 47 51 52 57 39 36 26 35 36 39 25 13 11 6 2 4 3 5 6 10 8 5 4 6 7 5 3 6 5 5 13 15 11 9 8 10 10 22 8 4
42 42 41 37 39 41 42 39 35 40 44 38 39 33 34 35 38 17 11 8 6 5 3 2 3 6 7 5 6 3 2 3 3 6 5 2 12 9 11 7 9 12 13 13 12 12 5
33 33 34 37 36 38 40 39 43 47 40 29 36 39 34 36 37 13 11 10 8 4 3 3 1 4 2 7 8 6 8 9 11 9 5 7 10 8 7 7 23 18 22 15 12 12 2
33 33 33 36 37 39 39 40 43 43 27 21 29 28 38 33 25 10 14 14 7 5 5 6 5 4 10 10 8 10 8 6 4 7 8 10 10 7 5 20 20 18 20 4 3 1 2
30 32 33 36 38 39 36 38 44 49 14 26 20 26 32 35 20 17 16 18 7 7 9 10 9 9 8 7 6 7 9 9 6 11 10 6 4 8 7 13 11 14 5 4 4 2 3
30 32 35 37 38 36 35 40 37 20 21 35 20 26 25 29 16 19 22 13 5 9 12 14 11 8 8 1 1 9 13 11 15 6 3 6 6 10 13 8 11 8 7 7 10 9 5
33 34 35 34 35 34 32 40 24 18 22 22 24 23 26 20 21 24 25 8 7 13 17 15 7 6 6 6 2 2 5 10 8 11 16 19 15 16 14 9 5 10 6 5 4 3 4
33 35 31 32 31 29 31 32 21 5 2 9 21 28 22 22 24 26 22 10 14 16 17 15 7 8 7 4 4 4 6 9 7 8 13 11 8 16 17 7 13 13 4 4 5 5 3
33 33 31 30 29 28 26 23 22 8 22 9 24 22 24 25 29 28 16 12 17 21 18 10 9 11 7 5 3 5 6 7 12 12 8 8 15 13 16 17 16 10 5 4 3 1 6
34 32 30 27 27 27 25 19 12 16 15 12 26 21 27 31 21 25 19 14 18 24 18 11 11 9 10 7 4 10 13 14 11 10 6 9 12 9 5 6 12 9 8 5 10 8 5
32 30 27 27 26 24 22 18 10 25 12 18 22 22 27 30 16 22 21 18 21 20 13 14 12 8 8 4 5 11 16 9 7 10 8 5 12 3 7 6 10 10 12 9 6 4 9
29 28 26 25 25 21 20 13 5 17 16 24 20 16 24 27 21 23 21 21 22 21 16 15 13 11 8 4 5 10 15 13 8 7 6 9 9 8 9 6 5 7 11 12 11 8 6
28 26 24 23 21 16 11 8 3 9 10 15 10 8 17 4 24 26 21 19 24 22 21 18 13 10 5 3 2 11 8 12 8 7 5 5 9 7 6 4 3 3 6 12 11 10 9
26 23 21 20 15 15 4 14 14 10 24 15 9 7 13 11 28 27 21 22 18 19 20 16 11 9 6 6 2 8 9 9 5 8 5 4 10 8 4 3 1 3 7 10 11 11 12
25 21 19 17 12 10 9 16 9 9 21 21 9 9 1 16 28 22 24 21 17 16 17 17 14 9 7 6 7 7 9 8 5 7 5 4 6 6 4 5 1 3 7 10 12 12 13
21 19 18 9 12 8 3 4 11 13 16 18 13 9 1 13 24 17 21 21 17 15 15 14 14 9 10 7 9 6 6 5 6 8 6 5 6 3 3 4 8 8 8 9 9 10 13
17 17 12 8 5 8 10 5 21 18 17 17 15 10 4 21 25 22 18 18 18 17 18 15 13 11 11 11 6 3 3 4 5 5 9 10 9 7 2 0 4 4 4 6 7 10 10
14 15 7 4 8 17 16 4 11 18 24 23 17 12 10 19 26 21 21 20 17 18 16 16 15 13 11 10 4 2 2 5 2 3 4 6 8 9 7 4 5 7 5 6 3 3 4
13 6 4 6 10 12 12 3 12 20 27 25 18 12 20 13 24 21 20 21 18 16 15 16 15 15 14 10 5 2 1 5 4 4 3 6 4 5 7 4 5 5 6 8 7 9 10
8 4 4 10 8 14 9 7 14 17 26 26 19 16 20 9 23 22 21 20 16 15 14 11 9 11 10 10 6 5 3 3 6 3 9 5 8 3 6 4 5 6 7 9 13 15 16

GFSGBSN_700_spd_075.txt.gz
Wind_Speed
43 45 46 44 44 43 42 41 44 43 39 36 33 30 29 28 28 33 28 30 35 31 27 22 17 16 19 21 17 20 18 19 19 20 21 22 23 23 26 25 23 37 42 42 43 29 35
41 43 44 44 45 47 46 44 44 42 43 41 37 32 30 30 31 33 30 28 34 27 26 17 19 15 17 18 18 17 17 16 16 17 18 18 17 18 24 22 29 29 41 43 29 38 35
45 45 46 45 44 44 44 44 44 42 40 38 37 35 30 28 26 31 35 32 25 25 23 14 18 14 14 16 16 16 15 15 15 17 19 16 16 18 20 24 24 26 32 37 33 36 31
47 48 48 49 50 50 46 44 43 41 38 39 36 34 29 28 25 31 31 36 39 23 19 13 15 12 13 15 14 13 16 16 18 18 19 16 14 17 21 26 21 28 24 31 38 33 34
50 52 52 52 52 51 51 51 44 39 37 35 34 32 29 29 28 27 33 35 30 19 17 13 13 10 11 9 14 18 19 19 18 18 16 13 15 19 20 21 14 23 24 37 21 32 26
52 53 54 53 54 53 51 49 51 45 38 30 29 31 29 27 28 32 28 34 25 17 15 9 11 7 8 12 15 17 17 17 13 11 8 11 16 18 16 22 7 18 19 26 20 29 38
54 54 54 52 51 48 46 43 46 45 44 34 26 25 32 25 25 27 30 32 22 15 14 7 10 7 9 9 13 10 8 6 3 5 5 9 12 15 13 17 24 4 15 24 17 17 25
56 56 51 47 43 43 42 41 43 42 42 36 32 28 26 29 30 26 31 31 10 13 8 8 6 3 6 12 9 7 7 3 2 4 5 6 9 7 11 15 12 20 18 21 9 13 16
53 48 40 36 34 37 37 35 35 35 38 41 33 30 28 32 28 31 30 29 9 11 8 8 6 3 7 9 5 6 5 6 1 7 4 4 3 2 7 4 21 28 26 24 10 18 11
44 38 36 35 34 33 34 33 33 32 35 37 30 29 28 30 33 27 27 23 11 10 8 4 6 2 6 6 4 6 6 5 4 2 4 2 4 6 7 8 19 19 27 18 10 9 6
36 35 34 34 33 32 32 34 34 35 29 26 31 23 26 31 36 25 28 12 10 8 1 8 6 1 4 4 3 3 4 3 2 2 1 2 9 5 5 7 8 15 14 12 13 6 4
38 35 33 33 33 34 35 36 36 33 30 24 34 37 28 26 37 28 28 12 13 6 5 10 6 4 7 9 9 6 5 7 6 5 7 6 8 4 4 4 7 17 15 13 11 12 3
36 33 32 34 36 36 36 38 35 35 33 31 26 27 34 27 33 25 19 21 11 5 11 12 10 11 10 7 7 9 7 5 2 4 7 9 6 3 10 22 20 17 15 4 3 2 3
32 30 33 35 35 34 37 36 35 38 37 33 15 19 30 32 26 22 22 27 7 8 12 14 15 15 9 6 6 5 7 6 3 9 5 4 4 5 15 10 18 14 5 3 4 3 4
30 31 35 36 35 35 36 35 39 26 20 18 20 20 26 22 21 26 27 24 3 11 16 19 18 11 8 1 3 4 6 6 11 3 3 5 5 12 14 20 7 7 10 11 11 11 6
30 34 35 34 36 35 34 37 38 35 26 5 21 28 24 17 26 26 29 12 6 12 19 18 9 9 7 4 2 4 4 9 6 9 9 11 9 11 13 8 7 7 7 5 4 3 4
31 33 34 34 33 32 31 33 34 36 9 16 11 27 20 28 29 29 26 13 9 20 20 12 11 12 9 7 3 3 3 5 8 15 12 7 4 10 9 4 10 8 4 5 7 4 3
32 33 33 32 30 29 29 29 30 22 15 7 12 22 27 30 30 28 22 11 14 22 16 13 9 13 12 6 4 4 4 4 9 9 5 8 13 7 8 11 12 7 6 6 3 3 6
30 32 30 30 28 25 27 26 21 6 4 5 14 24 25 26 17 25 20 12 18 21 15 14 11 9 10 7 4 6 10 10 7 6 7 12 11 7 5 5 7 5 5 8 10 7 4
28 29 29 28 25 23 24 20 10 13 2 0 20 21 24 25 12 21 16 16 18 18 10 12 14 9 10 5 5 10 13 7 8 7 9 9 14 3 6 4 6 5 5 4 3 3 4
27 28 27 25 22 20 19 13 6 16 4 2 10 18 23 29 14 21 17 17 23 21 12 13 12 9 7 3 6 9 9 9 7 6 6 10 7 10 11 8 7 7 6 6 3 1 2
26 24 24 22 20 16 13 9 11 19 1 4 8 12 17 17 20 16 14 16 23 18 19 14 13 10 5 5 4 9 8 7 4 4 6 5 9 10 9 7 6 6 10 12 9 7 8
23 22 20 18 15 15 8 7 9 17 11 10 3 3 13 4 24 16 12 19 19 14 17 13 11 8 6 5 6 7 7 7 2 2 2 2 8 5 4 5 4 3 4 7 10 7 7
20 18 17 15 13 11 6 12 12 11 10 4 6 10 2 14 26 16 13 14 15 13 16 14 11 7 7 5 8 4 7 5 2 3 2 4 4 4 3 2 3 2 1 5 6 6 8
20 15 15 10 10 10 8 8 3 9 6 15 2 5 7 26 24 17 19 15 15 13 17 11 9 6 7 6 6 4 5 3 4 4 3 3 3 4 2 1 4 3 3 4 4 4 6
15 12 8 8 16 13 11 6 2 4 3 11 7 2 5 28 16 22 19 13 13 15 16 13 11 8 7 7 4 3 2 2 2 1 6 6 4 2 2 1 1 1 2 2 4 3 5
13 7 4 5 15 16 15 12 9 6 12 12 7 8 19 14 18 20 19 16 16 16 15 14 12 10 7 5 3 2 2 2 1 1 2 4 6 5 4 3 4 4 4 2 2 1 2
7 2 5 10 14 15 16 6 4 13 12 12 10 9 16 13 19 17 15 16 17 12 13 13 12 12 9 6 3 2 2 1 1 1 1 2 2 2 4 4 4 2 4 4 5 6 8
5 1 10 14 17 17 13 8 10 17 16 13 10 14 11 17 18 17 14 13 12 11 9 9 4 8 6 6 2 1 1 2 2 2 3 2 4 1 5 3 3 5 6 8 9 11 12

GFSGBSN_700_spd_078.txt.gz
Wind_Speed
40 41 41 41 40 40 40 39 39 39 37 36 35 37 37 33 31 31 28 28 27 30 28 27 26 21 19 18 13 17 17 17 17 18 19 19 18 20 23 16 21 25 28 28 29 30 27
43 45 46 47 47 44 41 40 39 38 38 36 34 33 35 33 28 31 26 27 27 30 27 28 25 21 18 16 13 14 15 16 16 16 16 15 16 17 20 23 21 23 24 27 28 27 27
46 47 48 48 49 49 48 47 41 37 34 35 35 31 31 28 31 26 25 27 28 29 27 24 23 19 16 14 12 13 15 17 16 16 17 14 14 16 16 19 20 24 29 27 28 30 28
47 49 50 51 50 49 47 47 44 40 34 29 29 30 28 26 26 24 21 30 26 27 32 16 20 16 14 14 12 12 13 17 18 18 19 16 16 16 19 19 22 24 23 26 22 29 29
48 49 50 50 49 45 41 34 41 39 31 28 25 25 23 23 23 24 25 26 22 24 20 16 18 14 13 9 11 14 17 19 19 18 18 15 15 16 17 19 22 21 19 28 18 24 25
49 51 51 48 43 37 31 31 32 34 35 22 23 22 21 16 23 17 20 26 27 23 14 14 15 10 12 11 10 13 12 12 13 11 12 11 13 16 18 17 16 10 19 15 23 20 32
53 53 50 42 31 29 29 33 31 34 33 30 21 20 21 18 18 25 21 17 29 21 12 12 13 11 11 9 11 8 8 5 5 4 4 7 13 20 16 16 22 26 13 17 20 18 29
53 47 43 33 29 26 28 29 28 29 28 26 18 15 19 18 18 23 23 24 24 23 11 13 10 12 8 10 7 5 3 3 1 3 6 8 14 10 8 13 12 11 18 13 14 17 24
48 40 37 33 29 27 29 30 28 28 26 24 22 16 18 17 14 21 23 25 21 4 8 9 11 10 9 7 6 5 3 4 2 3 6 9 7 4 8 12 10 14 19 15 13 18 17
42 38 35 32 30 28 29 29 29 29 27 25 21 16 15 15 15 20 22 15 14 6 7 7 10 9 8 4 1 4 1 0 1 3 4 4 1 3 6 2 12 13 19 23 14 10 6
38 37 31 27 26 29 32 31 29 29 29 27 23 19 13 14 20 23 17 14 16 12 2 7 13 8 6 5 3 2 4 2 2 3 4 3 2 1 4 11 15 6 11 4 11 4 7
38 32 27 26 31 33 32 33 31 32 32 27 25 20 20 22 21 16 19 20 18 8 4 11 12 10 9 7 5 4 3 3 1 4 4 2 2 2 1 4 8 17 12 7 7 4 3
34 29 27 31 34 36 34 33 36 35 34 27 26 30 25 20 23 23 22 24 14 5 8 13 14 14 10 8 8 6 6 1 3 1 5 4 2 3 4 8 12 19 9 4 3 1 4
32 29 32 33 36 35 35 34 34 36 37 44 19 37 28 19 23 27 29 29 5 12 16 16 19 16 6 7 5 5 5 1 3 5 3 3 1 6 12 18 12 10 1 2 4 3 4
33 31 33 34 36 34 34 33 37 42 38 7 7 25 28 26 33 31 34 15 8 11 18 23 22 10 9 6 6 4 3 2 4 2 2 2 6 17 19 15 7 3 6 8 12 9 7
34 31 33 35 33 32 32 34 38 37 20 18 15 25 25 24 33 35 36 12 7 12 20 26 8 10 7 10 5 4 2 4 3 5 4 5 4 12 12 7 9 8 8 5 4 3 5
37 28 32 32 31 29 31 34 33 19 7 14 11 33 25 24 29 37 22 9 7 15 24 10 9 14 13 11 9 5 2 7 9 8 6 4 2 5 5 5 6 7 5 6 7 4 3
34 28 30 29 28 29 30 32 20 12 4 14 23 23 25 34 34 29 22 9 13 23 14 11 9 17 12 11 10 6 4 5 9 4 2 4 6 4 6 7 8 10 9 6 3 2 6
28 26 26 26 25 27 29 25 12 12 9 14 21 34 21 28 14 19 19 8 20 17 12 12 12 12 13 12 8 10 7 8 6 2 3 5 7 4 4 5 6 9 12 13 11 8 5
26 24 24 22 23 25 24 18 15 14 14 8 35 24 25 20 13 17 15 12 22 12 14 15 16 14 12 11 10 13 10 6 5 6 4 6 5 4 5 4 2 3 5 7 10 7 7
24 21 21 19 20 21 19 15 11 15 18 8 20 27 26 12 15 17 11 15 20 12 15 16 13 13 9 9 13 15 9 9 8 5 4 7 7 10 11 8 6 4 2 3 7 7 5
19 19 17 16 17 16 13 8 7 15 15 9 11 23 9 17 22 13 11 13 19 11 16 11 17 12 9 13 9 14 10 7 5 7 8 5 6 8 7 6 6 5 3 2 1 3 5
17 14 12 12 14 14 15 17 8 5 15 18 14 18 13 18 20 14 10 16 16 11 12 16 11 10 11 11 10 9 6 5 5 5 5 5 7 3 2 3 3 4 4 2 1 1 2
15 9 8 11 12 12 11 16 19 9 7 14 15 12 13 23 18 12 14 16 13 10 18 15 12 7 12 12 10 5 5 3 4 3 4 5 4 3 3 3 2 2 2 1 1 2 2
11 6 11 14 15 15 14 13 18 16 7 9 11 8 15 30 19 18 16 15 12 13 13 11 10 10 11 11 10 8 7 5 3 3 4 4 4 3 2 2 1 1 1 2 2 3 5
4 9 13 14 15 15 12 6 5 9 8 8 7 9 24 25 20 20 16 13 12 16 14 13 11 10 9 9 5 3 2 3 2 1 3 2 1 1 2 1 0 2 2 1 1 4 4
2 8 12 15 16 17 15 9 8 12 12 11 10 17 23 18 22 20 17 14 14 14 12 13 11 9 7 5 5 4 3 3 2 2 3 1 3 2 2 1 2 2 1 1 1 2 2
6 7 8 13 16 15 17 16 15 14 15 15 17 17 10 20 19 17 13 12 13 12 11 11 8 5 5 3 3 3 3 2 2 1 2 2 2 2 3 2 2 1 1 1 2 4 6
9 9 11 16 16 12 14 17 16 16 12 12 13 12 13 15 18 15 13 12 10 8 5 8 3 5 3 2 2 1 1 1 1 2 1 2 4 2 4 4 3 4 5 7 8 9 10

GFSGBSN_700_spd_081.txt.gz
Wind_Speed
40 42 43 43 45 46 45 42 40 38 35 35 32 31 32 33 32 32 29 29 28 27 24 27 26 29 25 20 17 22 19 17 16 16 17 17 18 15 17 16 19 26 26 28 27 28 30
43 45 46 47 48 48 48 49 47 39 36 32 31 30 28 28 25 28 29 25 25 23 23 25 25 23 20 19 18 17 17 17 17 16 17 16 15 15 19 19 22 22 23 25 27 29 26
45 47 46 46 47 46 45 44 43 43 33 29 29 28 27 23 22 23 26 26 20 24 17 17 25 17 19 17 16 17 16 17 17 16 17 16 16 16 11 16 16 20 26 28 31 26 29
47 48 48 47 47 44 41 37 33 31 28 17 23 25 23 21 19 21 27 22 20 26 32 20 19 17 16 16 16 13 15 17 18 19 19 19 18 18 19 21 20 21 24 28 19 25 28
48 47 47 46 42 37 28 26 26 25 28 24 17 21 21 19 17 18 23 22 26 19 19 16 18 15 15 14 11 13 15 19 21 19 18 19 16 17 18 17 19 16 23 22 23 21 23
47 50 48 45 38 31 25 22 25 27 26 25 20 18 18 15 13 17 25 21 19 23 20 18 14 11 11 13 13 12 16 15 14 12 12 15 15 18 16 17 21 16 17 25 22 18 24
49 49 47 38 31 28 22 21 24 27 26 25 22 16 16 12 9 19 25 20 18 21 18 16 8 10 13 11 11 12 11 10 7 8 10 10 15 20 16 19 22 28 29 20 18 19 22
51 48 36 37 32 28 23 23 25 27 26 23 20 15 15 14 19 18 19 21 20 14 10 13 12 12 11 9 11 10 9 6 6 8 9 12 20 15 19 21 22 23 21 24 20 20 19
53 45 34 35 29 21 24 26 27 28 27 25 21 16 16 17 15 23 21 15 17 11 8 10 12 12 10 10 9 10 7 6 6 10 13 16 13 12 13 15 19 23 24 20 12 23 20
58 41 35 31 25 26 30 29 29 27 26 25 23 15 16 17 12 20 19 14 17 15 5 7 14 11 11 8 6 8 7 7 6 7 12 14 10 9 10 15 8 16 14 9 19 18 6
57 37 34 28 27 33 31 29 28 26 22 23 24 22 18 16 19 22 19 15 14 12 5 8 13 10 9 8 5 3 4 5 6 8 9 7 4 6 9 3 0 14 16 9 6 8 12
49 33 30 31 33 30 30 30 29 27 26 24 21 21 20 21 19 15 19 22 19 8 5 10 15 11 9 9 5 5 5 5 4 6 4 3 3 6 7 4 3 8 3 5 0 4 5
40 30 37 32 32 31 31 30 29 29 29 28 24 19 23 25 19 22 19 19 11 6 9 13 15 12 13 10 3 0 3 2 2 5 3 2 5 4 3 3 12 13 11 2 5 1 4
37 30 32 30 31 32 32 31 33 36 40 26 22 30 28 26 20 22 19 29 7 8 13 15 16 15 7 9 5 6 2 1 2 2 5 6 0 3 4 5 5 3 6 6 2 3 4
37 38 28 30 32 33 33 35 37 31 23 14 7 31 33 29 22 21 28 10 2 12 12 17 18 12 6 7 5 5 5 1 2 4 4 5 5 11 10 11 1 2 3 1 6 12 9
37 29 28 30 31 34 36 37 29 12 18 18 19 28 29 27 24 23 33 1 8 14 15 20 9 7 8 8 7 4 2 4 1 5 6 9 4 9 8 8 10 7 5 3 3 2 5
32 27 27 28 30 34 34 30 28 20 22 22 27 32 22 26 28 28 9 7 13 16 18 8 5 7 7 7 5 4 5 5 6 5 7 9 7 4 6 7 8 7 8 4 3 5 2
26 25 24 25 30 32 28 26 30 21 19 24 33 32 25 24 36 29 12 10 17 20 18 4 8 8 6 5 7 5 7 6 6 4 5 5 5 5 3 6 9 14 13 8 5 5 7
23 21 20 24 26 25 21 24 27 21 16 16 28 30 22 31 19 19 14 17 19 16 10 9 6 6 8 7 5 8 8 9 5 5 4 4 4 1 2 6 12 9 15 14 8 7 7
19 16 19 23 23 22 18 23 26 19 12 13 30 24 25 6 21 13 15 15 17 9 8 9 11 11 8 7 9 9 10 7 9 9 8 8 8 6 8 4 5 7 13 16 10 10 11
13 14 18 21 21 20 18 26 27 21 13 19 25 28 12 20 16 14 13 14 11 9 12 15 8 6 5 7 12 10 10 9 10 9 8 8 9 13 10 7 6 7 10 12 15 12 12
11 12 16 18 18 20 16 13 20 23 12 14 24 20 20 21 18 15 15 14 10 15 10 9 10 8 10 9 7 9 8 8 7 8 6 6 5 7 9 6 6 8 7 7 9 10 9
10 13 15 14 13 18 23 18 13 21 21 23 15 16 20 21 14 17 12 13 12 10 12 13 11 11 11 12 10 8 7 7 7 7 6 4 3 3 2 3 4 3 7 5 4 5 6
6 14 14 13 12 13 18 22 17 16 24 17 16 23 17 16 13 16 18 15 13 10 16 12 12 8 12 13 10 6 5 4 6 4 5 5 4 3 2 3 1 3 3 2 2 1 2
2 13 14 13 10 8 10 15 16 17 19 16 12 20 23 20 17 19 18 13 11 15 12 11 11 12 13 12 7 5 4 4 4 3 3 4 4 2 2 3 2 2 2 1 0 5 4
1 7 12 11 13 10 8 11 14 15 16 17 19 25 24 21 19 21 18 13 13 12 10 11 11 10 9 9 4 2 2 1 2 3 2 1 1 2 2 1 2 3 1 2 1 1 4
9 8 9 9 17 16 15 16 15 16 16 21 24 22 18 22 22 20 17 15 16 12 9 9 9 8 6 6 4 3 1 2 0 1 2 2 3 4 3 3 3 5 4 2 1 2 4
9 8 7 8 14 16 19 19 18 18 20 22 19 16 16 18 21 17 16 14 14 10 7 7 6 3 5 2 2 1 1 2 1 3 2 2 2 2 2 3 3 5 3 2 4 5 7
11 10 8 8 11 14 17 17 14 16 18 15 13 16 18 15 19 16 16 14 11 10 4 7 2 4 3 2 1 1 1 1 2 2 4 2 6 3 5 4 4 4 6 8 9 10 10

GFSGBSN_700_spd_084.txt.gz
Wind_Speed
37 38 39 41 41 42 42 42 40 39 37 32 29 31 30 28 30 31 30 32 30 27 28 24 19 18 19 17 15 18 19 18 18 15 15 14 15 14 16 15 15 24 25 25 26 25 29
39 42 43 43 43 42 41 39 38 35 34 32 27 26 27 26 26 26 28 28 27 26 22 24 19 16 15 15 16 17 16 16 17 13 15 15 15 15 21 20 20 24 26 28 26 26 28
41 44 44 42 41 41 38 35 29 25 24 24 25 22 22 25 24 23 24 23 25 24 18 24 11 14 16 16 18 15 15 15 14 15 15 16 17 18 17 17 17 16 24 27 28 32 37
42 44 46 44 44 40 35 29 24 21 24 24 26 23 21 22 22 21 21 21 25 22 23 28 24 19 18 15 15 14 13 12 15 16 16 19 20 20 19 21 23 23 24 31 28 25 23
41 45 50 48 36 38 32 27 21 19 23 24 22 23 20 19 18 16 17 19 27 21 25 14 16 21 19 12 11 9 11 12 15 15 15 15 16 17 17 16 21 19 27 29 31 19 19
45 50 56 51 34 35 31 26 19 20 23 25 23 20 18 16 12 13 11 23 22 26 19 18 12 11 14 10 8 9 9 12 12 12 12 9 12 17 16 17 21 17 21 23 23 23 22
48 52 58 51 37 34 28 23 21 23 25 25 24 21 16 15 12 12 22 19 24 25 24 18 9 14 9 6 7 7 8 7 9 8 8 6 12 21 18 20 22 25 26 33 32 23 24
51 53 53 41 31 28 24 24 25 26 25 24 21 19 16 14 13 19 20 23 19 9 9 17 14 18 11 7 6 6 6 6 7 4 5 9 19 18 16 23 23 26 30 36 31 16 16
40 51 45 33 29 33 29 29 30 22 22 20 18 14 16 14 12 28 15 17 16 15 7 11 14 16 12 8 4 7 4 3 5 5 7 17 18 21 19 20 25 27 29 30 31 25 13
45 44 43 29 37 31 27 30 26 22 22 21 17 12 12 13 13 17 24 5 12 4 5 5 14 14 13 8 2 6 3 4 2 3 9 15 12 15 14 17 20 20 19 19 17 12 7
61 51 36 38 32 29 29 29 27 24 21 20 18 15 11 9 12 13 19 14 16 12 3 7 14 11 12 9 6 3 5 3 2 7 10 10 9 8 13 14 8 9 4 3 8 15 9
59 44 37 29 31 32 31 28 26 24 21 20 17 10 12 11 12 13 18 14 11 7 3 9 12 15 15 11 6 3 3 1 5 6 8 9 5 11 11 8 6 11 4 6 5 11 4
45 34 29 31 32 32 33 33 32 29 27 26 22 13 13 10 10 14 13 14 9 5 9 10 15 16 10 13 7 4 3 3 3 6 5 6 8 9 8 6 4 4 9 4 5 2 3
37 31 30 30 32 36 38 38 33 19 12 14 12 22 17 12 14 12 13 12 4 4 6 11 16 19 14 10 5 4 3 4 3 3 10 5 4 3 1 4 8 2 7 4 3 3 3
31 27 29 29 32 38 34 39 37 24 23 5 19 30 21 19 16 11 16 16 3 7 17 15 19 12 11 6 6 4 3 3 3 6 4 5 3 6 8 10 9 7 6 8 3 10 3
21 22 26 29 30 31 34 36 29 28 31 23 28 33 23 18 13 14 17 4 11 19 18 13 6 7 8 7 6 4 1 2 1 6 8 7 2 9 8 9 9 10 16 7 5 2 3
16 21 23 26 29 30 27 29 28 26 24 27 30 28 20 18 11 13 5 4 24 17 14 7 10 11 10 8 5 1 1 2 2 6 12 11 6 6 11 10 13 17 17 6 5 4 1
16 20 23 27 26 25 28 21 25 27 22 18 25 30 17 15 16 14 7 16 16 14 12 13 14 12 8 6 6 4 2 3 4 5 4 5 7 4 9 15 16 20 19 14 5 6 10
16 20 22 23 22 24 27 22 14 16 12 17 29 34 25 19 8 13 17 15 14 8 7 11 9 9 9 5 6 8 5 6 4 5 4 5 5 3 2 6 14 14 21 10 12 7 21
12 15 18 20 18 23 26 23 17 13 13 14 32 25 21 7 9 17 17 11 14 11 10 13 13 12 10 8 5 6 7 8 8 9 8 10 11 9 6 4 8 10 17 18 15 16 17
12 12 13 18 18 12 18 23 20 19 18 14 30 26 17 16 19 16 14 11 13 16 16 14 9 7 8 8 10 8 8 10 11 8 10 10 12 13 10 7 8 10 14 16 23 13 13
14 13 11 13 19 16 11 19 15 17 20 16 13 28 27 20 17 20 13 15 17 14 15 13 13 10 13 12 8 8 3 6 6 9 8 7 6 8 10 8 8 11 8 9 13 14 15
17 16 10 11 15 18 14 16 18 24 23 17 25 29 25 23 20 16 13 15 11 14 13 13 9 9 9 15 11 9 9 10 9 8 8 6 5 4 2 4 3 4 9 8 8 8 9
14 11 9 10 10 14 16 17 19 20 18 17 22 26 21 22 20 18 15 14 11 12 12 10 12 9 12 10 9 6 5 6 5 4 5 5 5 4 3 4 2 3 4 3 4 4 3
17 8 8 11 9 9 12 14 16 15 17 21 20 21 16 21 19 18 14 11 15 11 9 11 12 11 11 9 9 5 5 4 6 5 5 5 7 4 3 4 1 2 3 3 3 3 2
17 13 9 12 11 12 12 12 12 12 14 19 17 15 19 19 19 19 19 16 10 10 11 10 11 10 8 7 7 2 1 2 3 6 4 2 3 4 3 2 2 3 2 4 3 3 3
13 9 8 8 12 15 15 15 16 19 20 19 18 14 16 19 21 18 18 18 15 11 9 8 8 6 5 7 3 1 3 1 2 5 5 4 2 0 1 1 4 6 4 4 1 2 4
14 10 9 4 10 16 18 16 18 20 20 22 19 15 10 13 19 17 14 13 10 9 9 7 5 3 3 4 1 1 1 3 3 5 5 3 2 3 2 2 4 4 4 3 5 6 8
12 13 10 4 6 14 15 15 16 16 16 16 14 17 13 16 17 16 14 13 9 7 3 5 2 3 2 1 1 2 2 3 4 3 6 5 6 4 6 5 7 7 8 10 11 11 11

GFSGBSN_700_spd_087.txt.gz
Wind_Speed
34 34 34 35 37 37 38 37 35 32 26 24 25 24 26 29 29 30 30 29 28 32 28 24 25 19 16 17 19 14 14 14 14 13 14 14 14 15 17 15 17 21 22 24 24 24 27
30 31 35 39 43 44 44 38 33 28 20 20 22 23 24 24 27 28 28 27 27 29 26 31 22 21 20 18 17 14 15 13 12 12 12 13 14 17 20 17 18 22 25 30 31 31 32
30 35 39 43 44 42 33 34 31 25 19 18 20 21 22 23 24 26 24 24 21 28 21 24 19 23 16 16 15 12 15 12 13 10 12 14 16 18 20 19 18 23 27 26 25 26 29
39 41 39 41 44 38 28 32 30 22 17 19 20 21 21 21 19 18 19 19 19 21 24 22 19 25 13 12 13 13 13 11 10 11 12 14 17 18 17 19 19 22 23 27 23 18 18
49 43 41 43 44 36 28 30 25 20 17 19 21 20 19 18 14 9 10 14 20 24 22 24 25 27 20 18 15 13 11 9 9 11 13 13 16 16 17 15 16 14 16 21 23 12 15
40 37 42 53 41 29 29 27 23 20 19 20 20 17 16 17 11 5 8 18 23 27 28 19 24 13 14 12 11 10 8 7 8 9 10 9 10 11 11 10 12 9 15 22 27 22 27
49 48 51 44 29 25 24 30 25 22 20 20 19 15 14 12 8 12 15 19 22 19 25 22 14 15 7 12 11 8 6 5 6 6 5 4 9 11 11 13 16 21 23 29 25 20 31
49 52 46 31 27 30 27 27 27 17 18 14 15 12 11 11 6 17 18 8 17 9 13 18 19 13 12 11 10 7 6 5 2 3 2 5 10 8 11 11 17 22 27 34 33 26 17
51 45 38 29 26 28 26 26 27 21 17 16 15 12 8 10 9 14 25 10 7 8 4 20 18 19 13 9 7 6 6 4 1 1 4 10 8 12 17 20 21 23 30 35 36 30 27
47 38 30 27 28 28 29 27 24 20 15 13 10 8 6 8 8 8 19 18 8 10 6 14 16 15 12 11 5 5 5 4 2 2 4 7 5 10 12 19 19 27 16 14 15 15 7
40 33 31 30 32 33 34 32 29 23 17 11 7 6 7 5 5 0 8 17 8 11 3 8 13 12 15 9 7 6 7 3 2 4 5 3 6 10 11 15 10 17 4 6 2 9 6
34 30 30 31 34 38 32 35 30 23 16 11 7 4 7 6 4 6 10 9 7 4 4 7 10 13 19 11 8 6 7 4 0 2 3 4 6 8 9 9 11 8 4 7 6 6 3
29 28 29 31 31 34 44 38 32 21 4 11 10 10 9 7 6 12 15 9 6 6 8 7 13 17 13 12 7 8 9 5 2 3 7 8 6 9 9 8 6 12 12 3 4 2 0
27 26 29 29 28 30 35 34 37 22 5 11 11 18 16 13 10 10 12 13 8 8 7 12 20 17 11 11 6 5 7 7 7 4 8 7 2 7 4 7 8 8 12 3 1 2 2
28 27 29 30 30 27 31 32 35 29 20 18 23 20 18 14 15 13 14 10 4 15 17 23 19 14 12 7 6 7 6 6 3 7 3 5 4 6 5 6 7 6 12 6 2 6 3
30 27 29 28 27 29 29 32 30 37 29 24 26 23 19 16 13 11 10 6 16 18 24 14 7 7 9 9 6 5 3 2 3 7 8 4 3 11 14 16 15 10 14 4 6 1 3
32 30 27 26 25 26 22 28 26 26 29 25 22 29 19 16 14 11 10 18 15 21 16 11 8 14 13 7 8 6 4 5 9 9 10 8 7 6 11 11 21 18 17 3 3 3 3
33 34 28 23 23 21 16 21 26 20 23 20 19 28 23 19 16 10 20 10 21 15 12 13 18 16 9 9 9 5 5 4 5 7 6 6 3 4 7 11 13 25 18 13 5 7 10
31 34 29 21 21 22 15 11 16 17 14 13 22 26 23 19 24 20 17 17 15 13 13 14 12 13 12 9 8 8 6 5 4 3 2 2 2 3 3 1 14 21 17 11 9 3 9
31 32 32 24 19 19 17 11 15 21 20 23 22 20 16 25 25 24 18 13 16 20 20 18 17 16 11 12 9 7 9 8 8 6 6 6 8 8 5 5 8 10 17 13 12 13 10
29 29 32 23 23 16 18 15 20 20 17 16 19 19 18 23 23 20 12 13 20 21 17 14 15 15 10 9 15 13 9 10 9 7 5 7 8 10 8 6 7 10 14 18 20 12 7
26 24 23 19 24 18 16 16 19 24 23 17 14 23 23 24 22 17 18 17 16 18 16 15 15 12 10 11 12 10 8 6 5 6 5 4 2 7 8 7 9 11 9 12 17 17 17
23 25 20 17 17 17 18 22 24 17 14 21 20 24 22 18 16 15 15 12 13 13 12 13 13 9 8 12 11 12 9 6 4 4 4 2 1 2 2 2 1 3 9 9 11 10 9
20 20 22 19 11 9 12 16 19 22 19 16 19 22 22 18 13 13 12 11 10 10 11 13 13 12 12 9 7 7 7 5 5 5 5 4 2 2 1 2 3 2 4 4 5 5 5
17 20 19 20 8 5 8 12 12 15 19 17 18 17 16 16 13 12 11 11 12 10 9 11 12 10 9 7 6 3 1 1 1 2 3 4 4 3 2 3 1 1 2 2 2 3 4
14 16 19 17 7 3 3 8 11 15 18 16 14 18 15 15 12 13 14 14 12 12 10 10 10 7 5 3 2 1 1 2 2 1 2 1 1 1 1 0 3 1 1 2 2 4 1
12 11 13 15 5 3 4 5 10 15 18 15 13 12 13 11 14 13 11 9 10 7 8 7 6 4 3 1 1 1 1 3 3 4 2 2 3 4 3 3 4 3 4 4 2 2 2
15 9 8 11 6 2 5 7 10 14 15 15 12 13 11 10 14 14 11 8 6 5 5 5 3 1 1 1 1 1 3 3 5 6 6 4 3 2 3 4 4 2 3 4 5 7 8
17 10 6 7 7 3 5 7 9 13 16 14 13 12 12 10 14 14 14 12 10 8 5 6 4 3 2 3 3 3 5 5 7 5 6 5 5 4 5 4 6 7 7 10 12 11 11

GFSGBSN_700_spd_090.txt.gz
Wind_Speed
31 32 33 35 37 33 33 32 30 33 30 24 20 19 23 26 30 30 29 30 29 29 33 24 28 25 25 19 20 15 15 14 13 11 11 11 12 15 17 15 17 22 25 26 29 30 30
43 38 43 38 37 33 38 36 27 28 29 17 19 20 23 20 22 26 27 29 27 27 30 30 27 29 24 18 20 16 14 14 13 11 12 12 14 16 18 17 18 22 25 26 29 27 28
45 37 38 40 42 38 46 34 28 30 28 18 21 22 20 18 20 22 24 27 26 24 25 27 30 19 20 21 18 17 14 13 12 12 12 14 14 15 17 16 20 23 28 28 25 25 28
40 38 40 45 42 47 31 31 23 24 23 18 20 20 20 17 18 17 19 21 21 19 25 27 30 28 23 23 19 15 13 12 11 11 11 13 14 15 17 19 20 22 26 29 19 15 16
39 43 38 36 33 24 23 25 23 24 21 19 18 18 16 13 14 13 7 11 14 22 31 30 25 28 20 21 15 12 12 11 11 11 11 14 15 14 17 18 18 16 17 20 20 10 13
38 40 37 35 28 23 24 23 20 16 18 16 15 11 13 10 11 6 10 14 20 28 34 30 22 17 15 20 12 13 13 10 10 10 11 12 11 11 9 7 7 10 16 23 24 9 22
40 39 36 31 27 24 26 25 22 20 18 16 12 10 9 9 9 11 13 31 28 29 35 15 19 22 20 17 15 15 12 11 11 9 6 7 8 4 3 7 10 13 20 27 24 23 28
40 39 35 32 29 28 28 26 23 19 16 13 10 7 7 8 10 12 18 8 27 21 18 22 16 17 12 16 16 14 12 10 7 4 5 6 8 1 4 6 12 17 23 29 31 18 16
39 38 35 34 31 34 37 33 28 22 13 10 8 6 6 7 8 10 13 8 14 14 17 20 19 19 17 14 11 11 10 7 6 6 8 10 3 7 10 12 15 19 23 25 27 28 19
39 40 38 33 31 38 39 32 25 20 13 7 5 2 3 5 5 5 5 9 14 22 13 15 17 19 15 13 9 8 9 6 5 5 7 9 1 5 8 10 12 21 12 16 15 9 7
40 42 39 34 33 35 41 34 28 24 16 10 5 2 6 4 5 2 5 9 11 10 5 11 17 16 15 11 8 9 8 7 6 3 6 4 5 7 11 11 12 13 11 9 10 7 9
41 42 42 36 34 35 37 41 29 14 8 13 9 5 11 9 8 10 15 8 11 6 5 7 12 17 18 9 9 8 9 6 4 4 5 2 6 7 8 7 11 10 11 13 8 6 4
44 42 42 37 33 38 43 40 24 14 16 15 12 11 14 11 13 17 12 10 6 6 9 14 16 20 14 10 9 8 7 3 1 2 5 4 3 5 5 5 6 9 15 3 2 2 2
42 44 42 39 35 34 40 35 29 25 16 14 19 17 17 15 17 16 18 8 10 11 12 16 21 18 15 11 8 8 5 3 2 3 4 5 3 7 5 8 9 11 11 3 3 1 1
39 42 40 40 34 32 37 33 36 32 28 26 22 22 26 22 20 19 11 11 8 13 21 26 20 15 15 5 7 5 3 2 2 3 1 3 4 7 6 9 11 8 9 7 1 3 2
37 39 39 36 33 28 31 31 31 31 29 24 27 22 21 22 19 14 12 19 17 27 25 13 8 8 8 9 6 4 1 3 5 8 6 5 2 9 13 14 13 9 11 4 4 1 2
37 38 36 33 32 25 23 25 22 24 28 26 20 26 21 19 18 27 26 21 25 25 14 9 8 10 13 9 8 4 3 8 6 7 9 7 5 4 5 6 12 12 8 5 4 1 1
38 39 35 31 25 24 17 19 20 20 23 22 18 24 20 13 22 23 31 24 19 19 20 17 15 12 9 9 7 4 5 5 5 6 5 6 4 3 5 10 10 18 14 3 1 2 6
37 39 36 31 23 20 13 16 23 23 21 20 20 21 23 26 26 25 25 21 20 17 16 16 8 11 8 10 6 6 6 6 4 4 3 3 3 5 4 2 8 18 17 8 1 2 4
35 37 35 30 23 17 13 18 23 19 21 11 18 21 24 23 22 21 21 19 20 18 16 15 14 13 12 11 9 8 8 9 8 6 5 4 6 6 3 4 9 11 17 13 4 6 7
30 33 34 25 21 14 13 17 19 17 19 14 21 17 16 18 18 17 19 17 17 16 15 17 15 14 15 14 13 11 11 9 7 5 5 4 3 5 5 5 6 8 12 15 13 10 8
27 31 34 21 15 12 10 15 16 15 13 9 15 22 20 18 18 16 17 15 12 12 12 13 14 10 7 10 11 8 8 6 4 4 3 2 0 2 2 3 4 9 4 9 14 17 15
23 27 31 18 9 12 13 14 15 14 15 10 12 18 15 17 16 15 13 10 9 9 12 11 11 7 8 10 10 9 7 5 4 5 3 2 2 2 2 3 4 2 5 6 8 7 6
16 21 25 19 5 4 12 12 13 13 13 14 14 13 15 15 12 11 12 9 5 7 10 10 9 10 9 7 5 4 2 1 2 3 3 3 1 1 2 4 2 2 1 1 1 1 1
13 16 20 22 8 1 5 9 11 12 13 12 13 13 11 11 10 10 10 8 8 9 8 8 9 6 5 4 2 2 2 3 2 2 2 2 2 2 2 2 4 5 4 3 4 5 6
11 11 14 19 15 4 4 7 10 13 12 12 12 9 9 9 7 8 7 8 8 9 8 7 6 5 3 2 3 2 2 3 2 3 4 5 5 4 3 2 4 3 5 4 5 10 6
10 8 9 13 15 9 6 6 10 13 14 12 9 10 9 5 7 7 6 3 4 3 5 5 4 2 3 4 4 3 3 4 3 3 3 6 6 8 7 5 5 8 7 7 4 2 3
12 7 6 8 10 11 7 6 6 10 13 12 12 12 11 7 9 10 10 8 5 4 4 3 4 5 5 4 4 4 4 4 6 7 8 5 4 4 4 5 5 5 5 6 5 7 8
12 11 5 6 5 9 8 6 7 6 11 12 11 11 12 11 9 14 14 13 12 9 8 7 7 7 4 5 5 5 8 8 9 6 7 6 7 4 6 5 7 8 9 10 12 12 12

GFSGBSN_700_spd_093.txt.gz
Wind_Speed
31 32 32 32 37 35 35 34 31 39 31 31 28 25 19 24 25 24 20 24 16 23 27 31 26 30 27 20 19 10 12 13 13 14 13 13 14 15 16 14 16 22 24 25 27 29 27
31 31 32 34 32 33 33 31 29 26 27 29 24 25 23 23 23 25 23 20 23 17 24 32 31 30 33 24 19 20 19 16 15 14 13 13 15 14 15 14 18 22 25 26 29 28 29
33 32 34 35 31 29 24 22 24 25 23 20 19 21 26 21 19 17 21 24 24 24 21 26 37 32 27 20 19 19 18 17 15 13 13 12 12 13 13 14 19 20 27 28 28 28 33
28 41 42 40 35 31 23 23 23 23 22 22 20 19 23 21 20 19 19 21 22 23 19 24 36 28 25 32 19 15 16 16 13 13 12 12 12 13 15 17 21 24 27 28 21 19 19
38 43 43 41 37 29 24 24 22 22 19 21 16 14 14 14 16 15 14 10 16 24 23 29 39 31 23 18 18 19 16 14 13 13 12 11 12 14 15 17 18 16 18 21 19 14 15
40 42 42 41 40 31 27 29 28 22 21 17 14 12 8 11 13 10 11 16 18 29 34 42 38 25 17 18 17 16 16 14 11 10 10 11 11 12 11 9 6 9 16 19 21 17 23
40 40 43 44 44 34 31 35 38 22 17 13 10 8 8 9 12 10 18 25 30 29 33 35 30 28 28 23 23 17 13 11 10 8 8 8 7 2 3 6 9 11 16 23 21 19 22
40 42 44 46 42 40 39 34 29 18 16 12 8 5 6 10 9 11 15 10 29 22 23 16 20 11 17 14 15 15 13 10 7 7 6 5 1 2 6 9 11 15 20 21 16 18 24
43 44 47 48 42 41 40 41 30 12 12 8 5 1 5 7 4 10 12 7 23 30 21 21 22 17 24 16 13 13 10 7 8 8 5 5 3 8 9 9 14 17 21 15 19 21 15
44 46 49 49 47 44 47 32 18 8 7 10 5 4 2 4 3 8 6 5 22 30 19 19 24 21 19 18 14 12 10 8 7 4 3 3 6 7 9 11 12 20 7 11 12 14 8
42 46 49 47 49 45 38 34 20 11 12 13 10 7 8 9 9 8 4 16 21 12 6 9 14 23 19 9 12 12 12 8 5 4 4 3 6 9 12 12 11 13 10 10 14 14 12
41 46 47 47 45 40 37 37 36 32 23 19 13 14 12 11 11 16 12 7 13 8 5 6 15 23 17 11 9 11 10 6 3 3 6 6 10 11 9 11 13 13 17 15 14 13 3
40 44 45 43 39 35 37 34 30 27 22 20 18 16 16 20 21 20 10 7 6 9 9 13 20 21 13 11 10 9 7 4 1 1 5 6 3 6 6 6 6 7 9 4 2 1 4
40 42 42 39 33 32 33 34 32 29 22 23 20 19 25 23 22 19 12 12 15 10 13 20 25 19 13 10 9 8 5 5 2 0 2 3 2 4 4 5 6 7 6 4 4 1 2
39 41 40 36 29 26 31 31 30 30 26 25 26 24 21 19 20 13 11 12 8 17 25 28 20 17 12 5 7 5 5 4 1 1 2 1 3 6 7 11 10 4 6 9 5 3 1
38 42 40 32 26 22 25 28 28 32 28 25 22 23 21 16 11 13 21 23 19 30 26 12 8 7 6 9 7 5 1 4 4 3 4 0 2 4 8 10 12 10 8 4 4 3 2
39 42 39 30 21 20 18 26 26 27 28 26 21 24 22 24 25 33 40 32 27 19 15 9 7 11 11 8 7 5 3 5 4 3 4 1 1 2 4 6 11 13 8 6 6 4 2
38 42 37 29 17 15 17 19 22 21 22 18 15 21 18 20 27 30 26 22 18 16 16 15 12 10 7 8 5 3 3 2 3 2 2 4 3 3 1 5 9 12 17 5 4 2 2
37 41 37 26 15 11 14 19 19 24 23 16 16 24 21 20 26 25 25 23 21 19 14 10 8 7 8 7 4 4 4 3 3 2 4 5 4 6 3 1 5 9 19 7 3 3 0
35 39 34 24 15 10 9 15 14 18 21 17 23 20 18 20 21 22 22 19 17 11 10 11 9 8 6 5 4 5 6 5 5 5 3 2 4 4 2 3 9 14 18 11 3 1 3
30 34 30 23 14 6 3 7 16 18 16 19 16 12 10 13 18 18 18 15 13 12 12 9 9 11 10 6 9 8 7 6 5 4 4 3 2 2 2 4 7 10 13 14 6 5 3
23 28 26 20 11 9 1 2 8 10 9 9 15 16 15 17 16 15 15 12 10 10 9 10 10 8 4 2 6 6 4 4 4 5 4 4 3 4 3 3 6 7 6 5 8 9 7
16 20 24 18 11 5 5 0 3 7 6 9 12 12 12 15 14 11 10 9 8 7 8 8 7 8 6 6 5 3 2 2 4 5 4 4 4 4 3 6 10 7 3 1 2 3 3
11 14 17 16 10 5 4 3 1 1 5 6 8 11 11 10 7 8 9 6 3 4 6 5 5 6 4 2 1 2 3 3 4 5 4 4 4 4 5 8 2 3 3 3 4 3 2
8 8 11 13 12 7 5 4 5 1 1 5 7 6 5 6 7 5 4 5 5 4 4 5 4 2 2 4 6 6 6 7 6 7 5 5 5 4 3 5 12 10 9 7 6 7 8
7 4 5 8 8 7 8 7 6 7 4 3 2 3 4 4 1 1 2 1 1 2 2 3 3 3 4 6 6 4 3 5 4 5 7 7 8 7 4 3 4 3 6 7 9 14 7
12 5 3 4 5 5 5 8 9 9 8 7 6 5 5 5 3 3 2 2 2 3 3 3 4 5 7 7 7 4 4 6 5 5 6 8 9 12 12 7 8 10 9 8 5 3 4
14 9 6 4 3 4 5 5 7 10 13 11 10 9 9 10 8 9 8 7 6 6 6 7 8 7 8 5 4 4 5 5 8 9 11 7 5 4 5 7 6 5 6 7 7 8 9
11 8 10 9 7 5 4 6 7 9 12 15 13 12 13 13 13 13 15 14 14 14 13 11 9 12 6 7 7 7 11 13 12 8 10 7 7 7 7 7 10 11 11 13 13 14 13

GFSGBSN_700_spd_096.txt.gz
Wind_Speed
31 27 30 32 31 31 27 26 24 18 16 20 20 24 24 29 24 23 20 18 17 28 22 28 36 30 33 22 18 10 16 22 19 18 17 17 16 17 17 16 18 22 23 24 25 27 28
30 33 34 35 34 32 29 23 19 19 19 17 16 18 23 24 25 23 18 23 22 23 23 24 28 26 28 30 22 20 11 14 15 15 15 15 14 14 15 16 18 20 21 23 26 26 30
33 34 34 33 33 34 29 23 22 23 20 18 15 18 17 17 21 24 13 17 19 21 19 27 21 34 35 26 13 14 19 19 16 14 14 14 13 13 14 15 16 17 23 25 27 25 27
35 35 34 35 36 32 28 24 22 26 26 21 16 18 14 18 14 18 17 15 17 20 24 29 33 28 27 33 25 20 17 17 16 13 13 12 12 12 12 14 17 19 24 21 19 20 19
36 37 37 36 33 33 33 30 26 30 25 26 18 12 9 10 13 13 14 14 17 18 24 29 34 31 26 20 21 23 17 16 14 13 11 10 10 11 12 13 15 11 14 15 12 15 19
36 37 38 33 36 36 36 35 29 20 30 15 12 10 7 9 10 10 11 10 12 18 30 33 32 30 22 25 31 21 18 16 12 10 9 8 8 10 10 8 4 7 13 14 16 17 21
37 39 36 38 39 43 41 37 29 23 18 8 7 6 5 7 6 10 16 16 23 22 30 25 25 30 21 22 14 13 15 11 10 9 8 6 6 3 3 3 5 8 14 18 14 9 24
38 38 38 40 43 45 40 32 17 7 3 6 2 4 3 4 4 9 11 5 33 30 31 12 29 18 22 15 17 13 12 11 9 8 5 3 2 3 2 5 9 12 18 17 13 14 22
38 39 40 40 47 42 37 25 19 13 10 13 4 5 7 5 9 11 6 19 39 32 31 25 29 17 17 17 23 15 13 9 7 5 4 4 3 4 7 10 13 14 16 14 17 18 19
36 41 40 42 45 39 38 33 25 22 22 13 12 12 10 10 12 11 3 32 39 31 24 21 28 23 20 18 17 14 11 7 5 4 4 3 5 6 9 11 12 15 9 9 13 15 9
35 40 38 41 41 38 33 34 31 26 21 17 16 13 14 13 17 7 26 28 28 19 6 7 18 25 23 7 17 12 10 6 5 3 3 2 4 8 11 8 9 11 11 16 19 16 21
35 38 36 38 39 36 32 31 29 28 24 22 20 18 20 23 19 16 20 13 15 7 7 8 22 23 14 13 9 12 10 7 3 1 3 4 8 9 7 8 9 12 15 16 12 12 5
36 36 34 34 36 33 30 30 30 29 27 23 24 26 25 23 18 18 18 14 10 11 8 17 24 18 13 12 13 11 8 4 2 2 4 5 3 5 5 7 4 4 9 5 3 2 5
37 36 33 29 31 31 31 33 33 33 30 28 27 24 25 20 16 16 17 18 17 11 16 27 21 17 15 12 11 8 5 5 5 3 3 5 3 5 5 4 4 9 4 2 4 2 3
37 35 30 26 25 27 30 29 31 32 32 29 27 19 17 14 11 14 21 34 10 20 30 24 19 15 11 7 7 6 9 3 3 2 1 2 2 3 5 6 8 4 5 9 6 10 3
37 35 29 25 22 23 25 26 25 26 27 26 19 16 19 18 17 23 40 34 27 30 24 11 6 5 7 10 6 5 2 4 4 4 0 1 5 3 5 6 11 10 8 2 4 3 3
38 37 31 23 22 22 20 20 20 24 26 27 25 29 24 22 23 32 45 35 25 18 13 10 10 11 11 6 6 3 3 4 3 2 1 3 3 1 2 3 8 9 9 5 7 5 2
38 38 34 23 18 23 22 21 16 15 17 17 24 29 24 23 28 35 29 23 21 19 18 17 12 10 7 8 6 5 2 1 1 1 3 5 4 5 2 7 9 7 15 10 4 2 4
33 33 31 26 20 18 21 21 24 21 21 22 26 22 17 16 29 28 26 24 21 16 12 11 8 7 9 7 4 5 3 1 1 2 5 7 5 7 1 0 4 6 16 12 7 7 3
27 27 26 20 17 15 17 19 18 15 16 16 22 20 17 18 23 23 22 17 16 15 12 10 9 7 5 6 4 4 3 3 4 4 5 5 5 4 2 4 8 10 12 11 1 2 2
21 22 21 18 15 12 10 13 15 12 10 8 11 16 14 15 16 16 16 13 11 12 10 7 7 7 6 4 6 4 4 4 4 4 5 5 5 7 7 6 7 12 10 10 5 1 1
15 18 17 15 13 12 10 10 11 13 10 11 13 15 16 16 15 13 13 12 10 8 8 9 7 4 2 2 2 1 1 1 3 4 5 5 5 9 9 7 11 13 9 5 4 4 4
8 12 14 12 10 9 9 7 7 9 8 7 9 10 10 11 11 9 9 8 7 5 5 4 5 5 3 2 1 1 3 4 4 5 5 5 7 8 5 8 13 11 5 3 2 2 2
3 6 9 8 6 6 8 9 7 6 7 6 7 7 7 7 7 7 6 5 4 3 3 2 2 1 2 3 5 7 8 9 9 8 6 7 8 7 8 9 2 2 5 6 6 6 6
6 1 4 6 4 2 3 6 6 6 2 3 2 2 3 4 4 3 4 4 3 2 1 1 2 4 6 8 10 8 7 7 8 9 9 8 8 6 5 8 16 13 10 9 8 10 11
11 5 2 2 3 2 2 3 5 6 7 3 0 1 1 0 2 1 1 0 1 2 4 5 6 7 8 10 8 4 3 5 3 6 7 9 10 8 6 3 4 4 4 6 9 12 3
13 9 8 3 1 1 3 6 7 8 9 9 6 4 5 7 4 4 4 4 4 5 6 7 9 11 12 10 10 5 4 6 4 5 5 9 10 13 13 8 9 12 10 9 4 4 6
15 14 11 10 6 3 3 6 8 9 10 11 13 12 10 10 11 11 10 10 10 9 9 10 12 9 10 7 5 4 6 6 9 12 13 9 6 5 4 7 7 3 6 7 8 11 12
15 16 15 14 11 8 6 6 9 8 10 13 15 16 16 15 14 15 15 15 16 16 16 16 14 13 9 8 9 10 13 17 14 9 12 8 7 8 8 8 15 20 22 20 18 17 16

GFSGBSN_700_spd_099.txt.gz
Wind_Speed
28 30 34 34 32 29 28 25 20 17 17 15 15 17 17 18 18 20 21 24 17 15 19 35 27 31 32 37 24 7 15 22 20 18 16 16 16 16 16 15 17 17 18 19 21 21 26
32 34 35 35 34 29 29 25 20 17 13 14 12 14 13 13 12 17 20 26 15 17 14 27 30 32 26 34 29 21 8 14 18 16 15 14 14 15 14 14 16 16 16 18 19 22 27
34 36 36 33 32 34 33 31 27 24 16 17 13 12 15 11 11 15 18 28 16 17 15 29 34 32 27 30 30 27 17 14 14 14 12 12 12 13 13 13 14 16 18 19 22 23 24
37 36 34 35 34 37 36 32 27 23 19 18 15 11 13 7 11 13 10 22 12 11 24 27 37 39 28 20 31 22 21 14 13 10 10 11 11 11 11 12 13 16 19 13 14 18 19
37 35 34 38 39 39 40 35 25 21 15 15 20 11 9 8 8 6 6 8 12 11 24 34 23 33 27 25 24 18 13 12 12 11 10 10 9 9 10 10 13 11 10 9 6 14 16
35 34 38 40 40 43 40 30 18 16 8 5 2 1 5 5 6 3 5 6 7 11 29 30 19 21 30 31 27 22 19 15 12 11 10 8 7 7 8 8 5 5 7 7 10 15 18
34 38 38 44 42 44 36 31 24 22 13 10 9 7 6 4 3 4 4 5 20 24 32 27 26 9 30 25 24 24 20 15 13 10 7 5 4 5 3 3 4 5 9 13 12 14 20
34 38 41 42 43 44 39 33 26 23 18 17 12 10 8 5 5 5 4 17 25 28 29 15 27 30 28 25 27 20 17 14 11 8 6 4 3 3 3 3 5 8 12 13 10 11 20
33 39 41 40 41 37 37 35 32 27 25 19 16 15 13 10 9 12 13 19 26 21 34 34 35 32 28 23 19 18 15 13 11 8 7 6 5 5 3 6 8 10 13 10 12 19 20
33 38 39 36 37 37 34 31 30 28 23 19 17 15 12 12 15 15 30 33 29 29 25 22 28 24 20 18 17 15 13 11 9 8 7 5 5 4 5 7 10 12 9 9 14 16 8
32 35 37 36 33 34 34 31 28 27 23 20 19 22 22 25 23 32 33 40 29 14 7 8 19 26 22 10 20 16 12 10 8 7 5 3 1 3 7 7 9 5 10 13 16 19 21
32 33 34 33 33 32 29 28 26 26 26 26 25 25 34 27 23 25 27 22 10 9 8 10 15 16 17 19 14 16 11 9 6 5 4 1 1 3 5 7 8 4 10 15 6 8 6
32 34 29 30 30 31 32 30 29 28 27 26 25 27 23 19 16 16 21 12 15 13 13 18 21 18 16 18 16 13 10 7 3 5 6 5 4 4 4 5 3 6 9 4 2 2 5
35 32 31 27 27 29 31 29 28 28 26 25 25 25 21 15 15 14 17 17 16 6 16 22 21 18 20 18 14 11 9 9 8 7 8 7 3 2 2 3 3 8 4 2 3 2 4
39 32 32 31 28 26 28 30 32 27 23 22 25 25 23 21 17 19 30 35 14 23 26 23 19 15 12 12 10 10 11 10 6 5 4 2 2 3 4 6 3 2 3 5 5 7 5
38 35 34 33 30 27 24 25 28 28 25 24 29 25 22 21 25 31 40 36 28 27 16 9 6 10 15 12 8 6 6 7 7 3 2 3 2 3 6 5 3 6 9 2 2 3 4
32 32 30 30 30 28 24 21 23 26 27 25 28 36 27 30 32 37 44 33 22 15 12 12 15 14 12 9 9 7 5 6 7 4 4 2 2 3 3 0 5 7 6 7 5 4 2
25 27 25 25 27 26 26 24 23 23 21 21 24 31 19 20 31 40 34 30 25 21 20 18 14 12 10 9 9 6 5 3 4 3 3 4 4 5 1 4 7 6 8 12 4 2 5
18 22 22 21 22 21 21 22 19 19 19 20 27 26 20 14 33 32 28 24 22 16 14 14 11 12 10 9 5 6 5 4 2 2 3 6 4 6 1 1 1 4 10 13 7 10 5
16 15 19 19 19 19 19 18 18 16 14 14 21 23 22 22 23 23 22 20 18 16 16 14 11 9 9 8 7 5 4 4 3 3 4 6 5 4 4 6 7 5 7 10 5 4 3
14 11 14 16 16 16 17 17 18 17 16 15 14 16 14 16 18 17 17 15 13 13 11 9 10 9 7 6 6 5 3 3 3 5 5 6 5 9 9 9 11 11 7 7 6 8 5
10 12 7 12 12 12 13 14 14 13 13 13 14 14 13 14 13 11 12 12 11 11 10 9 7 6 3 3 2 1 3 3 2 5 6 6 5 14 14 9 12 16 13 12 9 6 5
9 8 8 3 9 8 10 11 11 11 11 10 10 10 9 9 9 8 9 8 8 8 6 5 4 4 3 1 2 4 5 5 6 7 7 6 8 11 5 7 14 16 5 11 9 7 7
11 6 8 6 1 6 5 7 8 8 8 8 8 7 6 6 6 5 5 5 4 4 3 2 1 1 3 6 8 10 11 12 12 12 11 9 9 8 10 11 2 3 4 7 10 10 10
10 7 7 7 7 5 6 4 2 3 4 4 4 3 4 4 4 3 3 3 4 3 3 3 4 6 7 9 11 7 6 7 7 9 11 11 9 6 5 8 18 12 7 10 10 9 12
13 11 7 9 9 8 7 7 7 4 2 2 3 3 3 4 6 6 5 6 6 5 5 5 7 8 10 11 8 4 3 4 4 5 7 9 11 11 7 4 4 3 4 6 9 9 2
13 13 10 9 12 11 10 9 9 9 9 8 7 7 7 6 6 7 8 8 9 9 9 10 10 13 8 11 8 4 4 5 4 4 5 8 11 16 16 10 10 11 9 7 3 3 7
17 14 14 10 11 13 12 11 11 11 12 12 13 12 12 12 12 13 12 13 14 15 15 14 14 9 12 6 6 4 6 5 8 10 13 9 6 6 6 8 7 3 4 6 11 15 15
18 16 14 15 12 12 15 14 14 13 12 14 14 16 17 17 15 16 17 18 19 18 19 20 17 16 9 8 8 9 13 17 17 9 13 9 9 8 9 9 16 24 27 25 18 13 16

GFSGBSN_700_spd_102.txt.gz
Wind_Speed
34 36 37 34 33 32 32 29 22 20 18 16 12 11 11 12 12 15 16 18 19 21 18 20 28 27 39 34 31 15 23 20 18 15 15 14 15 15 16 15 16 15 15 15 16 19 21
35 35 35 35 36 39 38 33 28 25 15 14 9 8 8 7 10 12 15 16 18 22 18 11 20 30 38 32 29 13 11 18 19 16 14 13 14 15 13 15 15 12 12 13 16 20 23
34 35 37 39 39 38 35 32 26 21 15 12 10 8 7 8 8 7 9 12 17 23 21 12 20 33 39 35 35 27 13 12 18 16 13 13 13 13 12 10 13 12 12 15 18 19 22
36 39 41 42 42 39 37 35 19 11 11 14 11 6 5 3 4 7 7 10 12 18 16 17 26 20 41 26 30 22 23 15 17 16 12 10 10 10 10 10 10 10 13 11 14 17 19
37 41 42 41 42 44 36 37 28 4 1 10 9 10 4 3 1 1 3 4 11 8 12 21 38 19 22 32 39 24 27 19 17 14 12 10 9 9 9 8 9 9 9 12 12 12 15
39 41 42 42 37 41 36 32 36 31 18 22 19 13 8 5 2 2 3 6 9 10 19 27 37 17 23 26 30 23 27 18 14 14 11 10 8 8 8 8 4 6 8 9 9 14 14
38 41 41 41 37 34 33 35 31 26 22 19 15 12 8 6 3 5 6 6 13 19 21 29 22 22 24 29 29 25 18 14 14 13 12 10 8 8 8 8 8 6 6 8 9 14 15
36 39 40 40 34 33 32 29 27 25 22 19 16 11 9 5 2 5 6 7 8 27 24 13 15 30 32 30 30 23 17 13 14 13 11 9 8 7 6 4 3 4 6 8 9 9 18
33 37 38 39 35 33 32 29 26 26 24 21 17 11 7 7 8 13 19 6 24 28 23 21 30 39 31 26 25 22 22 18 15 12 11 10 8 7 5 2 3 5 8 9 9 16 17
30 35 37 37 33 31 28 27 26 25 25 15 11 9 7 10 12 22 24 9 31 29 21 18 29 27 25 25 23 21 18 16 13 12 11 7 7 5 3 4 4 6 7 9 10 12 7
29 33 34 37 33 32 29 27 27 26 28 32 32 34 31 29 33 32 26 31 30 13 6 8 20 23 24 13 23 18 16 14 12 14 7 7 6 4 4 4 3 3 7 9 12 10 13
30 35 32 33 35 28 29 28 27 26 25 26 25 22 25 24 30 31 23 13 11 9 8 7 13 22 22 21 16 17 14 13 13 11 8 7 5 3 2 3 2 3 7 10 3 3 4
31 35 34 30 31 33 27 25 24 23 22 21 19 17 17 17 17 14 11 11 15 11 13 16 19 23 19 19 17 15 13 10 8 6 7 7 5 5 4 4 2 3 8 4 1 1 4
32 34 34 31 27 27 30 29 28 25 25 26 25 19 17 16 11 9 10 15 15 11 18 23 23 21 23 20 15 13 12 11 8 7 8 4 3 4 4 2 1 4 3 2 4 3 7
29 31 33 33 30 29 28 29 30 28 27 26 26 22 17 15 13 18 28 23 14 19 24 24 21 16 12 10 11 10 11 7 5 5 3 4 4 7 7 7 2 0 2 6 5 7 6
24 27 29 29 30 29 28 28 30 29 27 26 29 28 24 24 27 29 39 38 28 26 21 11 7 11 10 11 7 6 6 5 7 7 5 6 5 2 1 2 1 1 3 2 4 3 4
18 22 25 27 26 26 27 26 26 25 22 22 31 35 27 28 27 29 43 34 22 17 15 13 14 14 13 12 11 9 6 8 8 7 6 5 4 2 3 4 4 1 2 2 5 3 3
15 16 19 22 24 24 22 23 24 22 21 20 27 32 20 19 25 37 34 30 25 22 20 17 15 14 12 12 10 7 7 6 6 6 4 3 2 2 4 5 5 6 5 6 4 2 5
15 12 15 18 21 22 21 20 17 17 14 18 26 24 17 13 32 32 28 25 23 16 14 13 11 13 11 10 7 8 7 6 5 4 3 4 2 3 1 1 3 6 7 7 5 7 6
14 10 10 13 17 19 20 21 21 19 14 15 18 17 16 20 22 23 21 20 20 17 15 14 14 12 12 11 8 6 6 4 4 3 4 4 4 5 4 5 8 8 8 9 5 4 3
10 11 6 9 12 15 16 16 16 16 17 14 16 18 15 16 19 18 18 15 14 14 12 10 11 9 8 7 8 6 3 2 1 3 5 6 6 9 11 13 15 14 12 13 14 10 8
11 9 7 4 6 9 11 13 13 14 14 13 15 14 15 15 15 14 13 13 13 12 11 9 7 6 5 6 4 2 2 2 3 4 5 7 7 14 17 11 13 19 18 18 18 18 17
12 7 8 5 2 4 6 7 9 11 12 11 12 13 12 13 12 11 11 10 9 8 7 7 6 6 4 3 4 6 8 9 9 8 8 8 7 12 6 8 16 18 10 18 19 17 13
12 11 7 6 5 4 0 2 3 4 6 6 7 8 9 9 8 8 8 7 6 6 5 4 5 6 8 9 11 13 14 15 15 14 13 12 11 9 10 12 3 4 5 7 12 15 16
12 13 11 8 6 6 7 6 4 2 0 1 2 3 3 3 3 3 4 4 5 5 4 5 6 7 9 11 14 9 7 7 7 10 13 13 11 7 4 6 19 13 13 10 12 12 13
15 14 12 10 10 7 8 8 10 10 7 6 4 3 3 2 3 4 3 4 5 5 6 6 8 9 13 11 10 4 4 4 4 5 8 10 12 12 6 5 4 4 5 6 7 12 3
15 14 15 12 11 13 9 9 9 12 13 14 12 11 8 8 8 7 7 8 8 8 9 10 9 13 10 11 8 5 6 6 4 5 6 9 11 18 15 10 12 13 10 6 3 3 9
14 12 12 15 13 13 16 13 11 10 11 15 19 19 17 15 14 14 14 15 16 14 14 13 15 9 8 5 4 4 7 6 9 11 13 9 7 8 8 9 9 5 6 6 11 21 20
17 14 12 10 13 14 15 15 16 13 12 13 15 19 23 22 18 16 16 18 18 19 21 21 18 17 10 8 8 8 13 19 20 10 14 10 13 8 11 9 14 18 22 28 29 22 15

GFSGBSN_700_spd_105.txt.gz
Wind_Speed
36 41 42 39 39 38 31 29 24 21 18 18 15 11 10 7 9 12 15 15 16 20 21 20 15 34 32 38 29 15 23 19 18 17 18 16 14 14 13 14 12 13 12 13 15 16 18
39 43 43 40 40 37 35 32 20 13 13 12 11 8 8 6 5 6 9 11 11 15 16 15 15 27 30 35 31 27 19 23 21 17 16 16 16 15 15 14 14 11 13 15 16 18 19
41 43 42 39 40 38 44 32 19 7 3 4 8 9 6 5 2 3 5 8 12 15 16 16 12 23 38 35 21 30 20 24 22 19 16 16 15 16 15 12 13 12 12 14 17 18 19
41 43 38 39 38 38 38 37 30 23 9 4 7 10 6 3 4 4 5 6 8 11 14 17 10 23 30 40 31 33 17 14 21 21 18 15 14 13 11 11 7 8 9 7 16 15 16
40 40 38 38 38 34 33 32 27 25 24 14 8 9 3 6 4 6 7 6 7 12 10 14 14 28 29 38 21 23 13 10 17 18 18 15 14 12 11 9 8 8 5 8 11 14 14
38 38 38 38 37 36 32 29 25 20 18 18 14 12 7 8 5 5 6 6 16 11 14 11 22 26 26 34 27 25 20 17 16 17 16 15 13 12 11 10 4 8 7 10 9 13 14
36 37 35 34 33 35 34 31 28 23 20 16 12 8 8 6 6 6 7 10 15 18 21 15 21 5 30 30 34 26 27 22 17 15 14 13 11 9 13 12 10 11 9 8 10 15 17
33 37 34 33 32 31 32 34 30 20 19 15 12 7 5 3 6 7 10 11 13 18 20 13 13 20 34 30 31 26 27 19 18 15 12 12 10 10 9 8 7 6 4 6 10 12 16
30 35 34 32 32 31 31 32 33 32 21 13 9 6 9 6 8 13 13 10 15 23 26 23 23 19 31 28 26 27 22 17 14 13 13 8 9 9 8 6 4 3 3 5 9 13 14
27 33 34 33 30 30 29 28 28 28 28 32 25 9 6 11 16 16 16 19 23 24 17 18 31 22 24 26 24 25 14 16 14 13 10 7 9 9 6 4 2 1 5 7 8 10 5
26 30 34 34 34 33 31 28 24 22 22 24 26 30 32 23 23 24 25 28 20 10 5 7 16 21 21 13 22 18 18 14 13 14 8 6 9 6 3 2 2 1 5 6 8 9 12
27 29 32 34 33 32 33 30 28 23 20 17 19 25 26 31 33 23 21 12 9 6 7 7 15 21 20 21 17 19 15 13 12 11 6 7 6 4 4 3 3 4 5 8 2 2 4
27 29 30 32 33 34 35 35 31 25 22 17 18 18 19 15 13 13 12 10 9 10 9 12 17 19 17 20 16 17 15 14 6 6 5 6 2 3 3 2 0 0 3 2 3 3 2
25 27 29 30 31 32 35 35 35 31 23 19 14 13 12 7 7 9 10 13 12 8 14 23 16 14 15 15 14 12 11 5 6 5 9 3 2 4 3 4 3 2 1 2 3 3 5
22 24 27 28 30 30 31 31 31 32 26 24 21 17 12 12 10 11 12 15 10 15 16 18 15 12 10 8 11 8 5 3 4 7 3 3 3 6 5 4 3 1 2 4 3 6 4
20 21 23 26 26 28 27 26 26 26 26 21 23 28 25 20 17 20 28 25 23 26 20 12 5 6 9 9 4 5 3 3 6 5 6 3 3 4 3 0 1 2 3 2 3 3 4
17 17 19 22 25 24 24 23 22 21 21 21 26 30 26 23 20 24 27 25 20 15 13 7 9 8 7 5 6 4 3 8 8 6 5 5 1 4 2 4 3 3 2 1 3 4 3
15 15 15 19 22 23 21 19 16 17 17 18 23 25 16 17 20 30 27 26 23 19 18 15 12 11 7 9 5 4 3 4 4 4 3 2 2 4 4 9 9 9 8 6 5 1 7
14 12 12 13 17 20 22 20 17 15 15 17 24 21 17 13 26 25 24 20 19 14 12 13 10 11 10 7 5 6 5 5 5 4 1 2 1 2 2 5 6 10 7 9 8 7 10
12 11 9 10 12 15 16 17 18 16 13 11 15 14 14 14 19 21 18 19 18 15 15 14 12 11 11 8 6 3 2 3 3 2 3 4 4 6 7 5 7 8 9 11 9 6 8
12 11 7 7 9 10 12 13 14 15 15 12 16 17 17 15 16 16 16 14 13 13 11 10 11 10 8 4 6 4 4 4 4 5 7 7 6 9 12 16 17 20 18 16 17 17 10
13 10 10 5 5 7 8 9 11 11 13 11 12 13 14 15 14 14 13 13 13 12 11 10 8 6 5 4 2 2 5 4 5 6 8 9 7 16 22 12 12 19 20 22 24 25 25
14 14 8 9 5 4 5 4 6 7 8 8 10 11 10 11 11 12 10 9 9 7 7 6 5 4 4 4 5 7 9 10 12 13 13 12 9 11 7 10 18 20 15 21 26 27 22
14 13 14 8 8 6 5 5 4 4 3 3 4 5 5 6 6 5 5 4 4 3 3 3 4 5 7 9 10 12 14 14 15 16 16 14 11 10 13 12 4 6 7 9 13 16 21
16 14 11 13 9 9 8 7 8 7 7 5 4 3 3 1 2 2 2 2 2 3 3 4 4 6 8 11 11 7 8 7 7 10 14 15 12 6 5 9 21 15 17 20 16 16 14
16 14 12 11 12 11 10 10 9 10 11 9 9 8 8 10 9 8 8 7 6 7 9 8 9 10 12 12 8 3 3 5 4 6 8 11 13 12 5 5 5 7 7 7 9 12 2
13 15 14 12 10 11 10 11 11 10 10 12 13 13 14 15 14 14 13 12 12 11 12 13 14 13 15 8 6 4 4 6 4 4 6 7 11 19 16 11 13 18 14 11 3 4 8
13 12 14 14 12 11 9 9 11 14 13 12 11 13 15 17 18 20 20 21 21 18 17 17 16 10 8 6 5 5 5 7 8 11 12 10 6 10 10 10 12 4 9 11 12 17 25
16 13 14 14 16 14 13 12 9 11 15 15 16 14 13 14 15 20 21 23 24 25 25 24 20 18 10 8 9 8 12 14 19 10 15 12 15 9 13 9 18 22 24 26 31 30 28

GFSGBSN_700_spd_108.txt.gz
Wind_Speed
36 39 41 40 39 40 41 36 25 9 5 9 5 5 6 7 4 10 11 12 12 16 19 17 15 17 28 27 33 11 21 12 14 16 17 16 14 13 11 12 12 13 12 12 12 13 13
33 36 41 40 39 38 36 33 26 14 4 5 2 3 3 3 6 6 9 10 9 12 17 15 15 10 36 27 28 11 22 18 16 15 17 17 16 16 14 12 14 11 12 14 14 15 16
32 33 37 40 40 38 34 32 31 16 11 8 4 4 3 5 3 6 9 12 12 13 11 10 9 11 33 31 30 31 15 21 18 18 17 18 16 16 13 10 10 10 11 12 14 14 16
30 32 33 36 42 42 35 29 27 26 9 5 4 4 3 3 5 6 8 6 7 10 9 12 9 13 31 28 32 30 24 21 24 20 18 16 17 15 13 10 7 10 9 8 13 12 13
31 32 31 34 37 39 41 30 27 23 18 12 5 8 3 7 5 5 6 7 8 10 12 12 12 17 27 27 27 26 27 25 22 19 17 16 15 14 13 11 9 8 5 8 12 13 15
31 32 32 34 34 36 35 37 27 23 15 12 8 5 4 5 6 7 7 8 13 13 13 16 15 12 20 30 23 26 22 16 17 18 17 16 15 14 13 11 4 7 9 10 9 16 16
31 33 32 34 34 34 33 35 36 24 16 11 8 5 3 5 7 8 11 16 16 18 17 12 18 7 27 28 19 22 25 16 16 18 17 14 12 8 11 14 11 9 8 10 9 16 19
30 35 36 37 36 34 33 32 34 35 25 9 6 7 4 5 7 9 14 16 15 15 15 10 9 16 24 32 28 25 25 16 16 15 13 14 13 13 9 10 9 8 6 6 11 12 15
28 33 36 37 38 37 36 34 31 31 32 20 10 9 8 7 10 13 14 13 14 11 17 16 17 30 28 28 23 24 23 19 14 13 12 11 8 8 8 7 6 3 3 7 9 12 10
27 31 34 37 37 38 35 34 32 28 28 31 21 17 16 15 15 18 17 18 24 18 16 16 21 25 26 28 24 27 23 21 16 11 10 7 6 9 8 6 5 4 8 7 8 9 2
27 29 31 34 37 39 39 35 31 29 24 28 32 40 26 23 28 31 31 25 16 10 5 6 9 16 24 12 27 21 18 13 11 14 7 6 10 8 6 5 6 5 6 5 7 8 11
27 28 30 32 35 37 39 39 32 26 23 20 23 28 32 30 25 19 16 15 11 7 7 8 12 13 14 18 16 17 14 11 11 10 3 5 8 6 7 4 6 6 3 4 2 3 3
26 26 28 29 31 34 36 38 36 31 23 20 19 19 20 19 17 15 14 12 11 11 8 12 15 17 18 18 18 15 13 14 6 7 6 6 3 3 4 3 2 2 2 2 2 1 3
24 25 26 28 29 31 33 34 35 31 29 22 20 20 20 20 16 17 17 16 13 8 15 18 19 18 14 14 15 14 11 5 8 5 8 3 2 5 2 4 3 2 1 0 2 3 2
21 23 23 25 27 28 28 29 31 32 28 28 26 25 26 21 14 13 14 19 10 13 19 16 15 13 11 9 11 9 7 4 6 10 3 3 3 4 4 3 4 1 1 3 3 5 3
19 20 21 20 22 23 24 24 25 24 23 26 28 30 27 24 21 21 29 26 20 19 16 10 5 6 10 11 6 6 4 4 4 5 7 3 3 4 3 1 3 3 4 1 1 2 3
16 18 18 20 19 21 19 19 20 22 20 22 26 27 22 22 22 24 29 25 17 12 16 12 11 11 8 10 7 5 3 5 6 5 5 8 2 2 4 3 6 6 2 0 2 5 2
13 14 16 16 17 19 19 18 18 20 21 18 24 24 17 15 17 23 22 21 21 19 16 14 13 13 9 9 8 4 5 5 4 5 3 1 6 5 3 8 9 9 8 8 5 0 9
12 10 12 14 15 15 16 19 18 14 14 16 21 22 18 12 18 20 19 17 16 12 10 12 10 12 13 10 6 5 4 4 3 1 2 2 1 0 2 6 5 10 10 12 12 14 15
11 9 8 11 13 13 14 15 16 16 14 11 12 16 16 13 18 17 16 15 16 15 14 14 13 11 12 9 8 6 5 3 2 2 2 2 4 6 6 5 8 11 10 13 16 9 9
15 8 7 7 8 10 11 12 11 12 13 11 14 14 12 15 15 15 14 13 11 11 10 9 11 10 8 4 5 3 3 1 1 1 2 4 4 8 13 15 19 22 23 21 26 26 17
17 14 6 6 6 7 7 8 9 9 10 10 10 11 12 12 11 14 10 10 10 8 7 7 6 5 4 2 1 4 3 3 6 4 7 8 6 16 21 13 12 20 22 25 30 34 35
20 15 12 6 5 6 6 5 5 6 7 7 8 8 7 9 7 9 6 5 5 4 5 4 3 3 3 5 7 9 11 11 12 12 13 12 9 13 8 8 18 24 16 22 30 33 29
20 17 15 11 5 6 7 8 7 6 5 4 3 3 3 4 4 3 3 3 2 3 3 4 6 7 8 11 12 13 15 15 16 15 16 15 14 11 13 12 3 4 8 10 14 13 18
17 18 16 13 10 5 6 7 8 9 9 7 6 7 7 5 6 7 7 7 7 7 7 6 6 8 11 14 14 8 9 6 6 10 14 15 15 7 5 8 22 11 13 13 19 19 17
15 16 16 14 12 8 7 7 8 8 9 12 13 11 11 11 6 7 10 11 11 12 12 10 11 12 12 15 8 3 3 4 5 5 7 10 12 12 4 5 5 5 9 10 11 15 5
16 13 14 15 13 13 9 9 8 10 9 8 10 14 17 17 16 15 12 12 13 14 16 17 15 14 17 8 7 5 6 7 5 6 6 8 11 21 21 10 14 17 15 11 6 5 8
18 14 13 14 14 13 14 12 9 10 12 13 11 11 12 13 15 18 19 19 18 17 16 16 18 12 10 6 5 6 7 8 9 11 14 11 7 10 10 10 12 2 6 12 16 20 22
16 17 15 13 16 15 15 15 15 13 12 12 15 16 15 14 14 15 14 16 17 19 21 22 19 18 10 9 10 8 12 17 18 12 12 13 15 9 14 11 21 27 33 32 32 32 32

GFSGBSN_700_spd_111.txt.gz
Wind_Speed
32 34 36 38 41 43 35 32 34 20 11 12 7 5 3 1 3 6 10 11 15 15 17 16 12 16 34 36 35 22 23 20 20 20 20 19 17 15 14 14 15 13 13 11 9 9 9
32 34 35 37 38 41 36 31 30 20 11 11 6 6 5 3 3 2 8 9 17 15 15 15 13 13 28 32 35 16 25 21 19 19 22 25 22 19 15 14 14 13 10 10 9 10 11
32 34 34 36 36 38 40 32 25 19 13 11 8 9 7 7 4 4 5 12 15 13 12 13 15 13 16 31 22 22 21 23 21 21 22 24 24 21 17 13 11 11 11 11 10 10 12
33 35 35 35 36 36 37 35 24 19 14 11 5 7 6 3 6 8 7 7 6 11 14 14 14 17 20 35 24 23 27 22 20 17 17 16 15 15 16 13 14 12 11 9 9 11 10
33 36 37 35 34 35 35 37 25 17 14 13 11 10 8 7 6 7 7 8 8 12 13 14 13 17 22 30 31 29 14 18 18 16 16 15 14 15 13 13 12 11 6 8 9 9 10
33 36 38 36 35 36 33 35 34 18 14 12 8 6 7 7 8 8 8 10 11 15 17 12 14 19 20 25 30 29 28 16 20 20 17 16 16 16 15 14 8 9 10 7 9 9 12
31 36 38 38 36 37 37 29 34 29 12 11 8 5 5 7 6 5 10 15 14 16 17 10 12 16 24 24 33 26 31 20 19 19 16 16 16 14 14 13 8 6 7 5 6 12 16
29 34 37 39 38 35 36 35 32 32 20 12 8 7 8 10 10 13 13 15 16 20 18 18 13 21 22 27 25 28 23 27 20 18 17 16 13 13 12 10 8 7 6 5 7 10 15
29 31 35 39 40 36 33 32 31 36 26 17 14 11 10 14 14 15 16 16 17 17 28 21 18 22 24 19 19 25 23 21 18 17 17 16 12 9 9 8 7 5 5 7 8 10 13
28 29 34 38 39 38 36 30 27 31 41 25 21 16 15 17 19 16 18 20 21 21 16 15 21 19 20 20 23 23 24 20 16 14 14 9 10 10 9 8 7 6 4 6 7 10 4
27 28 32 35 37 39 37 34 27 24 29 35 37 37 22 18 20 26 22 21 16 7 6 6 10 15 18 13 22 20 20 16 14 16 7 7 9 8 7 5 6 4 4 6 8 9 13
25 27 29 34 36 37 38 35 34 24 25 24 22 21 20 22 19 19 16 11 8 7 8 8 11 17 16 21 23 24 17 12 14 11 8 9 10 7 5 6 8 3 3 4 6 5 3
23 25 26 31 32 34 35 36 36 33 27 25 23 22 22 19 17 16 16 15 12 12 7 10 13 16 20 17 19 17 14 13 9 8 10 12 7 5 4 5 4 5 3 1 2 1 5
20 22 23 25 29 30 31 32 35 33 33 31 30 24 22 19 17 17 18 21 15 13 15 20 22 20 18 22 19 16 11 9 9 6 9 4 3 6 4 2 1 2 3 1 4 1 4
17 20 21 21 23 26 27 28 29 29 32 34 34 33 31 25 18 16 23 26 14 19 27 25 21 13 10 10 14 11 5 6 8 8 4 5 5 5 6 4 5 2 2 3 4 5 3
14 16 19 21 21 22 25 25 24 22 23 26 29 34 30 26 24 21 30 31 22 22 15 10 7 9 16 13 8 6 3 6 7 8 7 7 7 7 4 3 6 5 5 2 2 2 4
12 13 15 17 20 20 20 22 24 22 22 21 24 28 21 21 19 21 30 23 19 18 15 10 11 13 14 11 9 5 3 7 7 8 6 10 4 6 5 7 9 8 6 5 3 3 1
13 11 13 15 16 18 19 19 20 20 20 19 22 23 17 16 15 24 22 21 18 15 15 13 10 10 11 10 5 3 5 5 8 9 11 7 8 8 3 4 8 8 5 7 5 5 10
13 11 9 11 13 15 16 16 17 18 14 14 18 19 16 15 18 20 18 15 15 13 11 10 9 10 11 10 4 5 5 6 5 5 5 7 6 5 4 8 15 18 16 16 15 13 15
18 12 10 8 9 12 13 13 13 13 16 13 12 14 15 13 16 17 16 14 13 12 11 11 11 11 10 5 5 6 5 4 4 3 3 4 8 9 10 3 6 11 12 15 20 12 16
19 17 12 10 7 7 9 11 11 11 11 12 12 14 12 11 12 12 10 10 9 9 7 6 8 6 6 3 4 2 1 0 2 3 3 4 7 11 13 15 18 22 24 23 27 31 24
19 18 16 11 10 6 4 6 8 9 9 11 10 11 11 11 10 10 10 8 8 7 6 6 6 4 3 3 2 4 5 5 5 5 6 8 6 14 20 13 13 21 23 26 33 36 40
17 17 17 15 11 9 6 3 2 4 5 5 6 7 6 7 7 7 7 6 6 6 5 5 5 5 6 5 7 10 12 12 13 13 13 12 8 12 8 8 18 23 8 11 22 30 31
15 16 16 16 13 11 9 6 6 2 2 4 4 3 3 4 4 4 4 5 7 7 7 8 8 9 9 11 13 13 14 13 15 15 17 15 13 10 12 15 2 4 7 10 16 16 18
13 15 14 14 15 14 14 10 7 7 6 6 7 8 6 7 7 7 6 7 7 8 8 8 9 10 13 14 17 9 6 6 5 9 14 16 16 8 5 7 23 12 16 8 11 14 15
13 12 14 12 12 14 15 15 11 9 7 7 7 10 12 11 9 8 11 11 11 11 11 8 11 14 14 16 12 4 3 4 4 5 8 10 14 15 7 5 6 5 6 8 13 21 6
14 13 12 12 10 10 12 14 15 14 11 11 10 8 8 10 13 15 14 12 14 15 15 15 14 12 14 8 9 4 4 5 4 5 5 10 13 23 23 11 15 14 16 12 5 7 12
14 16 12 13 12 10 11 11 12 14 15 14 11 13 13 12 12 12 12 14 15 15 15 16 16 8 7 5 4 3 6 6 8 12 14 10 9 9 12 10 11 4 8 14 18 25 27
16 15 14 12 14 13 12 12 11 12 12 13 14 13 12 11 14 17 17 16 16 14 15 16 15 17 9 7 7 6 11 15 18 13 17 12 11 10 13 13 25 32 34 34 34 32 32

GFSGBSN_700_spd_114.txt.gz
Wind_Speed
33 35 35 35 35 35 35 25 23 19 15 11 8 6 5 3 2 5 7 12 12 12 16 14 11 21 21 21 25 28 25 25 26 25 22 23 23 20 20 20 20 16 17 14 13 11 10
34 36 34 33 34 34 35 23 20 17 16 9 8 9 6 5 5 5 8 11 15 14 17 16 15 13 25 15 35 21 24 27 28 28 24 27 26 21 19 18 17 15 16 14 12 10 10
33 35 34 33 33 33 35 26 17 17 16 8 8 9 8 7 4 6 5 8 12 15 16 19 16 13 20 22 29 21 27 29 29 27 24 25 24 22 21 18 17 14 13 12 12 11 11
33 34 33 32 34 34 33 32 18 14 16 10 11 9 7 7 6 5 5 13 15 15 17 17 18 15 17 20 31 33 35 28 26 23 20 20 20 19 21 17 19 15 14 12 11 12 11
32 35 34 31 32 33 29 32 25 15 15 13 11 11 10 9 5 8 10 12 12 16 17 15 17 15 17 23 20 37 28 27 22 21 20 19 20 19 18 16 17 16 11 15 10 11 11
30 34 35 33 30 30 31 28 29 17 14 13 9 11 11 11 10 8 7 9 12 14 16 15 16 15 18 26 21 25 21 31 22 21 20 20 21 20 18 18 14 15 13 11 10 9 11
29 32 34 34 31 29 31 30 29 21 16 14 12 11 9 9 10 9 10 12 16 16 11 11 18 10 23 20 29 21 20 24 20 19 20 19 18 18 18 16 10 10 11 8 8 10 12
28 31 34 36 35 29 27 35 33 26 22 17 14 12 9 10 13 15 12 14 14 18 21 12 20 20 25 27 22 20 20 15 20 19 18 19 17 16 16 14 9 9 8 7 8 9 12
27 29 34 37 36 33 26 27 33 29 25 23 19 15 14 14 18 18 21 19 17 24 25 24 20 17 21 29 24 27 26 14 16 17 18 18 18 15 13 12 10 9 8 7 7 8 12
26 27 33 35 37 34 28 23 25 30 35 22 23 19 17 16 17 19 23 24 22 21 15 12 17 18 15 27 25 30 26 25 18 15 16 9 15 13 12 11 10 9 7 5 6 7 4
24 27 29 33 35 37 32 25 21 19 25 26 27 22 20 22 22 23 26 18 9 6 5 6 9 15 19 9 29 26 20 21 19 18 8 10 13 13 12 11 10 7 5 4 6 8 9
21 24 27 29 32 33 35 31 26 20 20 19 18 18 18 16 15 18 11 9 9 6 7 7 9 16 11 19 21 21 20 18 15 10 10 14 14 10 9 9 8 4 2 1 5 5 2
20 21 23 25 27 30 31 32 33 28 21 22 21 18 14 11 9 4 5 8 8 10 6 8 14 12 18 21 21 19 18 17 10 9 13 14 9 7 6 4 4 4 4 2 3 3 3
19 20 22 22 23 26 29 30 31 31 29 27 24 19 18 15 10 8 8 13 13 11 14 17 17 20 24 22 20 14 10 11 10 6 12 5 5 7 5 3 4 4 4 2 5 0 4
18 18 21 21 21 23 25 27 26 27 29 30 30 29 24 22 18 14 20 22 13 18 25 25 22 15 11 10 12 9 8 8 7 12 3 6 6 7 7 4 4 3 3 4 1 3 3
16 16 17 19 20 20 21 24 25 22 22 24 27 29 27 25 25 22 30 32 21 19 12 9 7 8 16 14 8 6 4 9 7 8 6 8 8 8 6 5 6 5 5 3 3 2 4
13 16 15 15 18 17 18 18 22 22 20 17 18 23 20 18 16 18 30 26 19 14 10 7 8 15 11 7 7 3 4 7 8 8 7 9 3 8 5 6 7 9 7 6 5 4 3
12 12 15 13 14 16 15 17 15 18 21 17 18 19 17 15 16 23 21 16 15 14 12 11 9 12 9 7 4 1 4 3 6 6 10 6 5 5 4 4 7 9 7 10 5 5 7
14 11 10 12 12 12 13 12 14 13 14 15 17 17 15 14 16 19 18 15 13 9 7 6 7 6 9 5 2 4 4 7 6 6 6 5 5 3 2 8 15 18 17 17 15 10 12
14 12 9 8 10 10 9 10 9 10 11 10 10 10 12 12 14 15 15 13 12 11 9 8 9 7 5 4 3 4 4 3 4 5 5 6 8 9 8 3 5 11 13 18 23 13 16
16 13 11 8 7 7 7 7 8 8 9 10 10 12 13 12 13 12 12 10 9 8 7 6 5 5 4 3 4 2 1 2 4 5 5 5 7 11 15 16 20 22 23 22 29 31 29
13 14 13 11 6 6 6 5 4 4 5 6 6 7 9 9 10 10 10 10 9 8 7 6 6 5 5 3 3 4 5 5 5 4 6 9 9 15 22 18 22 29 30 33 37 37 42
10 12 12 12 10 6 6 6 7 5 4 2 1 2 3 4 5 5 6 6 6 7 6 6 5 5 4 5 7 9 11 11 12 11 12 13 9 12 7 7 17 25 18 25 29 32 31
9 11 12 11 11 8 7 6 7 9 8 7 6 4 4 2 3 3 3 2 3 4 4 4 5 7 8 10 12 14 11 11 13 15 15 15 14 11 13 16 3 4 6 8 13 17 19
10 10 10 10 10 10 8 7 7 8 9 11 11 10 8 8 7 7 7 5 6 6 6 6 8 8 10 12 13 6 4 3 4 8 13 15 15 8 6 9 25 13 10 17 15 17 16
11 10 11 10 9 9 9 9 7 9 7 10 10 10 11 12 12 10 9 10 12 11 9 9 10 13 12 12 7 3 2 3 3 4 7 10 14 15 5 4 5 6 6 9 14 11 6
14 14 13 13 11 9 9 9 7 7 6 7 7 10 12 11 8 9 11 13 12 12 14 14 13 12 14 8 7 4 3 4 4 4 5 8 12 20 20 10 14 16 12 10 5 8 23
16 16 17 16 16 14 11 10 8 9 7 6 7 6 7 8 12 13 9 10 11 12 13 12 13 5 7 5 4 3 4 5 7 10 11 8 7 7 9 10 11 4 8 14 21 29 32
19 20 19 19 16 18 15 13 10 9 11 11 9 9 9 8 10 11 13 14 14 14 13 14 12 12 6 6 7 7 11 15 15 11 15 11 8 11 13 14 24 36 32 30 34 39 35

GFSGBSN_700_spd_117.txt.gz
Wind_Speed
31 32 31 31 32 34 32 21 19 18 16 11 9 8 7 7 6 6 5 10 6 8 14 12 14 19 28 27 27 21 30 28 29 29 28 27 27 26 26 25 23 19 20 20 18 16 15
31 33 31 30 30 35 33 24 16 17 16 10 10 10 9 9 9 4 5 8 10 12 13 12 9 20 21 21 20 21 29 27 29 29 27 26 25 22 22 24 24 19 19 18 17 15 14
31 33 31 29 29 32 33 28 17 15 14 9 12 11 12 12 11 5 4 7 8 11 14 13 11 13 23 19 23 13 33 29 28 27 27 25 24 21 22 24 22 22 20 18 16 14 13
30 33 32 29 29 32 30 25 17 14 15 12 14 13 12 11 9 7 1 8 11 13 14 14 11 11 13 18 25 30 30 30 28 25 24 24 23 21 26 20 21 22 20 19 17 16 14
29 32 33 29 27 31 25 24 17 13 13 10 13 14 14 10 9 14 12 12 13 15 16 15 12 12 10 16 22 19 26 29 28 25 25 23 22 21 22 19 21 20 15 19 16 16 15
27 31 31 32 26 28 27 27 19 13 13 11 12 14 14 11 9 10 10 13 16 15 15 16 13 12 10 15 18 19 22 31 30 26 25 22 20 19 20 20 19 20 13 17 14 13 15
26 29 32 33 28 25 30 26 22 17 14 14 13 13 12 12 12 9 10 14 14 16 11 12 15 8 15 16 15 17 31 28 27 25 24 20 18 17 18 18 14 14 15 11 13 12 11
26 27 32 34 33 24 24 31 22 22 19 18 16 16 15 16 15 16 17 14 11 15 13 10 13 10 10 18 12 17 21 26 23 20 20 20 17 17 17 15 12 13 13 12 10 10 11
26 26 30 34 34 27 20 23 28 21 22 22 18 17 16 15 16 20 23 18 17 17 25 17 15 14 18 17 14 14 20 23 21 18 17 19 17 17 15 14 11 11 10 9 7 6 10
24 26 27 30 34 32 23 20 20 24 19 20 19 16 14 13 18 22 23 23 18 17 14 12 13 14 19 13 19 16 16 17 18 18 16 9 15 15 13 12 11 8 8 6 5 4 4
22 24 25 27 29 33 30 21 19 16 19 21 21 20 19 18 22 23 20 10 7 5 5 6 11 9 22 14 24 20 13 12 17 19 9 11 14 13 12 11 10 6 6 4 5 6 8
23 22 23 25 25 30 32 29 20 17 16 15 16 18 16 13 14 7 7 7 6 5 6 6 8 16 18 25 24 20 22 18 15 11 9 16 15 11 10 10 8 6 4 3 6 6 2
20 22 22 22 24 24 28 30 27 22 16 15 12 10 10 8 3 4 5 4 6 10 5 9 11 20 23 27 25 22 23 23 11 10 15 15 11 8 8 8 7 6 5 1 3 2 4
18 20 21 20 22 23 23 26 27 27 24 19 15 13 9 7 7 7 11 14 12 9 11 14 19 23 24 21 19 15 16 11 12 5 16 7 6 9 8 6 5 7 6 2 5 1 4
16 18 18 19 18 21 22 22 23 23 26 26 23 20 17 19 16 14 17 16 12 18 22 22 25 20 15 11 13 9 10 10 8 13 2 6 6 9 8 5 6 5 5 6 1 1 3
13 15 16 17 18 17 19 20 20 21 20 20 21 23 24 22 18 18 27 28 19 16 13 11 7 7 14 12 6 5 3 8 6 8 5 6 7 9 6 6 8 5 7 3 4 2 4
11 11 13 15 15 16 15 15 18 18 18 18 16 19 18 15 15 17 30 25 18 15 12 9 11 15 10 7 7 4 3 6 7 6 4 7 4 8 7 6 6 8 6 6 4 3 3
10 9 9 12 13 13 13 14 12 14 15 15 16 18 17 15 13 22 21 19 18 15 14 13 11 9 7 7 5 4 5 3 6 8 6 3 2 4 4 4 6 11 8 9 5 4 5
12 10 9 7 9 12 11 10 11 10 8 12 14 15 16 14 15 17 18 16 14 9 7 8 7 7 8 5 3 5 4 6 5 6 7 4 4 2 2 8 13 16 18 16 15 9 12
12 11 10 8 6 7 9 9 8 9 8 7 6 7 9 11 14 14 15 13 12 11 10 10 9 7 5 5 5 5 5 3 4 5 5 5 7 9 7 3 7 11 11 18 20 11 12
12 12 11 10 7 6 5 6 7 7 6 8 7 7 7 7 10 11 11 11 10 10 8 7 7 7 6 5 5 4 2 3 4 5 6 6 7 11 14 17 22 24 23 19 27 31 27
9 12 12 11 11 7 6 5 4 5 7 6 5 5 5 5 6 7 6 8 8 8 7 7 6 6 5 3 2 1 3 4 6 7 9 10 8 14 21 16 21 29 29 31 36 36 41
7 10 12 12 12 10 7 7 6 6 6 6 6 5 5 4 4 3 2 2 3 3 2 2 2 1 1 1 4 6 8 9 10 9 10 11 8 10 6 7 18 21 7 10 24 32 32
7 9 11 13 12 12 9 8 8 6 6 8 8 8 9 8 7 6 5 4 4 3 3 3 3 4 4 7 10 11 10 10 11 13 14 14 11 9 10 12 2 2 14 16 13 11 14
11 9 9 11 12 11 10 9 8 7 7 4 5 8 10 11 12 11 10 9 8 8 8 8 9 8 9 12 11 6 4 3 4 8 11 13 12 6 5 9 19 0 6 7 6 11 5
14 11 9 10 11 11 11 10 9 6 7 6 6 6 6 7 6 9 10 11 12 13 11 10 9 12 13 11 9 3 3 2 2 3 6 8 11 12 5 5 5 3 6 9 11 4 4
18 16 14 11 13 13 12 12 11 8 6 7 6 4 7 9 9 8 8 10 9 8 9 11 10 10 9 6 5 4 3 4 3 4 4 6 9 16 17 10 13 14 9 10 7 8 23
20 17 17 15 16 16 15 13 12 10 9 8 9 9 6 7 9 8 8 8 11 10 10 9 10 6 5 3 3 3 4 4 6 9 7 5 5 6 8 9 7 3 10 16 24 29 32
21 18 18 18 17 16 16 15 14 12 11 11 12 12 12 10 11 12 13 10 10 11 11 10 12 13 7 4 4 5 8 12 14 8 11 9 8 9 10 11 23 31 29 30 32 41 40